[[{"header":{"parameterUnit":"m.s-1","parameterCategory":1,"la1":30.6,"la2":29.2853,"lo1":-89.7004,"lo2":-87.6739,"dy":0.0162,"dx":0.0183,"nx":112,"ny":82,"refTime":"2024-08-14T18:00:00:Z","depth":0,"parameterNumber":2,"parameterNumberName":"U-component_of_WINDS"},"data":[0.0,0.0,0.0,0.0,0.0,0.0,0.0,0.0,0.0,0.0,0.0,0.0,0.0,0.0,0.0,0.0,0.0,0.0,0.0,0.0,0.0,0.0,0.0,0.0,0.0,0.0,0.0,0.0,0.0,0.0,0.0,0.0,0.0,0.0,0.0,0.0,0.0,0.0,0.0,0.0,0.0,0.0,0.0,0.0,0.0,0.0,0.0,0.0,0.0,0.0,0.0,0.0,0.0,0.0,0.0,0.0,0.0,0.0,0.0,0.0,0.0,0.0,0.0,0.0,0.0,0.0,0.0,0.0,0.0,0.0,0.0,0.0,0.0,0.0,0.0,0.0,0.0,0.0,0.0,0.0,0.0,0.0,0.0,0.0,0.0,0.0,0.0,0.0,0.0,0.0,1.8055,1.9434,2.1669,2.2949,2.2472,2.2284,2.1117,1.8715,0.0,0.0,0.0,0.0,0.0,0.0,0.0,0.0,0.0,0.0,0.0,0.0,0.0,0.0,0.0,0.0,0.0,0.0,0.0,0.0,0.0,0.0,0.0,0.0,0.0,0.0,0.0,0.0,0.0,0.0,0.0,0.0,0.0,0.0,0.0,0.0,0.0,0.0,0.0,0.0,0.0,0.0,0.0,0.0,0.0,0.0,0.0,0.0,0.0,0.0,0.0,0.0,0.0,0.0,0.0,0.0,0.0,0.0,0.0,0.0,0.0,0.0,0.0,0.0,0.0,0.0,0.0,0.0,0.0,0.0,0.0,0.0,0.0,0.0,0.0,0.0,0.0,0.0,0.0,0.0,0.0,0.0,0.0,0.0,0.0,0.0,0.0,0.0,0.0,0.0,0.0,0.0,0.0,0.0,0.0,0.0,0.0,0.0,0.0,0.0,0.0,0.0,0.0,0.0,1.8649,2.1493,2.2598,2.304,2.2965,2.2146,2.1083,1.9826,0.0,0.0,0.0,0.0,0.0,0.0,0.0,0.0,0.0,0.0,0.0,0.0,0.0,0.0,0.0,0.0,0.0,0.0,0.0,0.0,0.0,0.0,0.0,0.0,0.0,0.0,0.0,0.0,0.0,0.0,0.0,0.0,0.0,0.0,0.0,0.0,0.0,0.0,0.0,0.0,0.0,0.0,0.0,0.0,0.0,0.0,0.0,0.0,0.0,0.0,0.0,0.0,0.0,0.0,0.0,0.0,0.0,0.0,0.0,0.0,0.0,0.0,0.0,0.0,0.0,0.0,0.0,0.0,0.0,0.0,0.0,0.0,0.0,0.0,0.0,0.0,0.0,0.0,0.0,0.0,0.0,0.0,0.0,0.0,0.0,0.0,0.0,0.0,0.0,0.0,0.0,0.0,0.0,0.0,0.0,0.0,0.0,0.0,0.0,0.0,0.0,0.0,0.0,1.7887,1.9546,2.202,2.2871,2.321,2.3138,2.2121,2.1071,2.0054,1.7885,0.0,0.0,0.0,0.0,0.0,0.0,0.0,0.0,0.0,0.0,0.0,0.0,0.0,0.0,0.0,0.0,0.0,0.0,0.0,0.0,0.0,0.0,0.0,0.0,0.0,0.0,0.0,0.0,0.0,0.0,0.0,0.0,0.0,0.0,0.0,0.0,0.0,0.0,0.0,0.0,0.0,0.0,0.0,0.0,0.0,0.0,0.0,0.0,0.0,0.0,0.0,0.0,0.0,0.0,0.0,0.0,0.0,0.0,0.0,0.0,0.0,0.0,0.0,0.0,0.0,0.0,0.0,0.0,0.0,0.0,0.0,0.0,0.0,0.0,0.0,0.0,0.0,0.0,0.0,0.0,0.0,0.0,0.0,0.0,0.0,0.0,0.0,0.0,0.0,0.0,0.0,0.0,0.0,0.0,0.0,0.0,0.0,0.0,0.0,0.0,0.0,0.0,1.9544,2.0601,2.2297,2.3005,2.3271,2.3138,2.1882,2.0781,2.0041,1.7162,0.0,0.0,0.0,0.0,0.0,0.0,0.0,0.0,0.0,0.0,0.0,0.0,0.0,0.0,0.0,0.0,0.0,0.0,0.0,0.0,0.0,0.0,0.0,0.0,0.0,0.0,0.0,0.0,0.0,0.0,0.0,0.0,0.0,0.0,0.0,0.0,0.0,0.0,0.0,0.0,0.0,0.0,0.0,0.0,0.0,0.0,0.0,0.0,0.0,0.0,0.0,0.0,0.0,0.0,0.0,0.0,0.0,0.0,0.0,0.0,0.0,0.0,0.0,0.0,0.0,0.0,0.0,0.0,0.0,0.0,0.0,0.0,0.0,0.0,0.0,0.0,0.0,0.0,0.0,0.0,0.0,0.0,0.0,0.0,0.0,0.0,0.0,0.0,0.0,0.0,0.0,0.0,0.0,0.0,0.0,0.0,0.0,0.0,0.0,0.0,0.0,0.0,2.0296,2.1926,2.2949,2.3113,2.3138,2.3078,2.1167,1.995,1.999,1.6422,0.0,0.0,0.0,0.0,0.0,0.0,0.0,0.0,0.0,0.0,0.0,0.0,0.0,0.0,0.0,0.0,0.0,0.0,0.0,0.0,0.0,0.0,0.0,0.0,0.0,0.0,0.0,0.0,0.0,0.0,0.0,0.0,0.0,0.0,0.0,0.0,0.0,0.0,0.0,0.0,0.0,0.0,0.0,0.0,0.0,0.0,0.0,0.0,0.0,0.0,0.0,0.0,0.0,0.0,0.0,0.0,0.0,0.0,0.0,0.0,0.0,0.0,0.0,0.0,0.0,0.0,0.0,0.0,0.0,0.0,0.0,0.0,0.0,0.0,0.0,0.0,0.0,0.0,0.0,0.0,0.0,0.0,0.0,0.0,0.0,0.0,0.0,0.0,0.0,0.0,0.0,0.0,0.0,0.0,0.0,0.0,0.0,0.0,0.0,0.0,0.0,0.0,1.9812,2.1348,0.0,2.321,2.3271,2.3138,2.1732,2.0467,1.9635,0.0,0.0,0.0,0.0,0.0,0.0,0.0,0.0,0.0,0.0,0.0,0.0,0.0,0.0,0.0,0.0,0.0,0.0,0.0,0.0,0.0,0.0,0.0,0.0,0.0,0.0,0.0,0.0,0.0,0.0,0.0,0.0,0.0,0.0,0.0,0.0,0.0,0.0,0.0,0.0,0.0,0.0,0.0,0.0,0.0,0.0,0.0,0.0,0.0,0.0,0.0,0.0,0.0,0.0,0.0,0.0,0.0,0.0,0.0,0.0,0.0,0.0,0.0,0.0,0.0,0.0,0.0,0.0,0.0,0.0,0.0,0.0,0.0,0.0,0.0,0.0,0.0,0.0,0.0,0.0,0.0,0.0,0.0,0.0,0.0,0.0,0.0,0.0,0.0,0.0,0.0,0.0,0.0,0.0,0.0,0.0,0.0,0.0,0.0,0.0,0.0,0.0,1.8367,1.9863,2.1285,0.0,2.321,2.3271,2.3138,2.1794,2.0507,1.9379,0.0,0.0,0.0,0.0,0.0,0.0,0.0,0.0,0.0,0.0,0.0,0.0,0.0,0.0,0.0,0.0,0.0,0.0,0.0,0.0,0.0,0.0,0.0,0.0,0.0,0.0,0.0,0.0,0.0,0.0,0.0,0.0,0.0,0.0,0.0,0.0,0.0,0.0,0.0,0.0,0.0,0.0,0.0,0.0,0.0,0.0,0.0,0.0,0.0,0.0,0.0,0.0,0.0,0.0,0.0,0.0,0.0,0.0,0.0,0.0,0.0,0.0,0.0,0.0,0.0,0.0,0.0,0.0,0.0,0.0,0.0,0.0,0.0,0.0,0.0,0.0,0.0,0.0,0.0,0.0,0.0,0.0,0.0,0.0,0.0,0.0,0.0,0.0,0.0,0.0,0.0,0.0,0.0,0.0,0.0,0.0,0.0,0.0,0.0,0.0,0.0,0.0,1.898,2.0716,2.2078,2.3012,2.3078,2.3078,2.3078,2.1104,1.9687,0.0,0.0,0.0,0.0,0.0,0.0,0.0,0.0,0.0,0.0,0.0,0.0,0.0,0.0,0.0,0.0,0.0,0.0,0.0,0.0,0.0,0.0,0.0,0.0,0.0,0.0,0.0,0.0,0.0,0.0,0.0,0.0,0.0,0.0,0.0,0.0,0.0,0.0,0.0,0.0,0.0,0.0,0.0,0.0,0.0,0.0,0.0,0.0,0.0,0.0,0.0,0.0,0.0,0.0,0.0,0.0,0.0,0.0,0.0,0.0,0.0,0.0,0.0,0.0,0.0,0.0,0.0,0.0,0.0,0.0,0.0,0.0,0.0,0.0,0.0,0.0,0.0,0.0,0.0,0.0,0.0,0.0,0.0,0.0,0.0,0.0,0.0,0.0,0.0,0.0,0.0,0.0,0.0,0.0,0.0,0.0,0.0,0.0,0.0,0.0,0.0,0.0,0.0,1.8933,2.061,2.1964,2.3012,2.3078,2.3078,2.3078,2.182,2.0355,1.8818,0.0,0.0,0.0,0.0,0.0,0.0,0.0,0.0,0.0,0.0,0.0,0.0,0.0,0.0,0.0,0.0,0.0,0.0,0.0,0.0,0.0,0.0,0.0,0.0,0.0,0.0,0.0,0.0,0.0,0.0,0.0,0.0,0.0,0.0,0.0,0.0,0.0,0.0,0.0,0.0,0.0,0.0,0.0,0.0,0.0,0.0,0.0,0.0,0.0,0.0,0.0,0.0,0.0,0.0,0.0,0.0,0.0,0.0,0.0,0.0,0.0,0.0,0.0,0.0,0.0,0.0,0.0,0.0,0.0,0.0,0.0,0.0,0.0,0.0,0.0,0.0,0.0,0.0,0.0,0.0,0.0,0.0,0.0,0.0,0.0,0.0,0.0,0.0,0.0,0.0,0.0,0.0,0.0,0.0,0.0,0.0,0.0,0.0,0.0,0.0,0.0,0.0,1.9264,2.0762,2.1907,2.2965,2.3078,2.3078,2.3078,2.2121,2.0627,1.8582,0.0,0.0,0.0,0.0,0.0,0.0,0.0,0.0,0.0,0.0,0.0,0.0,0.0,0.0,0.0,0.0,0.0,0.0,0.0,0.0,0.0,0.0,0.0,0.0,0.0,0.0,0.0,0.0,0.0,0.0,0.0,0.0,0.0,0.0,0.0,0.0,0.0,0.0,0.0,0.0,0.0,0.0,0.0,0.0,0.0,0.0,0.0,0.0,0.0,0.0,0.0,0.0,0.0,0.0,0.0,0.0,0.0,0.0,0.0,0.0,0.0,0.0,0.0,0.0,0.0,0.0,0.0,0.0,0.0,0.0,0.0,0.0,0.0,0.0,0.0,0.0,0.0,0.0,0.0,0.0,0.0,0.0,0.0,0.0,0.0,0.0,0.0,0.0,0.0,0.0,0.0,0.0,0.0,0.0,0.0,0.0,0.0,0.0,0.0,0.0,0.0,0.0,1.9748,2.1015,2.197,2.2965,2.3078,2.3078,2.3078,2.2171,2.0677,1.8617,0.0,0.0,0.0,0.0,0.0,0.0,0.0,0.0,0.0,0.0,0.0,0.0,0.0,0.0,0.0,0.0,0.0,0.0,0.0,0.0,0.0,0.0,0.0,0.0,0.0,0.0,0.0,0.0,0.0,0.0,0.0,0.0,0.0,0.0,0.0,0.0,0.0,0.0,0.0,0.0,0.0,0.0,0.0,0.0,0.0,0.0,0.0,0.0,0.0,0.0,0.0,0.0,0.0,0.0,0.0,0.0,0.0,0.0,0.0,0.0,1.6261,0.0,0.0,0.0,0.0,0.0,0.0,0.0,0.0,0.0,0.0,0.0,0.0,0.0,0.0,0.0,0.0,0.0,0.0,0.0,0.0,0.0,0.0,0.0,0.0,0.0,0.0,0.0,0.0,0.0,0.0,0.0,0.0,0.0,0.0,0.0,0.0,0.0,0.0,0.0,0.0,0.0,1.9863,2.1302,2.2397,2.3002,2.3078,2.3078,2.3078,2.2523,2.1194,1.9073,1.7803,0.0,0.0,0.0,0.0,0.0,0.0,0.0,0.0,0.0,0.0,0.0,0.0,0.0,0.0,0.0,0.0,0.0,0.0,0.0,0.0,0.0,0.0,0.0,0.0,0.0,0.0,0.0,0.0,0.0,0.0,0.0,0.0,0.0,0.0,0.0,0.0,0.0,0.0,0.0,0.0,0.0,0.0,0.0,0.0,0.0,0.0,0.0,0.0,0.0,0.0,0.0,0.0,0.0,0.0,0.0,0.0,0.0,0.0,0.0,0.0,1.7523,0.0,0.0,0.0,0.0,0.0,0.0,0.0,0.0,0.0,0.0,0.0,0.0,0.0,0.0,0.0,0.0,0.0,0.0,0.0,0.0,0.0,0.0,0.0,0.0,0.0,0.0,0.0,0.0,0.0,0.0,0.0,0.0,0.0,0.0,0.0,0.0,0.0,0.0,0.0,0.0,1.9851,2.1403,2.2523,2.3015,2.3078,2.3078,2.3078,2.2636,2.1477,1.9583,1.8394,0.0,0.0,0.0,0.0,0.0,0.0,0.0,0.0,0.0,0.0,0.0,0.0,0.0,0.0,0.0,0.0,0.0,0.0,0.0,0.0,0.0,0.0,0.0,0.0,0.0,0.0,0.0,0.0,0.0,0.0,0.0,0.0,0.0,0.0,0.0,0.0,0.0,0.0,0.0,0.0,0.0,0.0,0.0,0.0,0.0,0.0,0.0,0.0,0.0,0.0,0.0,0.0,0.0,2.0973,2.0847,2.0579,2.1047,2.0994,2.0581,2.0006,1.9593,1.9204,1.8601,0.0,0.0,0.0,0.0,0.0,0.0,0.0,0.0,0.0,0.0,0.0,0.0,0.0,0.0,0.0,0.0,0.0,0.0,0.0,0.0,0.0,0.0,1.9286,1.9493,2.0091,2.003,1.7903,0.0,0.0,0.0,0.0,0.0,0.0,0.0,0.0,0.0,0.0,0.0,2.0079,2.1512,2.2621,2.3107,2.3021,2.2898,2.2898,2.2404,2.1437,1.9851,1.8869,1.7248,0.0,0.0,0.0,0.0,0.0,0.0,0.0,0.0,0.0,0.0,0.0,0.0,0.0,0.0,0.0,0.0,0.0,0.0,0.0,0.0,0.0,0.0,0.0,0.0,0.0,0.0,0.0,0.0,0.0,0.0,0.0,0.0,1.3844,1.453,0.0,0.0,0.0,0.0,0.0,0.0,0.0,0.0,0.0,0.0,0.0,0.0,0.0,2.0403,2.0115,2.1987,2.2464,2.168,2.2646,2.2766,2.2149,2.205,2.2078,2.2154,2.206,0.0,2.0669,1.9779,0.0,0.0,0.0,0.0,0.0,0.0,0.0,0.0,0.0,0.0,0.0,0.0,0.0,0.0,0.0,0.0,0.0,0.0,0.0,0.0,0.0,0.0,2.1303,2.0948,2.1511,2.1883,2.088,1.9351,1.807,1.7682,1.6296,1.501,0.0,0.0,0.0,0.0,0.0,0.0,2.1243,2.2223,2.2971,2.3501,2.2568,2.1985,2.1985,2.151,2.074,1.9559,1.9369,1.8544,1.6776,1.5953,0.0,0.0,0.0,0.0,0.0,0.0,0.0,0.0,0.0,0.0,0.0,0.0,0.0,0.0,0.0,0.0,0.0,0.0,0.0,0.0,0.0,0.0,0.0,0.0,0.0,0.0,0.0,0.0,0.0,1.3973,1.5133,1.5206,1.569,1.5785,0.0,0.0,0.0,0.0,0.0,0.0,0.0,0.0,0.0,2.0618,2.1617,2.2293,2.2595,2.4023,2.4498,2.4105,2.4456,2.4378,2.4022,2.375,2.3585,2.3574,2.333,2.2965,2.2479,2.1178,2.0513,2.0281,0.0,0.0,0.0,0.0,1.9394,1.9351,2.0222,2.0344,2.0073,1.9744,0.0,0.0,0.0,0.0,0.0,0.0,0.0,2.0028,2.0504,2.1282,2.1946,2.189,2.2183,2.2371,2.2045,2.1021,1.9916,1.9235,1.9229,1.863,1.6456,1.6359,0.0,0.0,0.0,2.0872,2.2284,2.2946,2.337,2.3598,2.2756,2.216,2.216,2.177,2.1133,2.027,1.9736,1.8813,1.7497,1.7013,1.6317,0.0,0.0,0.0,0.0,0.0,0.0,0.0,0.0,0.0,0.0,0.0,0.0,0.0,0.0,0.0,0.0,0.0,0.0,0.0,0.0,0.0,0.0,0.0,0.0,0.0,0.0,0.0,0.0,1.5539,1.6308,1.6198,1.7106,1.7381,0.0,0.0,0.0,0.0,0.0,0.0,2.0389,2.0928,2.1709,2.2811,2.3743,2.4498,2.5057,2.5947,2.6279,2.6061,2.5819,2.5706,2.552,2.5139,2.4943,2.4736,2.4424,2.4287,2.415,2.2483,2.158,2.1171,2.0524,2.0201,2.0154,2.0638,2.0576,2.0494,2.1517,2.165,2.133,2.1111,2.0811,2.0296,1.9096,0.0,0.0,0.0,0.0,2.1058,2.1559,2.1979,2.2433,2.2756,2.2782,2.2752,2.2724,2.2504,2.1984,2.0744,2.134,2.1158,1.8281,1.825,0.0,0.0,0.0,2.1582,2.2762,2.3132,2.3267,2.3407,2.2673,2.2121,2.2121,2.1675,2.1151,2.0568,1.9889,1.8977,1.7916,1.7909,1.7352,1.5998,0.0,0.0,0.0,0.0,0.0,0.0,0.0,0.0,0.0,0.0,0.0,0.0,0.0,0.0,0.0,0.0,0.0,0.0,0.0,0.0,0.0,0.0,0.0,0.0,0.0,0.0,0.0,0.0,0.0,1.8154,1.9609,0.0,0.0,0.0,0.0,1.9022,1.967,2.0394,2.1263,2.3174,2.4726,2.5647,2.6568,2.6868,2.6475,2.7365,2.7386,2.6537,2.651,2.6426,2.6436,2.5858,2.5674,2.5664,2.5654,2.5635,2.5469,2.333,2.2261,2.2036,2.159,2.1291,2.1104,2.1352,2.158,2.1719,2.2078,2.2155,2.2205,2.2581,2.1787,2.0894,2.16,2.0822,0.0,0.0,2.1799,2.1919,2.2825,2.316,2.3207,2.367,2.3607,2.3411,2.3247,2.3545,2.3463,2.1987,2.0876,2.0193,1.998,0.0,1.9277,1.9828,2.0438,2.124,2.2409,2.231,2.24,2.2944,2.1924,2.1146,2.1146,2.0731,2.0284,1.9858,1.9785,1.9349,1.8382,1.8383,1.7964,1.7058,1.6061,0.0,0.0,0.0,0.0,0.0,0.0,0.0,0.0,0.0,0.0,0.0,0.0,0.0,0.0,0.0,0.0,0.0,0.0,0.0,0.0,0.0,0.0,0.0,0.0,0.0,0.0,0.0,0.0,1.8586,1.9473,0.0,1.8815,1.9708,2.0539,2.0985,2.2756,2.4104,2.4717,2.5485,2.5989,2.631,2.6641,2.6734,2.6568,2.7189,2.7334,2.7013,2.6809,2.6699,2.6496,2.611,2.582,2.5723,2.543,2.5469,2.5654,2.46,2.4153,2.3967,2.3536,2.3191,2.2827,2.2908,2.2867,2.265,2.2722,2.2771,2.2801,2.2948,2.2497,2.1981,2.2217,2.1917,2.1668,2.2128,2.2453,2.2689,2.3004,2.3179,2.3209,2.328,2.3309,2.3183,2.3122,2.3256,2.3242,2.2764,2.2503,2.2056,2.1144,2.1042,2.1227,2.1845,2.238,2.2956,2.3883,2.3501,2.3132,2.3012,2.2104,2.1559,2.1559,2.0866,2.0287,2.0082,1.9576,1.9168,1.8705,1.8761,1.8447,1.7483,1.6854,1.568,0.0,0.0,0.0,0.0,0.0,0.0,0.0,0.0,0.0,0.0,0.0,0.0,0.0,0.0,0.0,0.0,0.0,0.0,0.0,0.0,0.0,0.0,0.0,0.0,0.0,0.0,1.8972,1.925,2.0221,2.0464,1.9692,2.1326,2.2532,2.2814,2.4836,2.6166,2.672,2.6929,2.7169,2.7479,2.7489,2.7489,2.7489,2.7847,2.8002,2.7858,2.7628,2.7402,2.7192,2.6834,2.6576,2.6367,2.5918,2.5889,2.6133,2.5693,2.5518,2.5459,2.4863,2.4375,2.4004,2.4004,2.3818,2.3555,2.3408,2.3262,2.3135,2.3135,2.2949,2.2725,2.2725,2.2725,2.2754,2.29,2.3144,2.3359,2.3359,2.3359,2.332,2.3174,2.3135,2.3135,2.3135,2.3135,2.3135,2.3135,2.3217,2.308,2.2257,2.2251,2.249,2.2992,2.3297,2.3708,2.4238,2.3852,2.338,2.2842,2.2342,2.1973,2.1818,2.1104,2.0524,2.0257,1.9658,1.9101,1.8594,1.8771,1.8413,1.7461,1.6901,1.5917,1.4639,0.0,0.0,0.0,0.0,0.0,0.0,0.0,0.0,0.0,0.0,0.0,0.0,0.0,0.0,0.0,0.0,0.0,0.0,0.0,0.0,0.0,0.0,0.0,1.8043,1.9259,2.0131,2.0342,2.1907,2.2744,2.226,2.3504,2.4326,2.4326,2.5498,2.6426,2.6854,2.7466,2.827,2.928,2.9198,2.9301,2.9301,2.9434,2.935,2.8941,2.874,2.8727,2.8698,2.7966,2.7656,2.7627,2.7197,2.7021,2.7002,2.6582,2.6406,2.6318,2.5439,2.4824,2.4434,2.4434,2.4424,2.4355,2.3945,2.3535,2.3174,2.3164,2.3067,2.3067,2.3057,2.3047,2.3135,2.3563,2.368,2.368,2.368,2.368,2.3662,2.3145,2.3047,2.3135,2.3135,2.3135,2.3135,2.3135,2.2975,2.2859,2.3123,2.301,2.289,2.3225,2.3225,0.0,2.3215,2.3205,2.3029,2.2563,2.2501,2.2315,2.1869,2.1373,2.0844,2.0268,1.9926,1.9266,1.8206,1.8348,1.7988,1.7059,1.6218,1.5677,1.5549,0.0,0.0,0.0,0.0,0.0,0.0,0.0,0.0,0.0,0.0,0.0,0.0,0.0,0.0,0.0,0.0,0.0,0.0,0.0,0.0,0.0,0.0,1.9012,1.8877,1.9457,2.0123,2.0972,2.181,2.2215,2.2109,2.3466,2.4281,2.4281,2.5739,2.6605,2.672,2.6937,2.7467,2.8344,2.8137,2.8251,2.889,2.912,2.9177,2.9066,2.8976,2.8655,2.8147,2.8028,2.7698,2.7187,2.707,2.7197,2.7451,2.7021,2.6846,2.6758,2.5889,2.5283,2.4893,2.4893,2.4687,2.4394,2.4287,2.416,2.4014,2.3711,2.3147,2.2441,2.2143,2.1596,2.0979,2.1176,2.1212,2.1212,2.1212,2.177,2.2199,2.2087,2.2599,2.3135,2.3135,2.3135,2.3135,2.3135,2.3047,2.3142,2.3411,2.3398,2.3488,2.3829,2.3924,2.3885,2.3732,2.3691,2.3515,2.3049,2.2697,2.2449,2.2315,2.1269,2.0494,2.0247,1.9318,1.8874,1.9104,1.8988,1.8764,1.8516,1.7626,1.7099,0.0,0.0,0.0,0.0,0.0,0.0,0.0,0.0,0.0,0.0,0.0,0.0,0.0,0.0,0.0,0.0,0.0,0.0,0.0,0.0,0.0,0.0,1.9085,2.0158,2.0332,2.0439,2.0805,2.1773,2.209,2.2355,2.2681,2.3944,2.481,2.481,2.5962,2.6911,2.727,2.7022,2.7429,2.8357,2.8154,2.8367,2.9242,2.9186,2.9299,2.9479,2.9361,2.9124,2.8672,2.8485,2.8153,2.7803,2.7627,2.7371,2.714,2.6712,2.6219,0.0,0.0,0.0,0.0,0.0,2.4078,2.3342,2.3342,2.3342,2.3183,2.2871,2.2378,2.1964,2.1573,2.1081,2.0619,2.0711,2.0711,2.0677,2.0514,2.0937,2.1446,2.1642,2.2148,2.2599,2.3047,2.3135,2.3135,2.3135,2.3135,0.0,2.3319,2.3416,2.359,2.3937,2.412,2.42,2.4019,2.4072,2.3981,2.3525,2.3236,2.2998,2.2801,2.1694,0.0,0.0,0.0,1.9328,1.961,1.9313,0.0,0.0,0.0,0.0,0.0,0.0,0.0,0.0,1.8698,1.9028,0.0,0.0,0.0,0.0,0.0,0.0,0.0,0.0,0.0,0.0,0.0,0.0,0.0,0.0,0.0,0.0,1.9972,2.0917,2.197,2.1859,2.1901,2.2535,2.2689,2.3006,2.3699,2.472,2.5487,2.5532,2.6157,2.691,2.7548,0.0,0.0,0.0,0.0,2.8906,2.9697,2.954,2.9569,2.9994,2.976,2.9639,2.9629,2.9238,2.9033,2.8975,2.8486,2.7555,2.6537,2.6018,2.503,2.3994,2.5452,2.5708,2.5226,2.4304,2.3072,2.1996,2.1996,0.0,0.0,2.1366,2.1396,2.1534,2.1113,2.1021,2.095,2.0996,2.1083,2.1007,2.0669,2.0645,2.0812,2.1302,2.1544,2.1971,2.2775,2.3047,2.3135,2.3135,2.3135,2.3135,2.3135,2.3319,2.3503,2.3754,2.4024,2.4206,2.4206,2.4368,2.4385,2.3991,2.3908,0.0,2.3298,2.2418,2.1803,2.166,2.0966,2.0452,2.0006,1.9696,1.9696,2.0128,2.0069,2.0472,2.1269,2.1683,2.1911,2.1901,2.0412,2.054,0.0,0.0,0.0,0.0,0.0,0.0,0.0,0.0,0.0,0.0,0.0,0.0,0.0,0.0,0.0,1.962,2.1171,2.2295,2.2826,2.3091,2.3169,2.3023,2.3537,2.3965,2.4119,2.4588,2.5051,2.5345,2.5587,2.5535,2.5221,2.5048,2.5569,2.6646,2.6736,2.7696,2.95,2.9508,2.977,3.0192,0.0,0.0,3.0068,2.999,2.9766,2.9434,2.8211,2.7602,2.7237,2.5821,2.4735,2.3886,2.3774,2.3446,2.3094,2.2894,2.2641,2.2381,2.2381,2.2381,2.2321,2.1855,2.1387,2.0966,2.0231,1.9649,0.0,1.8958,1.8875,1.886,1.8799,1.9247,1.9674,1.9694,2.0737,2.1784,2.1961,2.2599,2.3135,2.3135,2.3135,2.3135,2.3135,2.3144,2.3232,2.3503,2.3764,2.3937,2.4196,2.4368,2.4509,2.4416,2.4084,2.3836,2.3753,2.2894,2.2366,2.2288,2.219,2.189,2.1424,2.2045,2.2252,2.1973,2.1973,2.2056,2.2232,2.2325,2.2553,2.2904,2.26,2.2405,0.0,0.0,0.0,0.0,0.0,0.0,0.0,0.0,0.0,0.0,0.0,1.6142,0.0,0.0,1.9553,2.0629,2.2029,2.2963,2.334,2.3708,2.3879,2.3691,2.4008,2.4307,2.4504,2.4872,2.5172,2.5352,2.5369,2.5218,2.482,2.4721,2.5311,2.6462,2.6733,2.7737,2.9803,2.9201,2.9412,3.0195,2.9499,2.9508,2.9883,2.9297,2.8842,2.8662,2.747,2.674,2.6023,2.4432,2.3486,2.2725,2.249,2.2245,2.21,2.2031,2.1656,2.1123,2.0948,2.0996,2.1091,2.0742,2.0459,2.0277,1.9941,1.9441,1.9001,1.8833,1.8672,1.8511,1.8343,1.8566,1.8916,1.939,2.0058,2.0623,2.1072,2.1464,2.1774,2.2325,2.2413,2.2511,2.3047,2.3135,2.3232,2.3503,2.3667,2.3927,2.4206,2.4368,2.454,2.454,2.4343,2.4209,2.4209,2.3588,2.3091,2.2853,2.2842,2.2739,2.2511,2.2946,2.308,2.2842,2.2842,2.2956,2.3184,2.3184,2.3422,2.3867,2.3867,2.3629,0.0,0.0,0.0,0.0,0.0,0.0,0.0,0.0,1.5535,1.7049,1.7247,1.7484,1.8996,2.0079,2.1073,2.1832,2.2669,2.3434,2.3619,2.3886,2.4124,2.4124,2.4233,2.447,2.4795,2.5155,2.5369,2.5369,2.5392,2.5225,2.486,2.4708,2.5169,2.6238,2.6524,2.7499,2.9365,2.8551,2.8713,2.9843,2.9028,2.8897,2.9466,2.8341,2.7838,2.7504,2.6468,2.5271,2.4092,2.3021,2.2206,2.1693,2.1693,2.1729,2.1659,2.1324,2.0681,1.9894,1.9506,1.9542,1.9711,1.9381,1.9499,1.9755,1.9689,1.9572,1.9447,1.9389,1.9184,1.8921,1.8657,1.8489,1.8592,1.9367,1.9484,1.9605,2.0354,2.0432,2.0525,2.1356,2.1571,2.1961,2.2687,2.296,2.3135,2.3416,2.3667,2.3841,2.411,2.4368,2.454,2.454,2.4454,2.4454,2.4454,2.4209,2.3846,2.3474,2.3453,2.3453,2.3453,2.3453,2.3453,2.3453,2.3453,2.3639,2.4002,2.4002,2.4188,2.454,2.454,2.4353,1.4161,1.5009,0.0,1.5914,1.5741,1.6081,0.0,0.0,1.7763,1.9558,1.9556,1.9529,2.0909,2.1315,2.1699,2.2633,2.3541,2.3903,2.3394,2.3726,2.3966,2.3966,2.442,2.477,2.4812,2.5155,2.5369,2.5369,2.5403,2.5054,2.4172,2.3863,2.3878,2.4266,2.429,2.4885,2.6157,2.7203,2.7967,2.8566,2.9499,2.9661,2.9009,2.8523,2.767,2.6598,2.5017,2.3621,2.2467,2.2355,2.2023,2.1693,2.1693,2.1568,2.1284,2.0951,2.0722,2.053,1.9916,1.9733,1.9711,1.9381,1.9499,1.9711,1.9418,1.9703,2.0069,1.9791,1.9681,1.9645,1.9608,1.9169,1.873,1.8932,1.9361,1.9789,1.9886,2.0256,2.0644,2.083,2.1292,2.1695,2.1872,2.2511,2.3135,2.3144,2.3493,2.3841,2.3841,2.4196,2.454,2.454,2.4378,2.4206,2.4206,2.4327,2.4447,2.4395,2.4385,2.4385,2.4385,2.4385,2.4385,2.4385,2.4385,2.4416,2.4467,2.4467,2.4498,2.454,2.454,2.4519,1.6186,0.0,0.0,0.0,1.7179,1.7682,1.868,1.8645,1.875,1.9853,1.9834,1.9911,2.0597,2.1156,2.1659,0.0,2.2892,2.3451,2.3126,2.3078,2.3037,2.3037,2.3267,2.3792,2.4684,2.4653,2.4763,2.5118,2.5005,2.4619,2.3751,2.3641,2.3769,2.4325,2.4523,2.5228,2.6415,2.6296,2.6854,2.8333,2.7264,2.7337,2.8098,2.6524,2.5175,2.4015,2.328,2.264,2.2184,2.2184,2.2103,2.1979,2.1979,2.1898,2.1715,2.1196,2.0889,2.0684,2.0413,2.0201,1.9989,1.9667,1.9652,1.974,1.9601,1.9616,1.9725,1.9974,1.9908,1.9762,1.9762,1.9557,1.9308,1.9118,1.9123,1.9177,1.9177,1.929,1.9462,1.9825,2.0129,2.0506,2.1203,2.1961,2.2589,2.2882,2.3406,2.3927,2.4196,2.4368,2.454,2.454,2.4454,2.4368,2.4368,2.4454,2.4454,2.4368,2.4454,2.4464,2.4368,2.4454,2.454,2.454,2.454,2.454,2.454,2.454,2.454,2.454,2.454,2.454,1.7103,0.0,0.0,1.7705,1.8294,1.88,1.8993,1.9079,1.9257,1.9926,1.9938,2.0075,2.0411,2.0971,0.0,2.1811,2.237,2.279,2.2772,2.2489,2.2269,2.2269,2.2072,2.2482,2.4064,2.395,2.4138,2.4496,2.4436,2.4081,2.3596,2.3437,2.3604,2.4205,2.4447,2.4949,2.592,2.5431,2.591,2.7432,2.5877,2.5744,2.6883,2.4553,2.3065,2.2184,2.2184,2.2132,2.2052,2.2052,2.2001,2.1913,2.1913,2.1913,2.1869,2.1489,2.1247,2.1086,2.0815,2.0625,2.0435,2.0025,1.9835,1.9762,1.9762,1.9594,1.9506,1.9974,1.9938,1.9762,1.9762,1.9696,1.9572,1.933,1.9096,1.8921,1.8921,1.8664,1.8563,1.909,1.9343,1.973,2.058,2.122,2.1903,2.2715,2.3222,2.3657,2.4368,2.4454,2.4454,2.4282,2.4368,2.4368,2.4196,2.4282,2.4282,2.411,2.4196,2.4282,2.4206,2.4378,2.4454,2.454,2.454,2.454,2.454,2.454,2.454,2.454,2.454,2.454,0.0,0.0,1.8758,1.8471,1.8707,1.9116,1.9679,1.9567,1.9425,2.0077,2.0216,2.0332,2.0992,2.1109,2.1441,2.2324,2.2498,2.2403,2.2176,2.1818,2.1605,2.1605,2.0766,2.0925,0.0,2.3246,2.3546,2.3562,2.3596,2.3596,2.3468,2.3286,2.3091,2.3091,2.3106,2.323,2.323,2.4456,2.5186,2.5178,2.639,2.6269,2.5146,2.3352,2.2454,2.2184,2.2184,2.2008,2.1715,2.1715,2.1525,2.124,2.124,2.124,2.1276,2.1569,2.1876,2.2008,2.105,2.0925,2.1079,2.0428,2.0018,1.9762,1.9762,1.9755,1.9755,1.9769,1.9769,1.9762,1.9762,1.9528,1.9286,1.9279,1.9264,1.9257,1.9257,1.9001,1.8767,1.8861,1.9384,1.9814,2.003,2.0424,2.1304,2.2842,2.2677,2.2843,2.4024,2.4368,2.4368,2.3841,2.4024,2.4024,2.359,2.3667,2.3841,2.3841,2.3841,2.3937,2.4206,2.4206,2.4282,2.454,2.454,2.454,2.454,2.454,2.454,2.454,2.454,2.454,0.0,0.0,1.8767,1.8641,1.891,1.9236,1.9471,1.9681,1.9916,1.9923,1.9923,2.003,2.0245,2.0238,2.045,2.0888,2.1128,2.1391,2.1502,2.145,2.1219,2.067,2.0795,0.0,0.0,0.0,0.0,2.3153,2.2992,2.2963,2.3177,2.3171,2.3106,2.3106,2.3106,2.3106,2.3106,2.3604,2.4216,2.5071,2.5554,2.5063,2.3713,2.3244,2.2776,2.2476,2.2476,2.2301,2.2001,2.1789,2.1635,2.1511,2.1298,2.1211,2.1218,2.1335,2.1576,2.184,2.173,2.1481,2.1174,2.0955,2.0662,2.0362,2.0142,1.993,1.9806,2.0018,1.9923,1.9762,1.9762,1.9681,1.9542,1.933,1.9279,1.9279,1.9279,1.9191,1.9052,1.8833,1.8996,1.9208,1.9353,1.9947,2.1147,2.3115,2.357,2.3917,2.4368,2.4454,2.4454,2.4272,2.4196,2.412,2.3947,2.3841,2.3754,2.359,2.3754,2.3754,2.3764,2.3851,2.3927,2.4013,2.4024,2.4024,2.4024,2.4196,2.4282,2.4282,2.4454,2.4349,0.0,1.8536,1.875,1.9206,1.9286,1.9367,1.9711,1.9842,1.9835,1.963,1.9403,1.9242,1.9242,1.9147,1.9286,1.9959,2.0245,2.0611,2.1284,2.1181,2.0969,2.0779,2.0918,2.0962,0.0,0.0,0.0,2.2563,2.263,2.2718,2.2923,2.3047,2.3106,2.3106,2.3106,2.3106,2.3106,2.3106,2.3479,2.4332,2.4332,2.3969,2.3106,2.3106,2.2996,2.2798,2.2798,2.2623,2.2323,2.2118,2.1898,2.1679,2.1467,2.1313,2.1211,2.1211,2.1342,2.1569,2.1898,2.1811,2.154,2.1423,2.1159,2.0837,2.0508,2.0186,1.9952,2.004,1.9923,1.9733,1.9623,1.9586,1.9535,1.9323,1.9279,1.9279,1.9279,1.9279,1.9213,1.9001,1.8964,1.9058,1.9422,2.0223,2.1171,2.1961,2.3163,2.4012,2.4389,2.4282,2.4196,2.411,2.4024,2.3937,2.3851,2.3667,2.3493,2.3416,2.3493,2.3493,2.3503,2.358,2.3754,2.3841,2.3841,2.3657,2.3299,2.3474,2.3387,2.3028,2.371,2.3664,1.7987,1.8248,1.8814,1.9942,1.9762,1.9557,2.0428,1.9923,1.9257,1.9191,1.8672,1.8218,0.0,0.0,1.8211,1.9484,1.974,2.023,2.1518,2.1181,2.102,0.0,0.0,0.0,0.0,0.0,0.0,2.1723,0.0,2.263,2.2645,2.2945,2.3106,2.3106,2.3106,2.3106,2.3106,2.3106,2.3106,2.3106,2.3106,2.3106,2.3106,2.3106,2.3106,2.3106,2.3106,2.2937,2.2645,2.263,2.2279,2.1737,2.1708,2.1503,2.1233,2.1218,2.1211,2.1262,2.1584,2.1898,2.2111,2.1818,2.1503,2.1181,2.0867,2.053,2.0194,1.9901,1.9784,1.9689,1.9381,1.9286,1.9279,1.9279,1.9279,1.9279,1.9279,1.9279,1.9279,1.9279,1.9279,1.9479,2.0139,2.107,2.1181,1.9849,2.1472,2.3175,2.3998,2.3937,2.3754,2.3503,2.3503,2.3406,2.3144,2.3144,2.3135,2.3135,2.3135,2.3232,2.3503,2.3503,2.358,2.3754,2.3754,2.3299,2.2394,2.2394,2.1863,2.106,2.2351,2.2473,1.9018,1.9709,2.0295,1.9942,1.9938,1.9864,1.9389,1.9279,1.9001,1.8028,1.7508,1.7084,1.6608,0.0,0.0,1.854,1.9484,0.0,2.1547,2.1759,0.0,0.0,0.0,2.2023,2.1723,2.2118,0.0,0.0,2.241,2.2725,2.2974,2.3062,2.3106,2.3106,2.3106,2.3106,2.3106,2.3106,2.3106,2.3106,2.3106,2.3106,2.3106,2.3106,2.3106,2.3106,2.3106,2.3062,2.2967,2.2725,2.2528,2.2337,2.1876,2.1642,2.154,2.1298,2.1211,2.1262,2.1584,2.1752,2.1847,2.2008,2.184,2.1562,2.1474,2.105,2.0581,2.0501,2.0135,1.974,1.9659,1.9462,1.9279,1.9279,1.9279,1.9279,1.9279,1.9279,1.9279,1.9279,1.9279,1.9479,2.0139,2.0974,2.1265,2.0616,2.1698,2.2575,2.2851,2.3396,2.3754,2.3754,2.359,2.3503,2.3406,2.3232,2.3135,2.3135,2.3135,2.3135,2.3232,2.3232,2.3232,2.3319,2.3319,2.2862,2.1872,2.2041,2.219,2.2216,2.2772,2.2871,1.9261,2.0024,2.0622,2.0119,1.9894,1.9601,1.8767,1.8386,1.7889,1.6733,1.6243,0.0,0.0,0.0,0.0,0.0,0.0,0.0,2.1518,2.1854,2.2059,0.0,2.2498,0.0,2.2337,2.263,2.2769,0.0,2.274,2.2857,2.2893,2.3032,2.3106,2.3106,2.3106,2.3106,2.3106,2.3106,2.3106,2.3106,2.3106,2.3106,2.3106,2.3106,2.3106,2.3106,0.0,2.3106,2.3091,2.2908,2.2754,2.2586,2.2242,2.1935,2.1679,2.1489,2.1335,2.1233,2.1423,2.1576,2.1752,2.2081,2.2059,2.1884,2.1737,2.1445,2.1094,2.0801,2.0464,2.012,1.9835,1.963,1.9455,1.9308,1.9279,1.9279,1.9279,1.9279,1.9279,1.9279,1.948,1.9723,1.9842,2.0599,2.0872,2.0032,2.1037,2.1692,2.127,2.2333,2.3163,2.3426,2.3406,2.3319,2.3319,2.3232,2.3135,2.3135,2.3135,2.3135,2.3135,2.3135,2.3135,2.3135,2.3135,2.2413,2.1051,2.1311,2.1142,2.0619,2.1977,2.2083,1.9301,1.9813,2.0237,2.0237,1.9755,1.9081,1.8343,1.7457,1.6491,1.5452,0.0,0.0,1.4333,0.0,1.6111,1.7106,0.0,1.9784,2.1401,2.1672,2.203,2.2937,2.2835,2.2798,2.3084,2.3106,2.3106,2.3106,2.3106,2.2988,2.2703,2.2952,2.3106,2.3106,2.3106,2.3106,2.3106,2.3106,2.3106,2.3106,2.3106,2.3106,2.3106,2.3106,2.3106,2.3106,2.3106,2.3106,2.3106,2.3106,2.2945,2.2681,2.2637,2.2271,2.1759,2.1715,2.1489,2.1211,2.1325,2.1509,2.1693,2.2059,2.2184,2.2132,2.1847,2.173,2.1569,2.0955,2.0757,2.0596,2.0033,1.9857,1.9747,1.9418,1.9345,1.933,1.9286,1.9279,1.9272,1.9376,1.968,1.9879,1.948,2.0197,2.0405,1.9102,2.0039,2.071,1.9963,2.1268,2.2353,2.29,2.3086,2.3135,2.3135,2.3135,2.3135,2.3135,2.3135,2.3135,2.3135,2.3135,2.3164,2.3223,2.3223,2.234,2.0568,2.0711,1.996,1.8423,2.0744,2.0767,1.9908,2.015,2.0237,2.0237,1.9755,1.8964,1.7772,1.6952,0.0,0.0,0.0,1.3645,1.3323,1.4275,0.0,1.674,0.0,0.0,0.0,0.0,2.195,0.0,0.0,0.0,0.0,0.0,0.0,0.0,0.0,2.3084,2.3025,2.3076,2.3106,2.3106,2.3106,2.3106,2.3106,2.3106,2.3106,2.3106,2.3106,2.3106,2.3106,2.3106,2.3106,2.3106,2.3106,0.0,2.3106,2.3106,2.3076,2.3003,2.2725,2.2403,2.2067,2.1796,2.1489,2.1325,2.1774,2.1705,2.1393,2.1986,2.2184,2.2169,2.2118,2.1913,2.1613,2.1233,2.0933,2.0698,2.0589,2.0355,2.0077,1.9755,1.9674,1.9608,1.933,1.9279,1.948,1.9879,1.968,1.9576,1.9879,2.0086,1.9968,1.9302,1.9796,2.0272,2.0114,2.1328,2.2282,2.2299,2.2809,2.3135,2.3135,2.3135,2.3135,2.3135,2.3135,2.3135,2.3135,2.3135,2.331,2.3672,2.3682,2.3286,2.2489,2.1707,2.1239,2.1243,2.0884,2.0612,1.9857,2.0106,2.0194,2.0033,1.9506,1.8599,1.6967,0.0,0.0,0.0,0.0,1.284,1.2343,0.0,0.0,0.0,0.0,0.0,0.0,0.0,0.0,0.0,0.0,0.0,0.0,0.0,0.0,0.0,0.0,2.3106,2.3106,2.3106,2.3106,2.3106,2.3106,2.3106,2.3106,2.3106,2.3106,2.3106,2.3106,2.3106,2.3106,2.3106,2.3106,2.3106,2.3106,2.3106,2.3106,2.3106,2.3106,2.3091,2.2937,2.2593,2.2162,2.2008,2.1635,2.1211,2.1546,2.1432,2.132,2.1972,2.2184,2.2184,2.2184,2.2074,2.1847,2.135,2.1094,2.094,2.0772,2.0603,2.0406,2.0084,1.9879,1.9674,1.9345,1.9279,1.9376,1.968,1.948,1.9376,1.968,1.9879,1.9879,1.9376,1.9783,2.0025,1.9755,2.0573,2.1242,2.1406,2.1661,2.2097,2.2645,2.2447,2.2685,2.3457,2.3262,2.2872,2.2413,2.3084,2.3297,2.3028,2.3722,2.3455,2.2132,2.1856,2.117,2.0361,2.0543,2.0421,1.9572,1.9842,1.9967,1.9718,1.9111,1.8094,1.6235,1.5255,0.0,0.0,0.0,1.2182,1.1743,0.0,0.0,0.0,0.0,0.0,0.0,0.0,0.0,0.0,0.0,0.0,0.0,0.0,0.0,0.0,0.0,0.0,2.3106,2.3106,2.3106,2.3106,2.3106,2.3106,2.3106,2.3106,2.3106,2.3106,2.3106,2.3106,2.3106,2.3106,2.3106,2.3106,2.3106,2.3106,2.3106,2.3106,2.3106,2.3106,2.3106,2.2732,2.2184,2.2184,2.1774,2.1211,2.1318,2.1325,2.132,2.209,2.2303,2.2198,2.2257,2.2235,2.2059,2.1481,2.1262,2.1152,2.0896,2.083,2.0728,2.0333,1.9996,1.9674,1.9345,1.9279,1.9279,1.9279,1.9279,1.9279,1.9279,1.968,1.9783,1.9376,1.968,1.9783,1.9376,1.9747,2.0035,2.0268,2.0601,2.1206,2.2318,2.2135,2.255,2.3806,2.3328,2.2593,2.1951,2.2915,2.3214,2.2538,2.3903,2.3833,2.2293,2.2106,2.1163,1.9588,2.0256,2.0086,1.9228,1.9338,1.936,1.933,1.8606,1.7479,1.5848,0.0,0.0,0.0,1.1831,1.1721,1.1948,1.2358,0.0,0.0,0.0,0.0,0.0,0.0,0.0,0.0,0.0,0.0,0.0,0.0,0.0,0.0,0.0,0.0,2.3106,2.3106,2.3106,2.3106,2.3106,2.3106,2.3106,2.3106,2.3106,2.3106,2.3106,2.3106,2.3106,2.3106,2.3106,2.3106,2.3106,2.3106,0.0,2.3106,2.3106,2.3106,2.3106,2.2732,2.2184,2.2184,2.1774,2.1325,2.1774,2.166,2.1435,2.2674,2.2655,2.2235,2.2506,2.2396,2.2111,2.1752,2.1437,2.1203,2.1174,2.1167,2.1006,2.0384,1.9996,1.9674,1.9345,1.9279,1.9279,1.9279,1.9279,1.9279,1.9279,1.9376,1.9376,1.9279,1.9376,1.9376,1.9279,1.9354,1.9295,1.9033,2.0273,2.1605,2.2644,2.2711,2.3178,2.4263,2.3107,2.2483,2.2674,2.2557,2.2723,2.3373,2.4497,2.511,2.5315,2.3331,2.234,2.2139,2.0269,1.9376,1.873,1.8986,1.8986,1.8986,1.8394,1.7347,1.5548,0.0,0.0,1.2058,1.1648,1.1604,1.1728,1.2014,1.2636,0.0,1.4457,1.5423,0.0,0.0,0.0,0.0,0.0,0.0,0.0,0.0,0.0,0.0,0.0,0.0,2.3106,2.3106,2.3106,2.3106,2.3106,2.3106,2.3106,2.3106,2.3106,2.3106,2.3106,2.3106,2.3106,2.3106,2.3106,2.3106,2.3106,2.3106,0.0,2.3106,2.3106,2.3106,2.3106,2.2732,2.2184,2.2184,2.1774,2.1211,2.1432,2.1432,2.132,2.2201,2.2423,2.2242,2.2535,2.2418,2.2118,2.1789,2.1459,2.1211,2.1211,2.1211,2.1042,2.0391,2.0142,1.9908,1.9389,1.9279,1.9279,1.9279,1.9279,1.9279,1.9279,1.9279,1.9279,1.9279,1.9279,1.9279,1.9279,1.9279,1.9228,1.9096,1.9482,2.0154,2.1218,2.1113,2.1848,2.3729,2.3065,2.2441,2.1933,2.2686,2.259,2.1624,2.2841,2.3341,2.2802,2.1996,2.1183,2.0585,1.968,1.9279,1.8057,1.8496,1.8621,1.8525,1.8013,1.7055,0.0,0.0,1.3404,1.1939,1.1622,1.1622,1.1622,1.1743,1.2219,1.3192,1.3704,1.4618,1.6455,0.0,0.0,0.0,0.0,0.0,0.0,0.0,0.0,0.0,0.0,0.0,2.3106,2.3106,2.3106,2.3106,2.3106,2.3106,2.3106,2.3106,2.3106,2.3106,2.3106,2.3106,2.3106,2.3106,2.3106,2.3106,2.3106,2.3106,0.0,2.3106,2.3106,2.3098,2.3003,2.2645,2.2169,2.2074,2.1686,2.1211,2.1211,2.1211,2.132,2.1972,2.2184,2.2257,2.2652,2.2491,2.2132,2.1906,2.1533,2.1211,2.1211,2.1211,2.1072,2.0508,2.0303,2.0084,1.9535,1.9345,1.9279,1.9279,1.9279,1.9279,1.9279,1.9279,1.9279,1.9279,1.9279,1.9279,1.9279,1.9279,1.9279,1.9279,1.9067,1.943,2.0411,2.0289,2.104,2.3064,2.2513,2.1874,2.1307,2.2143,2.1978,2.0612,2.1854,2.2089,2.1387,2.1081,2.0483,1.9783,1.948,1.933,1.7165,1.7816,1.8233,1.7904,1.734,1.6448,0.0,1.3967,1.3133,1.1831,1.1622,1.1622,1.1622,1.163,1.1882,1.2855,1.3558,1.4538,1.6148,0.0,0.0,0.0,0.0,0.0,0.0,0.0,0.0,0.0,0.0,0.0,2.3106,2.3106,2.3106,2.3106,2.3106,2.3106,2.3106,2.3106,2.3106,2.3106,2.3106,2.3106,2.3106,2.3106,2.3106,2.3106,2.3106,2.3106,0.0,2.3106,2.3106,2.3076,2.2754,2.2447,2.214,2.1825,2.1496,2.1211,2.1211,2.1211,2.132,2.1972,2.2184,2.2301,2.2915,2.2674,2.2184,2.2184,2.1708,2.1211,2.1211,2.1211,2.113,2.0794,2.0472,2.015,1.9828,1.9506,1.9279,1.9279,1.9279,1.9279,1.9279,1.9279,1.9279,1.9279,1.9279,1.9279,1.9279,1.9279,1.9279,1.9279,1.9272,1.9776,2.0775,2.0877,2.1379,2.2484,2.1237,2.0604,2.0853,2.0644,2.062,2.0869,2.1988,2.2484,2.2484,2.1387,2.0885,2.0885,1.9776,1.9447,1.546,1.6009,1.6257,1.5935,1.5694,1.5182,1.3792,1.3309,1.2855,1.1851,1.1622,1.1622,1.1622,1.1622,1.2094,1.374,1.4179,0.0,0.0,0.0,0.0,0.0,0.0,0.0,0.0,0.0,0.0,0.0,0.0,0.0,2.3106,2.3106,2.3106,2.3106,2.3106,2.3106,2.3106,2.3106,2.3106,2.3106,2.3106,2.3106,2.3106,2.3106,2.3106,2.3106,2.3106,2.3106,2.3106,2.3106,2.3106,2.3076,2.2747,2.244,2.214,2.1818,2.1489,2.1211,2.1211,2.1211,2.132,2.1972,2.2184,2.2301,2.2923,2.2674,2.2089,2.1642,2.1364,2.1211,2.1211,2.1211,2.113,2.0801,2.0647,2.042,1.9879,1.9681,1.9542,1.9323,1.9279,1.9279,1.9279,1.9279,1.9279,1.9279,1.9279,1.9279,1.9279,1.9279,1.9279,1.9279,1.9279,1.948,1.9783,1.9783,2.0285,2.1387,2.0977,2.0766,2.0877,2.0782,2.0468,1.9776,2.0181,2.0277,2.0277,1.9983,1.9896,2.0121,1.9812,1.9784,0.0,1.4633,1.486,1.4787,1.467,1.4304,1.325,1.2914,1.2584,1.1799,1.1622,1.1622,1.1622,1.1663,1.2182,1.3514,1.415,0.0,0.0,0.0,0.0,0.0,0.0,0.0,0.0,0.0,0.0,0.0,0.0,0.0,2.3106,2.3106,2.3106,2.3106,2.3106,2.3106,2.3106,2.3106,2.3106,2.3106,2.3106,2.3106,2.3106,2.3106,2.3106,2.3106,2.3106,2.3106,0.0,2.3106,2.3106,2.3062,2.263,2.2345,2.2132,2.1679,2.1386,2.1211,2.1211,2.1211,2.132,2.1972,2.2337,2.2564,2.2718,2.2491,2.2045,2.1393,2.1211,2.1211,2.1211,2.1211,2.1159,2.0955,2.0808,2.0618,2.0208,2.0033,1.9842,1.952,1.9462,1.9425,1.9294,1.9279,1.9279,1.9279,1.9279,1.9279,1.9279,1.9279,1.9279,1.9279,1.9279,1.9279,1.9279,1.9279,1.9583,2.0285,2.0285,2.0285,2.0285,2.0285,1.9983,1.9272,1.9279,1.9279,1.9279,1.9396,1.9564,1.9769,1.9886,2.0113,0.0,1.3506,1.3843,1.4121,1.3982,1.3609,1.298,1.2621,0.0,1.1648,1.1586,1.1615,1.1711,1.1867,1.2189,1.268,0.0,0.0,0.0,0.0,0.0,0.0,0.0,0.0,0.0,0.0,0.0,0.0,0.0,0.0,2.3106,2.3106,2.3106,2.3106,2.3106,2.3106,2.3106,2.3106,2.3106,2.3106,2.3106,2.3106,2.3106,2.3106,2.3106,0.0,2.3106,2.3106,2.3106,2.3106,2.3106,2.3047,2.2425,2.2184,2.2103,2.1452,2.1211,2.1211,2.1211,2.1225,2.135,2.2001,2.2608,2.2967,2.2367,2.2184,2.2045,2.1393,2.1211,2.1211,2.1211,2.1211,2.1211,2.1211,2.0976,2.075,2.0728,2.0486,2.0172,1.9828,1.9762,1.9659,1.933,1.9279,1.9279,1.9279,1.9279,1.9279,1.9279,1.9279,1.9279,1.9279,1.9279,1.9279,1.9279,1.9279,1.9279,1.9279,1.9279,1.9279,1.9279,1.9279,1.9279,1.9279,1.9279,1.9286,1.9316,1.9616,1.9784,1.9835,2.0026,2.0332,1.0065,0.0,1.1714,1.1545,1.1633,1.1648,0.0,1.1289,1.137,0.0,0.0,0.0,0.0,0.0,0.0,0.0,0.0,0.0,0.0,0.0,0.0,0.0,0.0,0.0,0.0,0.0,0.0,0.0,0.0,2.3106,2.3106,2.3106,2.3106,2.3106,2.3106,2.3106,2.3106,2.3106,2.3106,2.3106,2.3106,2.3106,2.3106,2.3106,2.3106,2.3106,2.3106,2.3106,2.3106,2.3106,2.3106,2.3047,2.2425,2.2184,2.2103,2.1452,2.1211,2.1211,2.1211,2.1372,2.1686,2.2315,2.2615,2.2667,2.2293,2.2184,2.2045,2.1393,2.1211,2.1211,2.1211,2.1211,2.1211,2.1211,2.1152,2.1028,2.0779,2.0662,2.0442,1.9872,1.9762,1.9659,1.933,1.9279,1.9279,1.9279,1.9279,1.9279,1.9279,1.9279,1.9279,1.9279,1.9279,1.9279,1.9279,1.9279,1.9279,1.9279,1.9279,1.9279,1.9279,1.9279,1.9279,1.9279,1.9279,1.9396,1.9652,1.9512,1.9693,2.0176,2.001,2.0097,0.8371,0.9646,1.0854,1.0948,1.1015,1.1135,1.1418,0.0,0.0,0.0,0.0,0.0,0.0,0.0,0.0,0.0,0.0,0.0,0.0,0.0,0.0,0.0,0.0,0.0,0.0,0.0,0.0,0.0,0.0,2.3106,2.3106,2.3106,2.3106,2.3106,2.3106,2.3106,2.3106,2.3106,2.3106,2.3106,2.3106,2.3106,2.3106,2.3106,2.3106,2.3106,2.3106,2.3106,2.3106,2.3106,2.3106,2.3047,2.2425,2.2184,2.2103,2.1452,2.1211,2.1233,2.1379,2.1737,2.2154,2.2352,2.2513,2.2535,2.2096,2.1957,2.1854,2.135,2.1211,2.1211,2.1211,2.1211,2.1211,2.1211,2.1211,2.1159,2.0984,2.0947,2.0801,2.0303,2.0201,2.0055,1.9579,1.9499,1.9447,1.9301,1.9279,1.9279,1.9279,1.9279,1.9279,1.9279,1.9279,1.9279,1.9279,1.9279,1.9279,1.9279,1.9279,1.9279,1.9279,1.9279,1.9279,1.9279,1.9425,1.9586,1.9548,1.9736,1.9832,2.0054,2.0069,2.0109,0.7362,0.8854,1.0425,1.083,1.0913,1.1102,1.1857,0.0,0.0,0.0,0.0,0.0,0.0,0.0,0.0,0.0,0.0,0.0,0.0,0.0,0.0,0.0,0.0,0.0,0.0,0.0,0.0,0.0,0.0,2.3106,2.3106,2.3106,2.3106,2.3106,2.3106,2.3106,2.3106,2.3106,2.3106,2.3106,2.3106,2.3106,2.3106,2.3106,2.3106,2.3106,2.3106,0.0,2.3106,2.3106,2.3106,2.3047,2.2425,2.2184,2.2111,2.1503,2.1284,2.1335,2.1708,2.2184,2.2579,2.233,2.2389,2.2447,2.1869,2.1657,2.1562,2.1284,2.1211,2.1211,2.1211,2.1211,2.1211,2.1211,2.1211,2.1211,2.1211,2.1211,2.1115,2.0786,2.072,2.0516,1.9872,1.9762,1.9652,1.9323,1.9279,1.9279,1.9279,1.9279,1.9279,1.9279,1.9279,1.9279,1.9279,1.9279,1.9279,1.9279,1.9279,1.9279,1.9279,1.9279,1.9279,1.9279,1.9594,1.957,1.9298,1.9889,2.0076,1.9772,2.0037,2.0162,0.7275,0.8452,0.9455,0.8889,0.9501,1.0149,0.0,0.0,0.0,0.0,0.0,0.0,0.0,0.0,0.0,0.0,0.0,0.0,0.0,0.0,0.0,0.0,0.0,0.0,0.0,0.0,0.0,0.0,0.0,2.3106,2.3106,2.3106,2.3106,2.3106,2.3106,2.3106,2.3106,2.3106,2.3106,2.3106,2.3106,2.3106,2.3106,2.3106,2.3106,2.3106,0.0,2.3106,2.3106,2.3106,2.3106,2.3047,2.2425,2.2184,2.214,2.1759,2.162,2.1701,2.2279,2.2542,2.2615,2.2571,2.2418,2.2184,2.1811,2.1503,2.1276,2.1218,2.1211,2.1211,2.1211,2.1211,2.1211,2.1211,2.1211,2.1211,2.1211,2.1211,2.1115,2.0786,2.072,2.0516,1.9872,1.9762,1.9652,1.9323,1.9279,1.9279,1.9279,1.9279,1.9279,1.9279,1.9279,1.9279,1.9279,1.9279,1.9279,1.9279,1.9279,1.9279,1.9279,1.9279,1.9175,1.8974,1.9283,1.9355,1.9393,1.9417,1.9608,1.9747,1.957,1.9597,0.6165,0.7308,0.8358,0.8016,0.9321,1.0831,0.0,0.0,0.0,0.0,0.0,0.0,0.0,0.0,0.0,0.0,0.0,0.0,0.0,0.0,0.0,0.0,0.0,0.0,0.0,0.0,0.0,0.0,0.0,0.0,2.223,2.223,2.248,2.3113,2.3106,2.3106,2.3106,2.3106,2.3106,2.3106,2.3106,2.3106,2.3106,2.3106,2.3106,2.3106,0.0,2.3106,2.3106,2.3106,2.3003,2.2798,2.2352,2.2184,2.2169,2.2015,2.2059,2.2213,2.2345,2.2491,2.2564,2.2235,2.203,2.1862,2.1533,2.1328,2.1211,2.1211,2.1211,2.1211,2.1211,2.1211,2.1211,2.1211,2.1211,2.1211,2.1211,2.1211,2.1167,2.1013,2.0984,2.0779,2.0135,2.0018,1.985,1.9352,1.9279,1.9279,1.9279,1.9279,1.9279,1.9279,1.9279,1.9279,1.9279,1.9279,1.9279,1.9279,1.9279,1.9279,1.9279,1.9279,1.9255,1.912,1.9435,1.9523,1.9375,1.946,1.9564,1.9591,1.9482,1.9366,0.545,0.6515,0.763,0.7779,0.0,0.0,0.0,0.0,0.0,0.0,0.0,0.0,0.0,0.0,0.0,0.0,0.0,0.0,0.0,0.0,0.0,0.0,0.0,0.0,0.0,0.0,0.0,0.0,0.0,0.0,2.1229,2.1229,2.1601,2.2355,2.2355,2.2355,2.2355,2.2606,2.2856,2.3106,2.3106,2.3106,2.3106,2.3106,2.3106,2.3106,2.3106,2.3106,2.3106,2.3106,2.2959,2.271,2.2403,2.2286,2.2286,2.2286,2.2432,2.2593,2.2359,2.2389,2.2432,2.1876,2.1693,2.1635,2.1306,2.1211,2.1211,2.1211,2.1211,2.1211,2.1211,2.1211,2.1211,2.1211,2.1211,2.1211,2.1211,2.1211,2.1211,2.1211,2.1211,2.1006,2.0347,2.0237,2.0018,1.9374,1.9279,1.9279,1.9279,1.9279,1.9279,1.9279,1.9279,1.9279,1.9279,1.9279,1.9279,1.9279,1.9279,1.9279,1.9279,1.9352,1.9295,1.922,1.9495,1.948,1.9251,1.955,1.9591,1.9366,1.9366,1.9366,0.5953,0.6821,0.7736,0.8188,0.0,0.0,0.0,0.0,0.0,0.0,0.0,0.0,0.0,0.0,0.0,0.0,0.0,0.0,0.0,0.0,0.0,0.0,0.0,0.0,0.0,0.0,0.0,0.0,0.0,0.0,2.0208,2.0202,2.0202,2.0329,2.0329,2.0329,2.0329,2.1222,2.2237,2.3106,2.3106,2.3106,2.3106,2.3106,2.3106,2.3106,2.3106,2.3106,2.3106,2.3106,2.3098,2.304,2.2718,2.2593,2.2593,2.2593,2.2601,2.2615,2.2601,2.2425,2.2162,2.1811,2.1693,2.1635,2.1306,2.1211,2.1211,2.1211,2.1211,2.1211,2.1211,2.1211,2.1211,2.1211,2.1211,2.1211,2.1211,2.1211,2.1211,2.1211,2.1211,2.1006,2.0347,2.0237,2.0018,1.9374,1.9279,1.9279,1.9279,1.9279,1.9279,1.9279,1.9279,1.9279,1.9279,1.9279,1.9279,1.9279,1.9279,1.9279,1.9279,1.9247,1.9199,1.8891,1.9251,1.9231,1.8925,1.9219,1.9366,1.9366,1.9366,1.9366,0.5829,0.6608,0.7541,0.8401,0.0,0.0,0.0,0.0,0.0,0.0,0.0,0.0,0.0,0.0,0.0,0.0,0.0,0.0,0.0,0.0,0.0,0.0,0.0,0.0,0.0,0.0,0.0,0.0,0.0,0.0,1.8939,1.9091,1.9437,2.0081,2.0075,2.0075,2.0075,2.0462,2.0836,2.1215,2.248,2.3106,2.3106,2.3106,2.3106,2.3106,2.3106,2.3106,2.3106,2.3106,2.2988,2.2791,2.2674,2.2513,2.2374,2.2557,2.2506,2.2315,2.2118,2.1972,2.1825,2.1503,2.1393,2.1372,2.1247,2.1211,2.1211,2.1211,2.1211,2.1211,2.1211,2.1211,2.1211,2.1211,2.1211,2.1211,2.1211,2.1211,2.1211,2.1211,2.1211,2.1006,2.0347,2.0237,2.0018,1.9374,1.9279,1.9279,1.9279,1.9279,1.9279,1.9279,1.9279,1.9279,1.9279,1.9279,1.9279,1.9279,1.9279,1.9367,1.9572,1.9377,1.9297,1.9451,1.9353,1.9232,1.9199,1.9312,1.9366,1.9366,1.9366,1.9004,0.5749,0.659,0.7633,0.0,0.0,0.0,0.0,0.0,0.0,0.0,0.0,0.0,0.0,0.0,0.0,0.0,0.0,0.0,0.0,0.0,0.0,0.0,0.0,0.0,0.0,0.0,0.0,0.0,0.0,0.0,1.7548,1.8327,1.8927,1.9311,1.9688,1.9682,1.9311,1.9777,1.977,1.9431,2.1152,2.2131,2.2097,2.2097,2.2097,2.2097,2.2097,2.2097,2.2223,2.248,2.2668,2.2623,2.2623,2.244,2.2206,2.241,2.2293,2.2001,2.1774,2.1628,2.1503,2.1284,2.1211,2.1211,2.1211,2.1211,2.1211,2.1211,2.1211,2.1211,2.1211,2.1211,2.1211,2.1211,2.1211,2.1211,2.1211,2.1211,2.1211,2.1211,2.1123,2.0881,2.0333,2.015,1.9793,1.9031,1.8848,1.8743,1.8534,1.8527,1.8527,1.8527,1.8527,1.8527,1.8527,1.8527,1.8527,1.8527,1.8513,1.8985,1.9755,1.9629,1.9608,1.9801,1.9105,1.8794,1.8771,1.8415,1.8181,1.8181,1.8181,1.7701,0.5888,0.6857,0.0,0.0,0.0,0.0,0.0,0.0,0.0,0.0,0.0,0.0,0.0,0.0,0.0,0.0,0.0,0.0,0.0,0.0,0.0,0.0,0.0,0.0,0.0,0.0,0.0,0.0,0.0,1.7285,1.6312,1.8012,1.8625,1.7778,1.8625,1.8625,1.7772,1.9013,1.9013,1.776,1.9144,1.9801,2.0068,2.0068,2.0068,2.0068,2.0068,2.0068,2.0195,2.1215,2.2039,2.2615,2.2615,2.244,2.2184,2.2184,2.1972,2.1693,2.1693,2.1481,2.1211,2.1211,2.1211,2.1211,2.1211,2.1211,2.1211,2.1211,2.1211,2.1211,2.1211,2.1211,2.1211,2.1211,2.1211,2.1211,2.1211,2.1211,2.1211,2.1211,2.0947,2.0618,2.0289,1.9974,1.9326,1.8142,1.7982,1.7674,1.6836,1.673,1.673,1.673,1.673,1.673,1.673,1.6736,1.6736,1.6736,1.6997,1.7915,1.9662,1.9818,1.9808,1.9808,1.825,1.7455,1.7455,1.6161,1.5575,1.5575,1.5575,1.5569,0.6375,0.0,0.0,0.0,0.0,0.0,0.0,0.0,0.0,0.0,0.0,0.0,0.0,0.0,0.0,0.0,0.0,0.0,0.0,0.0,0.0,0.0,0.0,0.0,0.0,0.0,0.0,0.0,1.6199,1.6414,1.6054,1.7428,1.8018,1.7655,1.8625,1.8991,1.8747,1.9427,1.9299,1.8129,1.8938,1.9388,1.9607,1.9607,1.9976,2.059,2.059,2.0965,2.1596,2.1847,2.1783,2.1434,2.206,2.2125,2.184,2.184,2.1635,2.1357,2.1357,2.1291,2.1211,2.1211,2.1211,2.1211,2.1211,2.1211,2.1211,2.1211,2.1211,2.1211,2.1211,2.1211,2.1211,2.1211,2.1211,2.1211,2.1211,2.1211,2.1211,2.1211,2.048,1.9703,1.9395,1.8544,1.7815,1.7192,1.7041,1.6942,1.673,1.673,1.673,1.673,1.673,1.673,1.673,1.6908,1.7016,1.7016,1.7461,1.7626,1.7527,1.7547,1.7371,1.7083,1.6469,1.6161,1.6161,1.5806,1.5575,1.5575,1.5575,1.5095,0.6735,0.0,0.0,0.0,0.0,0.0,0.0,0.0,0.0,0.0,0.0,0.0,0.0,0.0,0.0,0.0,0.0,0.0,0.0,0.0,0.0,0.0,0.0,0.0,0.0,0.0,0.0,1.5601,1.6084,1.6281,1.5811,1.7258,1.7823,1.7467,1.8425,1.8785,1.8425,1.9013,1.8765,1.7588,1.804,1.8397,1.8677,1.8891,1.9357,2.0079,2.0079,2.0698,2.1562,2.1562,2.1364,2.1244,2.1741,2.1789,2.1503,2.1503,2.1379,2.1211,2.1211,2.1211,2.1211,2.1211,2.1211,2.1211,2.1211,2.1211,2.1211,2.1211,2.1211,2.1211,2.1211,2.1211,2.1211,2.1211,2.1211,2.1211,2.1211,2.0859,2.0587,2.0459,1.9491,1.8624,1.833,1.7603,1.682,1.633,1.5885,1.5678,1.5678,1.5678,1.5678,1.5678,1.5678,1.5678,1.5678,1.591,1.6059,1.6059,1.6547,1.6413,1.533,1.6143,1.6465,1.602,1.5208,1.4857,1.4857,1.4386,1.4033,1.4033,1.4033,1.3674,0.0,0.0,0.0,0.0,0.0,0.0,0.0,0.0,0.0,0.0,0.0,0.0,0.0,0.0,0.0,0.0,0.0,0.0,0.0,0.0,0.0,0.0,0.0,0.0,0.0,0.0,1.5601,1.5601,1.6414,1.6532,1.5596,1.7343,1.7923,1.6997,1.8169,1.8409,1.7596,1.8195,1.7839,1.6537,1.6879,1.7232,1.7497,1.7968,1.8545,1.9159,1.928,1.9765,2.0495,2.0623,2.0942,2.1533,2.165,2.1467,2.1211,2.1211,2.1211,2.1211,2.1211,2.1211,2.1211,2.1211,2.1211,2.1211,2.1096,2.1096,2.1089,2.0974,2.0974,2.0967,2.0938,2.0931,2.0923,2.0894,2.0938,2.1081,2.1052,2.035,1.9564,1.9244,1.8276,1.7331,1.7085,1.67,1.6199,1.5458,1.4719,1.4196,1.4196,1.4196,1.4196,1.4196,1.4196,1.4202,1.4223,1.4439,1.4573,1.46,1.5031,1.4691,1.3508,1.5563,1.638,1.5671,1.4257,1.3545,1.355,1.2367,1.1776,1.1776,1.1776,1.1776,0.0,0.0,0.0,0.0,0.0,0.0,0.0,0.0,0.0,0.0,0.0,0.0,0.0,0.0,0.0,0.0,0.0,0.0,0.0,0.0,0.0,0.0,0.0,0.0,0.0,1.5601,1.5601,1.5601,1.5833,1.5833,1.5601,1.6644,1.7232,1.6997,1.7929,1.8389,1.8163,1.9037,1.8693,1.7244,1.8096,1.8096,1.7485,1.7599,1.8351,1.965,2.0473,2.0473,2.0007,2.0822,2.0786,2.0259,2.0967,2.1269,2.1211,2.1211,2.1211,2.1211,2.1211,2.1211,2.1211,2.1211,2.1211,2.1096,2.0277,2.0046,1.9931,1.9216,1.8978,1.8925,1.8702,1.8643,1.8704,1.848,1.9353,2.0092,1.9835,1.9098,1.833,1.8164,1.7098,1.6228,1.6174,1.5418,1.4724,1.4509,1.4299,1.4196,1.4196,1.4196,1.4196,1.4196,1.4196,1.4266,1.4449,1.4676,1.4891,1.5085,1.5365,1.5166,1.4321,1.4366,1.3918,1.2724,1.2367,1.2251,1.2251,1.1897,1.1776,1.1776,1.1776,1.1776,0.0,0.0,0.0,0.0,0.0,0.0,0.0,0.0,0.0,0.0,0.0,0.0,0.0,0.0,0.0,0.0,0.0,0.0,0.0,0.0,0.0,0.0,0.0,0.0,0.0,1.5365,1.5435,1.5435,1.5537,1.5601,1.5601,1.6065,1.6295,1.6295,1.7003,1.7349,1.7467,1.8169,1.8175,1.7485,1.7818,1.7818,1.7485,1.8298,1.8997,1.9815,2.0744,2.0974,2.0515,2.0974,2.0859,2.0507,2.0981,2.1211,2.1211,2.1211,2.1211,2.1211,2.1211,2.1211,2.1211,2.1211,2.0859,2.0392,1.9931,1.9461,1.8984,1.8506,1.8294,1.8161,1.8014,1.7881,1.786,1.7719,1.8249,1.8771,1.8605,1.7892,1.7135,1.6864,1.5934,1.5147,1.5144,1.4592,1.4196,1.4196,1.4196,1.4196,1.4196,1.4196,1.4196,1.4196,1.4196,1.4288,1.4514,1.4751,1.4988,1.5235,1.5472,1.5116,1.4157,1.3923,1.3209,1.2247,1.1893,1.1776,1.1776,1.1776,1.1776,1.1776,1.1776,1.1776,0.0,0.0,0.0,0.0,0.0,0.0,0.0,0.0,0.0,0.0,0.0,0.0,0.0,0.0,0.0,0.0,0.0,0.0,0.0,0.0,0.0,0.0,0.0,0.0,1.5112,1.5292,1.5418,1.5418,1.5598,1.5708,1.5708,1.559,1.5595,1.5708,1.5836,1.597,1.6239,1.6598,1.6856,1.7126,1.6903,1.6903,1.725,1.8642,1.9461,1.9577,2.0392,2.0859,2.0981,2.0981,2.1089,2.1211,2.1211,2.1211,2.1211,2.1211,2.1174,2.1123,2.1123,2.1123,2.1123,2.0894,2.0315,1.9618,1.9381,1.8641,1.8012,1.7896,1.7619,1.7439,1.7396,1.7222,1.7154,1.711,1.7098,1.711,1.7376,1.6604,1.5964,1.5603,1.5015,1.4417,1.4223,1.4196,1.4196,1.4196,1.4196,1.4196,1.4196,1.4196,1.4196,1.4196,1.4196,1.4288,1.4514,1.4751,1.4988,1.5235,1.5472,1.5002,1.3803,1.3564,1.308,1.2354,1.201,1.1776,1.1776,1.1776,1.1776,1.1776,1.1776,1.1776,0.0,0.0,0.0,0.0,0.0,0.0,0.0,0.0,0.0,0.0,0.0,0.0,0.0,0.0,0.0,0.0,0.0,0.0,0.0,0.0,0.0,0.0,0.0,1.5219,1.5896,1.6043,1.6061,1.6061,1.6095,1.6113,1.6113,1.5432,1.5319,1.6113,1.5432,1.5194,1.5411,1.5754,1.5859,1.5833,1.5839,1.5839,1.5833,1.6879,1.7812,1.8622,1.8739,1.9216,2.0046,2.0046,2.0515,2.1211,2.1211,2.1211,2.1211,2.1211,2.1035,2.0786,2.0786,2.0786,2.0674,1.9878,1.9525,1.9172,1.7467,1.6846,1.6434,1.5654,1.5291,1.5219,1.501,1.4933,1.4856,1.4658,1.4717,1.499,1.5955,1.5452,1.4735,1.45,1.4348,1.4229,1.4202,1.4196,1.4196,1.4196,1.4196,1.4196,1.4196,1.4196,1.4196,1.4196,1.4196,1.4288,1.4514,1.4751,1.4988,1.5235,1.5472,1.4997,1.3789,1.2822,1.1856,1.0649,1.1402,1.1776,1.1776,1.1776,1.1776,1.1776,1.1776,1.1776,0.0,0.0,0.0,0.0,0.0,0.0,0.0,0.0,0.0,0.0,0.0,0.0,0.0,0.0,0.0,0.0,0.0,0.0,0.0,0.0,0.0,0.0,0.0,1.5574,1.6447,1.6142,1.6004,1.6004,1.5698,1.5445,1.5445,1.5112,1.5112,1.5445,1.5112,1.5053,1.5281,1.5504,1.5554,1.5434,1.5434,1.5434,1.5198,1.5654,1.6489,1.7695,1.8156,1.8622,1.8984,1.8984,1.9216,1.9666,1.9496,1.9435,1.9414,1.9251,1.9108,1.8993,1.8993,1.8993,1.8993,1.8546,1.8084,1.751,1.6726,1.5977,1.544,1.4993,1.4789,1.4665,1.4562,1.4444,1.432,1.4218,1.4196,1.4331,1.4859,1.4663,1.4315,1.4213,1.4196,1.4196,1.4196,1.4196,1.4196,1.4196,1.4196,1.4196,1.4196,1.4196,1.4196,1.4196,1.4196,1.4288,1.4514,1.4065,1.3763,1.3984,1.3505,1.2849,1.1913,1.1322,1.0498,0.9561,0.9971,1.0058,1.0058,1.0058,1.0058,1.0058,1.0058,1.0058,0.0,0.0,0.0,0.0,0.0,0.0,0.0,0.0,0.0,0.0,0.0,0.0,0.0,0.0,0.0,0.0,0.0,0.0,0.0,0.0,0.0,0.0,1.5773,1.6092,1.6624,1.6264,1.5946,1.5728,1.526,1.5032,1.5032,1.4814,1.482,1.5038,1.482,1.4852,1.5142,1.5203,1.523,1.523,1.523,1.5117,1.4885,1.4885,1.5418,1.6454,1.7255,1.7603,1.7827,1.7827,1.8064,1.8161,1.7957,1.7874,1.7962,1.7764,1.7642,1.7578,1.7578,1.7578,1.7578,1.724,1.679,1.6116,1.5899,1.5306,1.4708,1.4708,1.4584,1.4449,1.4449,1.432,1.4196,1.4196,1.4196,1.4196,1.4196,1.4196,1.4196,1.4196,1.4196,1.4196,1.4196,1.4196,1.4196,1.4196,1.4196,1.4196,1.4196,1.4196,1.4196,1.4196,1.397,1.3816,1.3978,1.2928,1.2464,1.2606,1.1871,1.0978,1.0051,0.9824,0.9248,0.8326,0.8039,0.8254,0.8738,0.8769,0.8784,0.8784,0.8821,0.8836,0.0,0.0,0.0,0.0,0.0,0.0,0.0,0.0,0.0,0.0,0.0,0.0,0.0,0.0,0.0,0.0,0.0,0.0,0.0,0.0,0.0,0.0,1.6624,1.6624,1.673,1.6636,1.6324,1.5577,1.5487,1.5493,1.5493,1.465,1.4656,1.5386,1.465,1.4336,1.4552,1.4772,1.4885,1.4885,1.4885,1.4885,1.4885,1.4885,1.4896,1.5031,1.5031,1.5592,1.6363,1.6363,1.693,1.7725,1.7712,1.7706,1.7706,1.7693,1.7514,1.7284,1.7284,1.7284,1.706,1.618,1.5961,1.5748,1.4878,1.4401,1.4229,1.4229,1.4218,1.4213,1.4213,1.4202,1.4196,1.4196,1.4196,1.4196,1.4196,1.4196,1.4196,1.4196,1.4196,1.4196,1.4196,1.4196,1.4196,1.4196,1.4196,1.4196,1.4196,1.4196,1.4196,1.4196,1.3192,1.2531,1.254,1.1611,1.1044,1.1164,1.1338,1.0743,0.9122,0.8775,0.7852,0.6235,0.5888,0.671,0.8583,0.8704,0.8763,0.8647,0.8778,0.8836,0.0,0.0,0.0,0.0,0.0,0.0,0.0,0.0,0.0,0.0,0.0,0.0,0.0,0.0,0.0,0.0,0.0,0.0,0.0,0.0,0.0,0.0,1.6183,1.6253,1.6541,1.6045,1.5593,1.5547,1.4928,1.4724,1.4724,1.4407,1.4299,1.4611,1.4407,1.4234,1.4315,1.4401,1.4439,1.4439,1.4439,1.4439,1.4439,1.4439,1.4439,1.4439,1.4439,1.4828,1.544,1.544,1.5552,1.5879,1.5718,1.5655,1.5632,1.5476,1.5361,1.5286,1.5286,1.5286,1.5172,1.4847,1.4739,1.4744,1.4424,1.4261,1.4196,1.4196,1.4196,1.4196,1.4196,1.4196,1.4196,1.4196,1.4196,1.4196,1.4196,1.4196,1.4196,1.4196,1.4196,1.4196,1.4196,1.4196,1.4196,1.4196,1.4196,1.397,1.3192,1.3078,1.2753,1.1991,1.1546,1.1328,1.1328,1.0288,0.9661,0.9661,0.9045,0.8404,0.7841,0.7392,0.6835,0.6273,0.5703,0.5875,0.6693,0.68,0.6853,0.6856,0.6962,0.6891,0.0,0.0,0.0,0.0,0.0,0.0,0.0,0.0,0.0,0.0,0.0,0.0,0.0,0.0,0.0,0.0,0.0,0.0,0.0,0.0,0.0,0.0,1.6587,1.6459,1.5934,1.576,1.553,1.4872,1.4652,0.0,1.4067,1.4148,1.4196,1.4196,1.4196,1.4196,1.4196,1.4196,1.4196,1.4196,1.4196,1.4196,1.4196,1.4196,1.4196,1.4196,1.4196,1.4369,1.4654,1.4654,1.4654,1.4638,1.4482,1.4422,1.4401,1.425,1.4196,1.4196,1.4196,1.4196,1.4196,1.4196,1.4196,1.4196,1.4196,1.4196,1.4196,1.4196,1.4196,1.4196,1.4196,1.4196,1.4083,1.3635,1.3635,1.3635,1.3635,1.3862,1.4196,1.4196,1.4196,1.4196,1.4196,1.3862,1.3635,1.3635,1.331,1.2758,1.1982,1.1869,1.1542,1.0781,1.0343,1.0123,1.0123,0.9027,0.8371,0.8371,0.7598,0.7154,0.7043,0.6604,0.6383,0.6161,0.5714,0.5552,0.5555,0.5645,0.5704,0.5737,0.5829,0.5888,0.0,0.0,0.0,0.0,0.0,0.0,0.0,0.0,0.0,0.0,0.0,0.0,0.0,0.0,0.0,0.0,0.0,0.0,0.0,0.0,0.0,1.7272,1.7775,1.7265,1.4957,1.6079,1.5991,1.368,1.4401,1.4641,1.3809,1.404,1.4175,1.4186,1.4186,1.4186,1.4196,1.4196,1.4196,1.4196,1.4196,1.4196,1.4196,1.4196,1.4196,1.4196,1.4196,1.4196,1.4196,1.4196,1.4196,1.4196,1.4196,1.4196,1.4196,1.4196,1.4196,1.4196,1.4196,1.4196,1.4196,1.4196,1.4196,1.4196,1.4196,1.4196,1.4196,1.4196,1.4191,1.4191,1.4083,1.4083,1.3748,1.2639,1.2304,1.2304,1.2304,1.3305,1.4083,1.4191,1.4083,1.4083,1.4083,1.3083,1.2304,1.2304,1.1433,1.0672,1.0672,1.0672,1.0672,1.0562,0.9578,0.8813,0.8813,0.7817,0.7154,0.7154,0.7154,0.7046,0.6712,0.6715,0.6379,0.5822,0.5822,0.5712,0.5382,0.5467,0.5555,0.5645,0.5741,0.5833,0.6643,0.0,0.0,0.0,0.0,0.0,0.0,0.0,0.0,0.0,0.0,0.0,0.0,0.0,0.0,0.0,0.0,0.0,0.0,0.0,0.0,1.6539,1.6635,1.6132,1.457,1.4787,1.4577,0.0,1.374,1.3778,1.3572,1.3636,1.3755,1.3916,1.3922,1.4008,1.4191,1.4196,1.4196,1.4196,1.4196,1.4196,1.4196,1.4196,1.4196,1.4196,1.4196,1.4196,1.4196,1.4196,1.4196,1.4196,1.4196,1.4196,1.4196,1.4196,1.4196,1.4196,1.4196,1.4196,1.4196,1.4196,1.4196,1.4196,1.4196,1.4196,1.4196,1.4196,1.3527,1.2753,1.1878,1.166,1.1551,1.1219,1.1219,1.1219,1.1219,1.1442,1.1878,1.2748,1.2205,1.166,1.166,1.1437,1.1219,1.1219,1.0891,1.0343,0.9467,0.9357,0.903,0.8257,0.7814,0.7706,0.7706,0.7376,0.7154,0.7154,0.7154,0.7154,0.7046,0.6824,0.6604,0.6492,0.6272,0.6049,0.5712,0.5579,0.5555,0.5647,0.5806,0.5894,0.0,0.0,0.0,0.0,0.0,0.0,0.0,0.9673,0.0,0.0,0.0,0.0,0.0,0.0,0.0,0.0,0.0,0.0,0.0,0.0,0.0,1.6285,1.6473,1.6164,1.4789,1.4898,1.468,1.3757,1.3763,1.3774,1.347,1.348,1.354,1.3674,1.368,1.3744,1.3895,1.3992,1.404,1.404,1.4148,1.4196,1.4196,1.4196,1.4196,1.4196,1.4196,1.4196,1.4196,1.4196,1.4196,1.4196,1.4196,1.4196,1.4196,1.4196,1.4196,1.4196,1.4196,1.4196,1.4196,1.4196,1.4196,1.4196,1.4196,1.4196,1.4083,1.3635,1.2644,1.1542,1.0891,1.0672,1.0562,1.0014,0.9908,0.9908,0.9908,0.9574,0.9684,1.1324,1.1105,1.0672,1.0672,1.0233,0.9908,0.9908,0.9574,0.9027,0.826,0.8149,0.7928,0.7265,0.7154,0.7154,0.7154,0.7154,0.7154,0.7154,0.7154,0.7154,0.7154,0.7046,0.6824,0.6715,0.6495,0.627,0.5822,0.5652,0.5633,0.5647,0.5794,0.588,0.7472,0.7588,0.0,0.0,0.8835,0.0,1.0199,1.0177,0.0,0.0,0.0,0.0,0.0,0.0,0.0,0.0,0.0,0.0,0.0,0.0,0.0,1.6379,1.6857,1.6763,1.5337,1.5812,1.5622,1.4094,1.4211,1.405,1.3491,1.34,1.341,1.3437,1.3437,1.3448,1.348,1.368,1.3782,1.3787,1.4008,1.4116,1.4116,1.4116,1.4116,1.4116,1.4143,1.4153,1.4153,1.4186,1.4196,1.4196,1.4196,1.4196,1.4196,1.4196,1.4196,1.4196,1.4196,1.4196,1.4196,1.4196,1.4196,1.4191,1.4083,1.397,1.3748,1.2417,1.1324,1.0453,1.0343,1.0343,1.0014,0.892,0.8699,0.8699,0.8699,0.7928,0.7817,0.9904,1.0343,1.0343,1.0343,0.9467,0.8699,0.8699,0.7817,0.7154,0.7154,0.7154,0.7154,0.7154,0.7154,0.7154,0.7154,0.7154,0.7154,0.7154,0.7154,0.7154,0.7154,0.7154,0.7046,0.6715,0.6715,0.649,0.5933,0.5833,0.5705,0.5645,0.5737,0.5831,0.9606,0.9926,1.0072,0.9718,1.0149,0.0,0.9873,0.9761,1.0137,0.0,0.0,0.0,0.0,0.0,0.0,0.0,0.0,0.0,0.0,0.0,0.0,0.0,1.7232,1.6951,1.6096,1.6096,1.5812,1.4956,1.4334,1.3716,1.2997,1.2904,1.2985,1.3168,1.3179,1.3276,1.3475,1.3523,1.3545,1.3545,1.3593,1.362,1.362,1.362,1.362,1.3626,1.3814,1.389,1.3911,1.411,1.4196,1.4196,1.4196,1.4196,1.4196,1.4196,1.4196,1.4196,1.4196,1.4196,1.4196,1.4196,1.4196,1.3975,1.3078,1.2748,1.2309,1.0233,0.9467,0.903,0.8146,0.7925,0.7817,0.7595,0.7485,0.7485,0.7485,0.7376,0.7374,0.7814,0.7925,0.7925,0.7925,0.7706,0.7485,0.7485,0.7376,0.7154,0.7154,0.7154,0.7154,0.7154,0.7154,0.7154,0.7154,0.7154,0.7154,0.7154,0.7154,0.7154,0.7154,0.7154,0.7154,0.7154,0.6824,0.6604,0.649,0.6129,0.5886,0.5645,0.5737,0.5831,1.0535,1.0549,1.0692,1.0808,0.0,0.0,0.0,1.0597,1.0723,1.1629,0.0,0.0,0.0,0.0,0.0,0.0,0.0,0.0,0.0,0.0,0.0,0.0,1.685,1.6726,1.6608,1.6151,1.5745,1.5134,1.4382,1.3715,1.3335,1.2953,1.2813,1.2931,1.2931,1.2996,1.312,1.3233,1.3292,1.3292,1.3421,1.348,1.348,1.348,1.348,1.3486,1.3599,1.3647,1.3658,1.3787,1.3836,1.3863,1.4099,1.4196,1.4196,1.4196,1.4196,1.4196,1.4196,1.4196,1.4083,1.3527,1.3305,1.3083,1.1873,1.1105,1.0453,0.9247,0.8478,0.7928,0.7376,0.7154,0.7154,0.7154,0.7154,0.7154,0.7154,0.7154,0.7154,0.7154,0.7154,0.7154,0.7154,0.7154,0.7154,0.7154,0.7154,0.7154,0.7154,0.7154,0.7154,0.7154,0.7154,0.7154,0.7154,0.7154,0.7154,0.7154,0.7154,0.7154,0.7154,0.7154,0.7154,0.7154,0.7043,0.6824,0.6715,0.6434,0.6201,0.5881,0.593,0.5908,0.0,0.0,1.1639,1.1943,0.0,1.1619,0.0,0.0,0.0,1.2028,0.0,0.0,0.0,0.0,0.0,0.0,0.0,0.0,0.0,0.0,0.0,1.606,1.6206,1.6382,1.6645,1.6005,1.5386,1.5143,1.4415,1.3956,1.382,1.3307,1.2953,1.2764,1.2764,1.2764,1.2764,1.2947,1.3039,1.3039,1.3243,1.334,1.334,1.334,1.334,1.3346,1.3389,1.3405,1.341,1.3459,1.348,1.3518,1.3906,1.4056,1.4062,1.4105,1.4121,1.4126,1.3954,1.3862,1.364,1.2422,1.1869,1.1542,1.0672,0.9467,0.8592,0.8592,0.7928,0.7154,0.7154,0.7154,0.7154,0.7154,0.7154,0.7154,0.7154,0.7154,0.7154,0.7154,0.7154,0.7154,0.7154,0.7154,0.7154,0.7154,0.7154,0.7154,0.7154,0.7154,0.7154,0.7154,0.7154,0.7154,0.7154,0.7154,0.7154,0.7154,0.7154,0.7154,0.7154,0.7154,0.7154,0.7154,0.7154,0.7046,0.6824,0.6824,0.6591,0.6206,0.6206,0.6074,0.0,0.0,0.0,0.0,1.3688,1.3892,1.1699,0.0,1.1714,1.096,0.0,0.0,0.0,0.0,0.0,0.0,0.0,0.0,0.0,0.0,0.0,1.497,1.5613,1.5979,1.6016,1.5413,1.5014,1.5143,1.4643,1.3995,1.3526,1.3683,1.3522,1.2861,1.2764,1.2764,1.2764,1.2786,1.2802,1.2802,1.2829,1.2845,1.2845,1.2845,1.2845,1.2856,1.306,1.3147,1.3163,1.3389,1.348,1.3486,1.354,1.3561,1.3583,1.3787,1.3863,1.3784,1.2901,1.2639,1.2417,1.1219,1.0123,0.9247,0.914,0.8257,0.7376,0.7376,0.7265,0.7154,0.7154,0.7154,0.7154,0.7154,0.7154,0.7154,0.7154,0.7154,0.7154,0.7154,0.7154,0.7154,0.7154,0.7154,0.7154,0.7154,0.7154,0.7154,0.7154,0.7154,0.7154,0.7154,0.7154,0.7154,0.7154,0.7154,0.7154,0.7154,0.7154,0.7154,0.7154,0.7154,0.7154,0.7154,0.7154,0.7154,0.7154,0.7154,0.6886,0.6327,0.6327,0.6436,0.0,0.0,0.0,0.0,1.3686,1.3489,1.2182,1.1838,1.175,1.1714,0.0,0.0,0.0,0.0,0.0,0.0,1.137,0.0,0.0,0.0,0.0,0.0,0.0,0.0,1.5021,1.4831,1.4822,1.5241,1.4126,1.3506,1.3793,1.3356,1.3003,1.2759,1.2764,1.2764,1.2764,1.2764,1.2764,1.2764,1.2764,1.2764,1.2764,1.2764,1.2764,1.277,1.2867,1.2904,1.2915,1.3023,1.3066,1.3066,1.3066,1.3233,1.3388,1.2951,1.2665,1.2591,1.1629,1.1267,1.1069,0.9983,0.892,0.7928,0.7928,0.7595,0.7154,0.7154,0.7154,0.7154,0.7154,0.7154,0.7154,0.7154,0.7154,0.7154,0.7154,0.7154,0.7154,0.7154,0.7163,0.7171,0.7171,0.7163,0.7154,0.7154,0.7154,0.7154,0.7154,0.7154,0.7154,0.7154,0.7154,0.7154,0.7154,0.7154,0.7154,0.7154,0.7154,0.7154,0.7154,0.7154,0.7154,0.7154,0.7154,0.7154,0.7154,0.7154,0.7067,0.6894,0.6737,0.6621,1.4765,1.4784,1.4767,1.4023,1.3577,1.3158,1.24,1.2102,1.2036,1.2328,1.2043,0.0,0.0,0.0,0.0,0.0,0.0,1.1282,0.0,0.0,0.0,0.0,0.0,0.0,0.0,1.3879,1.3972,1.472,1.336,1.277,1.3572,1.2963,1.2609,1.2662,1.2732,1.2764,1.2764,1.2764,1.2764,1.2764,1.2764,1.2764,1.2764,1.2764,1.2764,1.2764,1.2764,1.2764,1.2764,1.2764,1.2764,1.2764,1.2462,1.2569,1.277,1.2108,1.1611,1.1227,1.0266,0.9796,0.9393,0.8547,0.7737,0.7108,0.7108,0.713,0.7154,0.7154,0.7154,0.7154,0.7154,0.7154,0.7154,0.7154,0.7154,0.7154,0.7154,0.716,0.716,0.7157,0.7171,0.7184,0.7182,0.7173,0.7165,0.7165,0.7165,0.7165,0.7165,0.7165,0.7165,0.7165,0.7165,0.7165,0.7165,0.7165,0.7165,0.7163,0.7165,0.7165,0.7163,0.7163,0.7163,0.7163,0.7157,0.7154,0.7154,0.7154,0.7154,0.7157,0.7022,0.6896,1.5141,1.5512,1.5533,1.3906,1.374,1.355,1.202,1.2299,1.2789,1.2175,1.2782,1.3228,1.2621,1.2226,1.1802,1.1172,0.0,0.0,0.0,0.0,0.0,0.0,0.0,0.0,0.0,1.2394,1.2107,0.0,1.2199,1.1877,1.2389,1.2951,1.2894,1.2414,1.2646,1.2764,1.2764,1.2764,1.2764,1.2764,1.2764,1.2764,1.2764,1.2764,1.2764,1.2764,1.2764,1.2764,1.2764,1.2764,1.2764,1.2662,1.1668,1.1277,1.1315,1.143,1.0891,0.99,0.8942,0.7852,0.6912,0.6918,0.6893,0.6991,0.6991,0.7067,0.7154,0.7154,0.7154,0.7154,0.7154,0.7154,0.7154,0.7154,0.7154,0.7154,0.7154,0.7168,0.7176,0.716,0.7176,0.7192,0.7184,0.719,0.7195,0.7195,0.7195,0.7195,0.7195,0.7195,0.7195,0.7195,0.7195,0.7195,0.7195,0.7195,0.719,0.7182,0.719,0.719,0.7182,0.7182,0.7182,0.7182,0.7165,0.7154,0.7154,0.7154,0.7154,0.7154,0.7157,0.7225,1.535,1.5569,1.5541,1.4503,1.3988,1.3554,1.2451,1.2614,1.2819,1.2167,1.2811,1.3294,1.2643,1.2255,1.1897,1.1465,1.1033,0.0,0.0,0.0,0.0,0.0,0.0,0.0,0.0,0.0,0.0,1.2656,1.195,1.1893,1.2609,1.2772,1.2723,1.2404,1.2641,1.2764,1.2764,1.2764,1.2764,1.2764,1.2764,1.2764,1.2764,1.2764,1.2764,1.2764,1.2764,1.2764,1.2764,1.2764,1.2365,1.1668,1.137,1.0284,0.9114,0.9172,0.8996,0.8517,0.7555,0.7044,0.6801,0.6801,0.6831,0.688,0.6961,0.7013,0.7059,0.7133,0.7154,0.7154,0.7154,0.7154,0.7154,0.7154,0.7154,0.7154,0.7154,0.7171,0.7182,0.7173,0.7184,0.7198,0.7201,0.5839,0.4823,0.4819,0.4817,0.4817,0.4817,0.4817,0.4817,0.4817,0.4817,0.4817,0.4817,0.4817,0.4817,0.4814,0.6286,0.6512,0.4927,0.4814,0.5603,0.719,0.7184,0.7182,0.7182,0.7182,0.7179,0.7173,0.7173,0.7187,1.5486,1.5624,1.5499,1.481,1.43,1.3803,1.2798,1.3064,1.3375,1.2495,1.3162,1.3711,1.3294,1.276,1.2241,1.1802,1.1187,1.0565,0.0,0.9929,0.0,0.0,0.0,0.0,0.0,0.0,1.1345,1.2011,1.151,0.0,0.0,1.223,1.228,1.2145,1.2474,1.2678,1.2764,1.2764,1.2764,1.2764,1.2764,1.2764,1.2764,1.2764,1.2764,1.2764,1.2764,1.2764,1.2764,1.2365,1.1863,1.1072,1.0382,0.9201,0.8021,0.8021,0.7726,0.7341,0.6729,0.6605,0.6673,0.6673,0.6703,0.6752,0.6831,0.6915,0.6999,0.7073,0.7124,0.7154,0.7154,0.7154,0.7154,0.7154,0.7154,0.7157,0.7163,0.7176,0.6959,0.6054,0.527,0.5164,0.6868,0.4491,0.2353,0.2351,0.2351,0.2351,0.2351,0.2351,0.2351,0.2351,0.2351,0.2351,0.2351,0.2351,0.235,0.2349,0.381,0.4711,0.4821,0.3246,0.3022,0.4596,0.5495,0.5947,0.5947,0.5947,0.5944,0.594,0.6844,0.7179]},{"header":{"parameterUnit":"m.s-1","parameterCategory":1,"la1":30.6,"la2":29.2853,"lo1":-89.7004,"lo2":-87.6739,"dy":0.0162,"dx":0.0183,"nx":112,"ny":82,"refTime":"2024-08-14T18:00:00:Z","depth":0,"parameterNumber":3,"parameterNumberName":"V-component_of_WINDS"},"data":[0.0,0.0,0.0,0.0,0.0,0.0,0.0,0.0,0.0,0.0,0.0,0.0,0.0,0.0,0.0,0.0,0.0,0.0,0.0,0.0,0.0,0.0,0.0,0.0,0.0,0.0,0.0,0.0,0.0,0.0,0.0,0.0,0.0,0.0,0.0,0.0,0.0,0.0,0.0,0.0,0.0,0.0,0.0,0.0,0.0,0.0,0.0,0.0,0.0,0.0,0.0,0.0,0.0,0.0,0.0,0.0,0.0,0.0,0.0,0.0,0.0,0.0,0.0,0.0,0.0,0.0,0.0,0.0,0.0,0.0,0.0,0.0,0.0,0.0,0.0,0.0,0.0,0.0,0.0,0.0,0.0,0.0,0.0,0.0,0.0,0.0,0.0,0.0,0.0,0.0,-2.1233,-2.2957,-2.5824,-2.735,-2.6782,-2.6557,-2.5166,-2.2107,0.0,0.0,0.0,0.0,0.0,0.0,0.0,0.0,0.0,0.0,0.0,0.0,0.0,0.0,0.0,0.0,0.0,0.0,0.0,0.0,0.0,0.0,0.0,0.0,0.0,0.0,0.0,0.0,0.0,0.0,0.0,0.0,0.0,0.0,0.0,0.0,0.0,0.0,0.0,0.0,0.0,0.0,0.0,0.0,0.0,0.0,0.0,0.0,0.0,0.0,0.0,0.0,0.0,0.0,0.0,0.0,0.0,0.0,0.0,0.0,0.0,0.0,0.0,0.0,0.0,0.0,0.0,0.0,0.0,0.0,0.0,0.0,0.0,0.0,0.0,0.0,0.0,0.0,0.0,0.0,0.0,0.0,0.0,0.0,0.0,0.0,0.0,0.0,0.0,0.0,0.0,0.0,0.0,0.0,0.0,0.0,0.0,0.0,0.0,0.0,0.0,0.0,0.0,0.0,-2.1932,-2.5615,-2.6931,-2.758,-2.749,-2.6393,-2.5015,-2.3316,0.0,0.0,0.0,0.0,0.0,0.0,0.0,0.0,0.0,0.0,0.0,0.0,0.0,0.0,0.0,0.0,0.0,0.0,0.0,0.0,0.0,0.0,0.0,0.0,0.0,0.0,0.0,0.0,0.0,0.0,0.0,0.0,0.0,0.0,0.0,0.0,0.0,0.0,0.0,0.0,0.0,0.0,0.0,0.0,0.0,0.0,0.0,0.0,0.0,0.0,0.0,0.0,0.0,0.0,0.0,0.0,0.0,0.0,0.0,0.0,0.0,0.0,0.0,0.0,0.0,0.0,0.0,0.0,0.0,0.0,0.0,0.0,0.0,0.0,0.0,0.0,0.0,0.0,0.0,0.0,0.0,0.0,0.0,0.0,0.0,0.0,0.0,0.0,0.0,0.0,0.0,0.0,0.0,0.0,0.0,0.0,0.0,0.0,0.0,0.0,0.0,0.0,0.0,-2.0759,-2.2784,-2.6243,-2.7136,-2.7539,-2.7575,-2.6363,-2.5,-2.3584,-2.0941,0.0,0.0,0.0,0.0,0.0,0.0,0.0,0.0,0.0,0.0,0.0,0.0,0.0,0.0,0.0,0.0,0.0,0.0,0.0,0.0,0.0,0.0,0.0,0.0,0.0,0.0,0.0,0.0,0.0,0.0,0.0,0.0,0.0,0.0,0.0,0.0,0.0,0.0,0.0,0.0,0.0,0.0,0.0,0.0,0.0,0.0,0.0,0.0,0.0,0.0,0.0,0.0,0.0,0.0,0.0,0.0,0.0,0.0,0.0,0.0,0.0,0.0,0.0,0.0,0.0,0.0,0.0,0.0,0.0,0.0,0.0,0.0,0.0,0.0,0.0,0.0,0.0,0.0,0.0,0.0,0.0,0.0,0.0,0.0,0.0,0.0,0.0,0.0,0.0,0.0,0.0,0.0,0.0,0.0,0.0,0.0,0.0,0.0,0.0,0.0,0.0,0.0,-2.2683,-2.4015,-2.6572,-2.7175,-2.7488,-2.7575,-2.6078,-2.4657,-2.3569,-2.0094,0.0,0.0,0.0,0.0,0.0,0.0,0.0,0.0,0.0,0.0,0.0,0.0,0.0,0.0,0.0,0.0,0.0,0.0,0.0,0.0,0.0,0.0,0.0,0.0,0.0,0.0,0.0,0.0,0.0,0.0,0.0,0.0,0.0,0.0,0.0,0.0,0.0,0.0,0.0,0.0,0.0,0.0,0.0,0.0,0.0,0.0,0.0,0.0,0.0,0.0,0.0,0.0,0.0,0.0,0.0,0.0,0.0,0.0,0.0,0.0,0.0,0.0,0.0,0.0,0.0,0.0,0.0,0.0,0.0,0.0,0.0,0.0,0.0,0.0,0.0,0.0,0.0,0.0,0.0,0.0,0.0,0.0,0.0,0.0,0.0,0.0,0.0,0.0,0.0,0.0,0.0,0.0,0.0,0.0,0.0,0.0,0.0,0.0,0.0,0.0,0.0,0.0,-2.3659,-2.5786,-2.735,-2.7545,-2.7575,-2.7625,-2.5226,-2.3671,-2.3509,-1.9313,0.0,0.0,0.0,0.0,0.0,0.0,0.0,0.0,0.0,0.0,0.0,0.0,0.0,0.0,0.0,0.0,0.0,0.0,0.0,0.0,0.0,0.0,0.0,0.0,0.0,0.0,0.0,0.0,0.0,0.0,0.0,0.0,0.0,0.0,0.0,0.0,0.0,0.0,0.0,0.0,0.0,0.0,0.0,0.0,0.0,0.0,0.0,0.0,0.0,0.0,0.0,0.0,0.0,0.0,0.0,0.0,0.0,0.0,0.0,0.0,0.0,0.0,0.0,0.0,0.0,0.0,0.0,0.0,0.0,0.0,0.0,0.0,0.0,0.0,0.0,0.0,0.0,0.0,0.0,0.0,0.0,0.0,0.0,0.0,0.0,0.0,0.0,0.0,0.0,0.0,0.0,0.0,0.0,0.0,0.0,0.0,0.0,0.0,0.0,0.0,0.0,0.0,-2.2993,-2.4995,0.0,-2.7539,-2.7488,-2.7575,-2.5899,-2.4283,-2.2888,0.0,0.0,0.0,0.0,0.0,0.0,0.0,0.0,0.0,0.0,0.0,0.0,0.0,0.0,0.0,0.0,0.0,0.0,0.0,0.0,0.0,0.0,0.0,0.0,0.0,0.0,0.0,0.0,0.0,0.0,0.0,0.0,0.0,0.0,0.0,0.0,0.0,0.0,0.0,0.0,0.0,0.0,0.0,0.0,0.0,0.0,0.0,0.0,0.0,0.0,0.0,0.0,0.0,0.0,0.0,0.0,0.0,0.0,0.0,0.0,0.0,0.0,0.0,0.0,0.0,0.0,0.0,0.0,0.0,0.0,0.0,0.0,0.0,0.0,0.0,0.0,0.0,0.0,0.0,0.0,0.0,0.0,0.0,0.0,0.0,0.0,0.0,0.0,0.0,0.0,0.0,0.0,0.0,0.0,0.0,0.0,0.0,0.0,0.0,0.0,0.0,0.0,-2.1222,-2.3052,-2.4921,0.0,-2.7539,-2.7488,-2.7575,-2.5974,-2.4224,-2.249,0.0,0.0,0.0,0.0,0.0,0.0,0.0,0.0,0.0,0.0,0.0,0.0,0.0,0.0,0.0,0.0,0.0,0.0,0.0,0.0,0.0,0.0,0.0,0.0,0.0,0.0,0.0,0.0,0.0,0.0,0.0,0.0,0.0,0.0,0.0,0.0,0.0,0.0,0.0,0.0,0.0,0.0,0.0,0.0,0.0,0.0,0.0,0.0,0.0,0.0,0.0,0.0,0.0,0.0,0.0,0.0,0.0,0.0,0.0,0.0,0.0,0.0,0.0,0.0,0.0,0.0,0.0,0.0,0.0,0.0,0.0,0.0,0.0,0.0,0.0,0.0,0.0,0.0,0.0,0.0,0.0,0.0,0.0,0.0,0.0,0.0,0.0,0.0,0.0,0.0,0.0,0.0,0.0,0.0,0.0,0.0,0.0,0.0,0.0,0.0,0.0,0.0,-2.1931,-2.4148,-2.5964,-2.7425,-2.7625,-2.7625,-2.7625,-2.5151,-2.3255,0.0,0.0,0.0,0.0,0.0,0.0,0.0,0.0,0.0,0.0,0.0,0.0,0.0,0.0,0.0,0.0,0.0,0.0,0.0,0.0,0.0,0.0,0.0,0.0,0.0,0.0,0.0,0.0,0.0,0.0,0.0,0.0,0.0,0.0,0.0,0.0,0.0,0.0,0.0,0.0,0.0,0.0,0.0,0.0,0.0,0.0,0.0,0.0,0.0,0.0,0.0,0.0,0.0,0.0,0.0,0.0,0.0,0.0,0.0,0.0,0.0,0.0,0.0,0.0,0.0,0.0,0.0,0.0,0.0,0.0,0.0,0.0,0.0,0.0,0.0,0.0,0.0,0.0,0.0,0.0,0.0,0.0,0.0,0.0,0.0,0.0,0.0,0.0,0.0,0.0,0.0,0.0,0.0,0.0,0.0,0.0,0.0,0.0,0.0,0.0,0.0,0.0,0.0,-2.1972,-2.4238,-2.606,-2.7425,-2.7625,-2.7625,-2.7625,-2.6004,-2.4045,-2.1839,0.0,0.0,0.0,0.0,0.0,0.0,0.0,0.0,0.0,0.0,0.0,0.0,0.0,0.0,0.0,0.0,0.0,0.0,0.0,0.0,0.0,0.0,0.0,0.0,0.0,0.0,0.0,0.0,0.0,0.0,0.0,0.0,0.0,0.0,0.0,0.0,0.0,0.0,0.0,0.0,0.0,0.0,0.0,0.0,0.0,0.0,0.0,0.0,0.0,0.0,0.0,0.0,0.0,0.0,0.0,0.0,0.0,0.0,0.0,0.0,0.0,0.0,0.0,0.0,0.0,0.0,0.0,0.0,0.0,0.0,0.0,0.0,0.0,0.0,0.0,0.0,0.0,0.0,0.0,0.0,0.0,0.0,0.0,0.0,0.0,0.0,0.0,0.0,0.0,0.0,0.0,0.0,0.0,0.0,0.0,0.0,0.0,0.0,0.0,0.0,0.0,0.0,-2.2357,-2.4417,-2.6108,-2.749,-2.7625,-2.7625,-2.7625,-2.6363,-2.4582,-2.2244,0.0,0.0,0.0,0.0,0.0,0.0,0.0,0.0,0.0,0.0,0.0,0.0,0.0,0.0,0.0,0.0,0.0,0.0,0.0,0.0,0.0,0.0,0.0,0.0,0.0,0.0,0.0,0.0,0.0,0.0,0.0,0.0,0.0,0.0,0.0,0.0,0.0,0.0,0.0,0.0,0.0,0.0,0.0,0.0,0.0,0.0,0.0,0.0,0.0,0.0,0.0,0.0,0.0,0.0,0.0,0.0,0.0,0.0,0.0,0.0,0.0,0.0,0.0,0.0,0.0,0.0,0.0,0.0,0.0,0.0,0.0,0.0,0.0,0.0,0.0,0.0,0.0,0.0,0.0,0.0,0.0,0.0,0.0,0.0,0.0,0.0,0.0,0.0,0.0,0.0,0.0,0.0,0.0,0.0,0.0,0.0,0.0,0.0,0.0,0.0,0.0,0.0,-2.2919,-2.4714,-2.6183,-2.749,-2.7625,-2.7625,-2.7625,-2.6422,-2.4972,-2.33,0.0,0.0,0.0,0.0,0.0,0.0,0.0,0.0,0.0,0.0,0.0,0.0,0.0,0.0,0.0,0.0,0.0,0.0,0.0,0.0,0.0,0.0,0.0,0.0,0.0,0.0,0.0,0.0,0.0,0.0,0.0,0.0,0.0,0.0,0.0,0.0,0.0,0.0,0.0,0.0,0.0,0.0,0.0,0.0,0.0,0.0,0.0,0.0,0.0,0.0,0.0,0.0,0.0,0.0,0.0,0.0,0.0,0.0,0.0,0.0,-2.3115,0.0,0.0,0.0,0.0,0.0,0.0,0.0,0.0,0.0,0.0,0.0,0.0,0.0,0.0,0.0,0.0,0.0,0.0,0.0,0.0,0.0,0.0,0.0,0.0,0.0,0.0,0.0,0.0,0.0,0.0,0.0,0.0,0.0,0.0,0.0,0.0,0.0,0.0,0.0,0.0,0.0,-2.3052,-2.5163,-2.6692,-2.7535,-2.7625,-2.7625,-2.7625,-2.6841,-2.5711,-2.4085,-2.1596,0.0,0.0,0.0,0.0,0.0,0.0,0.0,0.0,0.0,0.0,0.0,0.0,0.0,0.0,0.0,0.0,0.0,0.0,0.0,0.0,0.0,0.0,0.0,0.0,0.0,0.0,0.0,0.0,0.0,0.0,0.0,0.0,0.0,0.0,0.0,0.0,0.0,0.0,0.0,0.0,0.0,0.0,0.0,0.0,0.0,0.0,0.0,0.0,0.0,0.0,0.0,0.0,0.0,0.0,0.0,0.0,0.0,0.0,0.0,0.0,-2.5378,0.0,0.0,0.0,0.0,0.0,0.0,0.0,0.0,0.0,0.0,0.0,0.0,0.0,0.0,0.0,0.0,0.0,0.0,0.0,0.0,0.0,0.0,0.0,0.0,0.0,0.0,0.0,0.0,0.0,0.0,0.0,0.0,0.0,0.0,0.0,0.0,0.0,0.0,0.0,0.0,-2.314,-2.5282,-2.6841,-2.755,-2.7625,-2.7625,-2.7625,-2.6976,-2.6287,-2.5521,-2.3228,0.0,0.0,0.0,0.0,0.0,0.0,0.0,0.0,0.0,0.0,0.0,0.0,0.0,0.0,0.0,0.0,0.0,0.0,0.0,0.0,0.0,0.0,0.0,0.0,0.0,0.0,0.0,0.0,0.0,0.0,0.0,0.0,0.0,0.0,0.0,0.0,0.0,0.0,0.0,0.0,0.0,0.0,0.0,0.0,0.0,0.0,0.0,0.0,0.0,0.0,0.0,0.0,0.0,-3.0803,-3.1053,-3.1091,-3.1648,-3.2639,-3.3751,-3.1556,-3.0754,-3.0883,-2.8372,0.0,0.0,0.0,0.0,0.0,0.0,0.0,0.0,0.0,0.0,0.0,0.0,0.0,0.0,0.0,0.0,0.0,0.0,0.0,0.0,0.0,0.0,-2.6667,-2.81,-2.8826,-2.8081,-2.3975,0.0,0.0,0.0,0.0,0.0,0.0,0.0,0.0,0.0,0.0,0.0,-2.3613,-2.5751,-2.7319,-2.8032,-2.8052,-2.8026,-2.8026,-2.7421,-2.7071,-2.7198,-2.5155,-2.3415,0.0,0.0,0.0,0.0,0.0,0.0,0.0,0.0,0.0,0.0,0.0,0.0,0.0,0.0,0.0,0.0,0.0,0.0,0.0,0.0,0.0,0.0,0.0,0.0,0.0,0.0,0.0,0.0,0.0,0.0,0.0,0.0,-2.2372,-2.3141,0.0,0.0,0.0,0.0,0.0,0.0,0.0,0.0,0.0,0.0,0.0,0.0,0.0,-3.1417,-3.0975,-3.4347,-3.5432,-3.4195,-3.6241,-3.697,-3.6501,-3.6697,-3.7295,-3.8179,-3.7826,0.0,-3.3238,-3.1653,0.0,0.0,0.0,0.0,0.0,0.0,0.0,0.0,0.0,0.0,0.0,0.0,0.0,0.0,0.0,0.0,0.0,0.0,0.0,0.0,0.0,0.0,-3.3439,-3.304,-3.3283,-3.3062,-3.1102,-2.7508,-2.4532,-2.4115,-2.2224,-2.0285,0.0,0.0,0.0,0.0,0.0,0.0,-2.4982,-2.7443,-2.9269,-2.9945,-2.9949,-2.9847,-2.9847,-2.9202,-2.8677,-2.8458,-2.728,-2.6118,-2.5106,-2.2996,0.0,0.0,0.0,0.0,0.0,0.0,0.0,0.0,0.0,0.0,0.0,0.0,0.0,0.0,0.0,0.0,0.0,0.0,0.0,0.0,0.0,0.0,0.0,0.0,0.0,0.0,0.0,0.0,0.0,-2.162,-2.3984,-2.3869,-2.4161,-2.4076,0.0,0.0,0.0,0.0,0.0,0.0,0.0,0.0,0.0,-3.2208,-3.4096,-3.5332,-3.5811,-3.8259,-3.9206,-3.8576,-3.9714,-4.0174,-3.9979,-4.0118,-4.0442,-4.0832,-4.0409,-3.9379,-3.7784,-3.5421,-3.3311,-3.138,0.0,0.0,0.0,0.0,-2.958,-2.9515,-3.1742,-3.2243,-3.1814,-3.1444,0.0,0.0,0.0,0.0,0.0,0.0,0.0,-3.0402,-3.1724,-3.3406,-3.4951,-3.5721,-3.6022,-3.5975,-3.528,-3.3156,-3.0522,-2.747,-2.6225,-2.4723,-2.1641,-2.2008,0.0,0.0,0.0,-2.5546,-2.6557,-2.8591,-3.0048,-3.0341,-3.0613,-3.0783,-3.0783,-3.0101,-2.9765,-2.9911,-2.8716,-2.7761,-2.7202,-2.5582,-2.3742,0.0,0.0,0.0,0.0,0.0,0.0,0.0,0.0,0.0,0.0,0.0,0.0,0.0,0.0,0.0,0.0,0.0,0.0,0.0,0.0,0.0,0.0,0.0,0.0,0.0,0.0,0.0,0.0,-2.37,-2.5598,-2.5182,-2.6595,-2.7022,0.0,0.0,0.0,0.0,0.0,0.0,-3.263,-3.3168,-3.4407,-3.6506,-3.7996,-3.9206,-4.01,-4.1524,-4.2054,-4.1707,-4.2132,-4.2361,-4.2473,-4.2677,-4.277,-4.2844,-4.2303,-4.2066,-4.183,-3.8552,-3.6273,-3.4718,-3.3328,-3.2172,-3.1484,-3.3027,-3.325,-3.3117,-3.581,-3.639,-3.5853,-3.5484,-3.498,-3.3946,-3.0858,0.0,0.0,0.0,0.0,-3.2738,-3.4502,-3.5345,-3.6074,-3.7686,-3.8103,-3.8053,-3.7819,-3.7268,-3.5525,-3.1193,-3.0336,-2.9121,-2.5393,-2.5943,0.0,0.0,0.0,-2.7999,-2.8488,-3.001,-3.1158,-3.1346,-3.1641,-3.1887,-3.1887,-3.1245,-3.0919,-3.1075,-3.0049,-2.9222,-2.8671,-2.7843,-2.6341,-2.417,0.0,0.0,0.0,0.0,0.0,0.0,0.0,0.0,0.0,0.0,0.0,0.0,0.0,0.0,0.0,0.0,0.0,0.0,0.0,0.0,0.0,0.0,0.0,0.0,0.0,0.0,0.0,0.0,0.0,-2.9052,-3.0929,0.0,0.0,0.0,0.0,-3.1658,-3.3227,-3.4796,-3.6279,-3.8003,-3.957,-4.1044,-4.2518,-4.2999,-4.2369,-4.3794,-4.3827,-4.2469,-4.3473,-4.398,-4.3997,-4.4339,-4.4468,-4.4451,-4.4434,-4.4401,-4.4113,-4.0409,-3.8364,-3.741,-3.6653,-3.5786,-3.5124,-3.6068,-3.6273,-3.6326,-3.7295,-3.7612,-3.7696,-3.8336,-3.7172,-3.5295,-3.4568,-3.3649,0.0,0.0,-3.5226,-3.648,-3.7986,-3.8355,-3.8623,-3.9393,-3.968,-3.9547,-3.869,-3.8234,-3.7549,-3.6233,-3.4234,-3.2315,-3.1063,0.0,-2.8579,-2.8056,-2.8653,-2.964,-3.0844,-3.216,-3.321,-3.3856,-3.376,-3.3677,-3.3677,-3.3015,-3.2304,-3.1626,-3.151,-3.0815,-2.9417,-2.9277,-2.8063,-2.5529,-2.4151,0.0,0.0,0.0,0.0,0.0,0.0,0.0,0.0,0.0,0.0,0.0,0.0,0.0,0.0,0.0,0.0,0.0,0.0,0.0,0.0,0.0,0.0,0.0,0.0,0.0,0.0,0.0,0.0,-3.2029,-3.3728,0.0,-3.2754,-3.3794,-3.4869,-3.5626,-3.7686,-3.9335,-4.0334,-4.0984,-4.1591,-4.2104,-4.2634,-4.2783,-4.2518,-4.3512,-4.3744,-4.323,-4.3748,-4.3998,-4.4097,-4.4327,-4.4497,-4.4553,-4.4045,-4.4113,-4.4434,-4.2608,-4.1625,-4.1304,-4.0561,-3.9767,-3.9142,-3.9479,-3.921,-3.8839,-3.9158,-3.9243,-3.9294,-3.9547,-3.877,-3.7691,-3.753,-3.7208,-3.6969,-3.7379,-3.8117,-3.8906,-3.9446,-3.9548,-3.9598,-3.9919,-3.9969,-3.9952,-3.9649,-3.948,-3.9261,-3.884,-3.6902,-3.4789,-3.3031,-3.3189,-3.3001,-3.1198,-3.2111,-3.309,-3.3176,-3.3877,-3.4295,-3.4117,-3.4364,-3.4502,-3.4502,-3.3392,-3.2625,-3.2453,-3.148,-3.0675,-3.0227,-3.017,-2.9237,-2.7443,-2.6455,-2.4144,0.0,0.0,0.0,0.0,0.0,0.0,0.0,0.0,0.0,0.0,0.0,0.0,0.0,0.0,0.0,0.0,0.0,0.0,0.0,0.0,0.0,0.0,0.0,0.0,0.0,0.0,-3.3877,-3.4728,-3.6669,-3.7494,-3.6268,-3.7887,-3.9223,-3.9714,-4.1335,-4.2699,-4.339,-4.3306,-4.3479,-4.3976,-4.3992,-4.3992,-4.3992,-4.4782,-4.5031,-4.4799,-4.5307,-4.5604,-4.5706,-4.5555,-4.5571,-4.5669,-4.4891,-4.484,-4.5263,-4.4502,-4.4198,-4.4096,-4.3064,-4.2219,-4.1576,-4.1576,-4.1255,-4.0798,-4.0544,-4.029,-4.007,-4.007,-3.9749,-3.936,-3.936,-3.936,-3.9411,-3.9665,-4.0087,-4.046,-4.046,-4.046,-4.0392,-4.0138,-4.007,-4.007,-4.007,-4.007,-4.007,-4.007,-3.8639,-3.6936,-3.5447,-3.5957,-3.5992,-3.4248,-3.5031,-3.5649,-3.5267,-3.5529,-3.5491,-3.484,-3.507,-3.5164,-3.4916,-3.3773,-3.3006,-3.2896,-3.1613,-3.0717,-3.0342,-3.0186,-2.9466,-2.808,-2.7048,-2.5106,-2.2117,0.0,0.0,0.0,0.0,0.0,0.0,0.0,0.0,0.0,0.0,0.0,0.0,0.0,0.0,0.0,0.0,0.0,0.0,0.0,0.0,0.0,0.0,0.0,-3.2718,-3.4567,-3.6317,-3.7271,-3.9932,-4.1456,-4.0786,-4.2621,-4.3885,-4.3885,-4.4164,-4.4639,-4.5362,-4.504,-4.5462,-4.6858,-4.6955,-4.6891,-4.6891,-4.7797,-4.7894,-4.7228,-4.8308,-4.8769,-4.8719,-4.8196,-4.7902,-4.7851,-4.7107,-4.6802,-4.6769,-4.6041,-4.5737,-4.5585,-4.4062,-4.2997,-4.232,-4.232,-4.2303,-4.2185,-4.1474,-4.0764,-4.0138,-4.0121,-4.0155,-4.0155,-4.0138,-4.0121,-4.0273,-4.1018,-4.1222,-4.1222,-4.1222,-4.1222,-4.0984,-4.029,-4.0121,-4.007,-4.007,-4.007,-4.007,-4.007,-3.9396,-3.8807,-3.8673,-3.792,-3.7353,-3.7168,-3.7168,0.0,-3.7152,-3.7135,-3.6854,-3.6108,-3.6009,-3.5711,-3.4998,-3.4203,-3.352,-3.2912,-3.2044,-3.0983,-2.9709,-2.9506,-2.8787,-2.7433,-2.5955,-2.4726,-2.3716,0.0,0.0,0.0,0.0,0.0,0.0,0.0,0.0,0.0,0.0,0.0,0.0,0.0,0.0,0.0,0.0,0.0,0.0,0.0,0.0,0.0,0.0,-3.7113,-3.6457,-3.7982,-3.9922,-4.1834,-4.3271,-4.4073,-4.3864,-4.5078,-4.5908,-4.5908,-4.6674,-4.7265,-4.7469,-4.7369,-4.7335,-4.7407,-4.753,-4.7485,-4.7145,-4.7988,-4.8319,-4.8136,-4.8463,-4.8404,-4.8023,-4.7821,-4.7494,-4.709,-4.6887,-4.7107,-4.7547,-4.6802,-4.6498,-4.6346,-4.484,-4.3792,-4.3115,-4.3115,-4.276,-4.2252,-4.2066,-4.1847,-4.1593,-4.1068,-4.112,-4.1332,-4.0783,-4.0832,-4.1174,-4.1337,-4.1406,-4.1406,-4.1406,-4.116,-4.0886,-4.068,-4.0353,-4.007,-4.007,-4.007,-4.007,-4.007,-3.9918,-3.9682,-3.9547,-3.9328,-3.9091,-3.8885,-3.885,-3.8598,-3.798,-3.7914,-3.7632,-3.6887,-3.6324,-3.5926,-3.5711,-3.4038,-3.2956,-3.2879,-3.1065,-3.0352,-3.1175,-3.0535,-3.0029,-2.9632,-2.8207,-2.697,0.0,0.0,0.0,0.0,0.0,0.0,0.0,0.0,0.0,0.0,0.0,0.0,0.0,0.0,0.0,0.0,0.0,0.0,0.0,0.0,0.0,0.0,-3.8279,-4.0211,-4.0779,-4.1445,-4.2658,-4.4641,-4.5291,-4.5835,-4.6502,-4.7248,-4.7659,-4.7659,-4.8065,-4.8548,-4.9197,-4.9,-4.8728,-4.8624,-4.8765,-4.8641,-4.8189,-4.8815,-4.9248,-4.955,-4.9597,-4.9443,-4.9164,-4.8844,-4.8517,-4.8156,-4.7851,-4.8133,-4.8711,-4.7943,-4.7792,0.0,0.0,0.0,0.0,0.0,-4.3888,-4.3442,-4.3442,-4.3442,-4.3373,-4.2565,-4.276,-4.3106,-4.234,-4.2282,-4.2509,-4.2464,-4.2464,-4.2394,-4.2061,-4.1765,-4.1418,-4.0918,-4.058,-4.0353,-4.0121,-4.007,-4.007,-4.007,-4.007,0.0,-3.9986,-3.9952,-3.9849,-3.9642,-3.9554,-3.9299,-3.8814,-3.8712,-3.8377,-3.7649,-3.7185,-3.6804,-3.6489,-3.4717,0.0,0.0,0.0,-3.1082,-3.1689,-3.0907,0.0,0.0,0.0,0.0,0.0,0.0,0.0,0.0,-2.7721,-2.7685,0.0,0.0,0.0,0.0,0.0,0.0,0.0,0.0,0.0,0.0,0.0,0.0,0.0,0.0,0.0,0.0,-4.0499,-4.2886,-4.5045,-4.4817,-4.4904,-4.6204,-4.652,-4.7169,-4.8591,-4.9044,-4.9222,-4.9309,-4.8936,-4.9306,-5.0738,0.0,0.0,0.0,0.0,-5.0067,-4.967,-4.99,-5.045,-5.1174,-5.1288,-5.1336,-5.1319,-5.0642,-5.0287,-5.0185,-4.9588,-4.971,-5.0172,-4.9452,-4.9391,-4.9468,-4.6876,-4.5439,-4.4814,-4.5232,-4.5281,-4.5098,-4.5098,0.0,0.0,-4.4296,-4.4607,-4.5147,-4.4265,-4.4071,-4.417,-4.4019,-4.3955,-4.3797,-4.3092,-4.2801,-4.2437,-4.136,-4.0948,-4.0676,-4.0254,-4.0121,-4.007,-4.007,-4.007,-4.007,-4.007,-3.9986,-3.9901,-3.9729,-3.959,-3.9501,-3.9501,-3.9379,-3.9023,-3.8394,-3.8261,0.0,-3.7284,-3.5876,-3.5063,-3.5174,-3.3881,-3.2729,-3.2017,-3.152,-3.152,-3.2056,-3.2116,-3.2762,-3.4038,-3.47,-3.5065,-3.5048,-3.0405,-2.9608,0.0,0.0,0.0,0.0,0.0,0.0,0.0,0.0,0.0,0.0,0.0,0.0,0.0,0.0,0.0,-4.1601,-4.3891,-4.5712,-4.68,-4.7345,-4.7503,-4.7204,-4.8257,-4.9135,-4.9451,-5.0135,-5.0799,-5.1395,-5.1319,-5.1497,-5.1999,-5.1931,-5.1284,-5.0114,-5.0818,-5.0746,-4.9833,-5.0598,-5.1305,-5.2031,0.0,0.0,-5.208,-5.1944,-5.1555,-5.098,-5.1422,-5.1641,-5.1768,-5.1507,-5.0715,-4.9521,-4.7683,-4.6515,-4.5817,-4.5918,-4.5912,-4.5888,-4.5888,-4.5888,-4.5765,-4.5058,-4.5605,-4.6272,-4.4911,-4.519,0.0,-4.5209,-4.5011,-4.4975,-4.4831,-4.4002,-4.317,-4.2967,-4.1821,-4.0754,-4.0659,-4.0353,-4.007,-4.007,-4.007,-4.007,-4.007,-4.0087,-4.0037,-3.9901,-3.9746,-3.9642,-3.9484,-3.9379,-3.9222,-3.9073,-3.8543,-3.8146,-3.8013,-3.6638,-3.5794,-3.5842,-3.5512,-3.5032,-3.4286,-3.528,-3.5611,-3.5164,-3.5164,-3.5297,-3.5578,-3.5727,-3.6092,-3.6655,-3.5646,-3.5169,0.0,0.0,0.0,0.0,0.0,0.0,0.0,0.0,0.0,0.0,0.0,-3.6043,0.0,0.0,-4.2172,-4.4493,-4.5927,-4.7081,-4.7854,-4.8608,-4.896,-4.8573,-4.9223,-4.9837,-5.0241,-5.0996,-5.161,-5.1979,-5.2014,-5.2283,-5.2926,-5.3015,-5.2476,-5.1379,-5.2184,-5.2166,-5.1105,-5.1877,-5.2252,-5.23,-5.2673,-5.2422,-5.1758,-5.2047,-5.2033,-5.1708,-5.277,-5.3341,-5.3651,-5.3922,-5.3062,-5.1647,-5.0812,-4.9381,-4.7665,-4.7245,-4.7246,-4.7444,-4.7051,-4.7158,-4.7372,-4.6587,-4.7053,-4.7769,-4.6978,-4.6934,-4.7029,-4.6613,-4.6214,-4.5816,-4.5399,-4.4822,-4.4294,-4.4067,-4.3014,-4.2051,-4.1806,-4.1232,-4.0737,-4.0483,-4.0434,-4.0402,-4.0121,-4.007,-4.0037,-3.9901,-3.9781,-3.9625,-3.9501,-3.9379,-3.9272,-3.9272,-3.8957,-3.8742,-3.8742,-3.7748,-3.6953,-3.6572,-3.6555,-3.639,-3.6025,-3.6721,-3.6936,-3.6555,-3.6555,-3.6738,-3.7102,-3.7102,-3.7483,-3.8195,-3.8195,-3.7814,0.0,0.0,0.0,0.0,0.0,0.0,0.0,0.0,-3.4088,-3.7411,-3.8736,-4.0211,-4.2917,-4.4316,-4.545,-4.682,-4.7527,-4.8047,-4.8695,-4.9521,-5.0013,-5.0013,-4.9961,-5.0171,-5.0838,-5.1575,-5.2014,-5.2014,-5.235,-5.2886,-5.3618,-5.3904,-5.3669,-5.2914,-5.3492,-5.3393,-5.2435,-5.286,-5.2883,-5.2479,-5.2912,-5.2672,-5.1817,-5.2197,-5.2356,-5.2554,-5.3672,-5.4504,-5.5079,-5.5577,-5.4961,-5.3693,-5.3693,-5.2137,-4.9811,-4.9041,-4.9019,-4.9238,-4.8279,-4.8369,-4.8786,-4.7971,-4.8261,-4.8894,-4.8731,-4.8442,-4.8134,-4.7989,-4.7482,-4.683,-4.6178,-4.5761,-4.5445,-4.5078,-4.4282,-4.3522,-4.3156,-4.2361,-4.162,-4.1244,-4.1,-4.0659,-4.0303,-4.0171,-4.007,-3.9952,-3.9781,-3.9677,-3.9537,-3.9379,-3.9272,-3.9272,-3.9325,-3.9325,-3.9325,-3.8742,-3.8162,-3.7566,-3.7533,-3.7533,-3.7533,-3.7533,-3.7533,-3.7533,-3.7533,-3.7831,-3.8411,-3.8411,-3.8709,-3.9272,-3.9272,-3.8974,-2.9035,-3.0773,0.0,-3.3934,-3.395,-3.5084,0.0,0.0,-4.0131,-4.3929,-4.4975,-4.5731,-4.724,-4.7593,-4.7891,-4.8537,-4.908,-4.9556,-4.9884,-5.0592,-5.1105,-5.1105,-5.0911,-5.0785,-5.0873,-5.1575,-5.2014,-5.2014,-5.3558,-5.4347,-5.3975,-5.488,-5.4916,-5.3869,-5.3922,-5.3672,-5.3041,-5.2535,-5.2597,-5.3163,-5.2673,-5.2963,-5.3989,-5.3363,-5.3437,-5.3935,-5.3955,-5.4325,-5.4918,-5.4985,-5.4508,-5.3693,-5.3693,-5.3049,-5.2025,-5.1212,-5.0968,-5.0814,-4.9293,-4.884,-4.8786,-4.7971,-4.8261,-4.8786,-4.8061,-4.8768,-4.9673,-4.8985,-4.8713,-4.8623,-4.8532,-4.7446,-4.6359,-4.6277,-4.5336,-4.4446,-4.4403,-4.3439,-4.2562,-4.2472,-4.1563,-4.0802,-4.0707,-4.0402,-4.007,-4.0087,-3.9884,-3.9677,-3.9677,-3.9484,-3.9272,-3.9272,-3.9395,-3.9501,-3.9501,-3.9312,-3.9123,-3.904,-3.9023,-3.9023,-3.9023,-3.9023,-3.9023,-3.9023,-3.9023,-3.9073,-3.9156,-3.9156,-3.9206,-3.9272,-3.9272,-3.9239,-3.3935,0.0,0.0,0.0,-3.836,-3.9483,-4.2203,-4.288,-4.3642,-4.6209,-4.7299,-4.807,-4.9118,-4.9539,-4.9811,0.0,-5.0524,-5.087,-5.104,-5.0934,-5.0845,-5.0845,-5.0761,-5.0733,-5.0892,-5.2271,-5.3104,-5.2958,-5.424,-5.4973,-5.495,-5.5359,-5.5325,-5.4634,-5.508,-5.504,-5.4459,-5.4517,-5.4157,-5.3287,-5.3798,-5.3652,-5.3124,-5.3492,-5.3989,-5.4579,-5.4514,-5.4657,-5.4907,-5.4907,-5.4707,-5.4399,-5.4399,-5.42,-5.3748,-5.2462,-5.1701,-5.1194,-5.0524,-4.9999,-4.9474,-4.8677,-4.8641,-4.8858,-4.8514,-4.855,-4.8822,-4.9438,-4.9275,-4.8912,-4.8912,-4.8405,-4.779,-4.7319,-4.6452,-4.5732,-4.5732,-4.4899,-4.3971,-4.3251,-4.2679,-4.2043,-4.1169,-4.0659,-4.0336,-4.0238,-3.9935,-3.9625,-3.9484,-3.9379,-3.9272,-3.9272,-3.9325,-3.9379,-3.9379,-3.9325,-3.9325,-3.9379,-3.9325,-3.9342,-3.9379,-3.9325,-3.9272,-3.9272,-3.9272,-3.9272,-3.9272,-3.9272,-3.9272,-3.9272,-3.9272,-3.9272,-3.6677,0.0,0.0,-4.0477,-4.2074,-4.3238,-4.3942,-4.4946,-4.6206,-4.7811,-4.8735,-4.9376,-4.9892,-5.0317,0.0,-5.0767,-5.1142,-5.149,-5.1754,-5.1111,-5.061,-5.061,-5.0462,-5.0495,-5.0735,-5.2554,-5.3584,-5.3442,-5.4563,-5.5382,-5.559,-5.589,-5.5947,-5.5668,-5.6224,-5.6366,-5.5904,-5.6128,-5.5564,-5.4129,-5.4868,-5.4585,-5.3334,-5.4189,-5.4669,-5.4907,-5.4907,-5.478,-5.4581,-5.4581,-5.4454,-5.4237,-5.4237,-5.4237,-5.4128,-5.3186,-5.2589,-5.219,-5.152,-5.1049,-5.0578,-4.9564,-4.9094,-4.8912,-4.8912,-4.8496,-4.8279,-4.9438,-4.9347,-4.8912,-4.8912,-4.8749,-4.8442,-4.7844,-4.7265,-4.683,-4.683,-4.6196,-4.5373,-4.4432,-4.396,-4.3294,-4.1963,-4.1424,-4.0978,-4.0355,-4.002,-3.9764,-3.9379,-3.9325,-3.9325,-3.9432,-3.9379,-3.9379,-3.9484,-3.9432,-3.9432,-3.9537,-3.9484,-3.9432,-3.9501,-3.9395,-3.9325,-3.9272,-3.9272,-3.9272,-3.9272,-3.9272,-3.9272,-3.9272,-3.9272,-3.9272,0.0,0.0,-4.1161,-4.3252,-4.434,-4.5588,-4.8103,-4.8127,-4.8079,-4.9691,-5.0035,-5.0009,-4.9757,-4.9729,-4.9905,-5.0436,-5.053,-5.0914,-5.1928,-5.1401,-5.0897,-5.0897,-5.0444,-5.0208,0.0,-5.1907,-5.2886,-5.2921,-5.4591,-5.559,-5.5623,-5.6566,-5.7152,-5.7152,-5.7188,-5.7138,-5.7138,-5.6582,-5.6239,-5.6221,-5.5641,-5.5698,-5.615,-5.6031,-5.5577,-5.4907,-5.4907,-5.4472,-5.3748,-5.3748,-5.3277,-5.257,-5.257,-5.257,-5.2661,-5.3385,-5.4146,-5.4472,-5.21,-5.1792,-5.2172,-5.056,-4.9546,-4.8912,-4.8912,-4.8894,-4.8894,-4.8931,-4.8931,-4.8912,-4.8912,-4.8333,-4.7735,-4.7717,-4.7681,-4.7663,-4.7663,-4.7029,-4.645,-4.639,-4.539,-4.4242,-4.32,-4.282,-4.2039,-4.0373,-4.0286,-4.017,-3.959,-3.9379,-3.9379,-3.9677,-3.959,-3.959,-3.9849,-3.9781,-3.9677,-3.9677,-3.9677,-3.9642,-3.9501,-3.9501,-3.9432,-3.9272,-3.9272,-3.9272,-3.9272,-3.9272,-3.9272,-3.9272,-3.9272,-3.9272,0.0,0.0,-4.2399,-4.5003,-4.6223,-4.7018,-4.7892,-4.8713,-4.9293,-4.9311,-4.9311,-4.9267,-4.9179,-4.9161,-4.937,-5.0118,-5.0695,-5.1326,-5.2232,-5.2105,-5.1545,-5.0525,-5.1149,0.0,0.0,0.0,0.0,-5.3889,-5.5166,-5.6129,-5.6653,-5.6993,-5.7188,-5.7188,-5.7188,-5.7188,-5.7188,-5.6984,-5.6706,-5.6311,-5.6073,-5.6294,-5.6897,-5.6816,-5.6373,-5.5631,-5.5631,-5.5196,-5.4454,-5.3929,-5.3548,-5.3241,-5.2715,-5.2498,-5.2516,-5.2806,-5.3403,-5.4055,-5.3784,-5.3168,-5.2408,-5.1864,-5.114,-5.0397,-4.9854,-4.9329,-4.9021,-4.9546,-4.9311,-4.8912,-4.8912,-4.8713,-4.8369,-4.7844,-4.7717,-4.7717,-4.7717,-4.75,-4.7156,-4.6613,-4.6145,-4.5528,-4.451,-4.3517,-4.2184,-4.0239,-3.9816,-3.9609,-3.9379,-3.9325,-3.9325,-3.9415,-3.9484,-3.9554,-3.9659,-3.9677,-3.9729,-3.9849,-3.9729,-3.9729,-3.9746,-3.9694,-3.9625,-3.9573,-3.959,-3.959,-3.959,-3.9484,-3.9432,-3.9432,-3.9325,-3.9734,0.0,-4.2629,-4.3642,-4.6946,-4.7735,-4.7935,-4.8786,-4.9112,-4.9094,-4.8586,-4.8025,-4.7627,-4.7627,-4.7391,-4.7735,-4.9401,-5.0108,-5.1013,-5.2679,-5.2426,-5.19,-5.143,-5.1774,-5.1882,0.0,0.0,0.0,-5.4138,-5.5315,-5.6228,-5.6736,-5.7043,-5.7188,-5.7188,-5.7188,-5.7188,-5.7188,-5.7188,-5.7036,-5.6635,-5.6635,-5.6811,-5.7188,-5.7188,-5.6917,-5.6428,-5.6428,-5.5993,-5.5251,-5.4744,-5.42,-5.3657,-5.3132,-5.2752,-5.2498,-5.2498,-5.2824,-5.3385,-5.42,-5.3983,-5.3313,-5.3023,-5.2371,-5.1574,-5.076,-4.9963,-4.9383,-4.9601,-4.9311,-4.884,-4.8568,-4.8478,-4.8351,-4.7826,-4.7717,-4.7717,-4.7717,-4.7717,-4.7554,-4.7029,-4.6939,-4.6584,-4.5479,-4.4121,-4.2695,-4.1302,-4.0527,-3.9962,-3.9412,-3.9432,-3.9484,-3.9537,-3.959,-3.9642,-3.9694,-3.9781,-3.9884,-3.9952,-3.9884,-3.9884,-3.9901,-3.9833,-3.9729,-3.9677,-3.9677,-3.9764,-3.9952,-3.985,-3.9901,-4.0087,-4.0051,-4.0577,-4.2375,-4.3516,-4.5142,-4.905,-4.8912,-4.8405,-5.056,-4.9311,-4.7663,-4.75,-4.6214,-4.5091,0.0,0.0,-4.5073,-4.8224,-4.8858,-5.0071,-5.3259,-5.2426,-5.2027,0.0,0.0,0.0,0.0,0.0,0.0,-5.3766,0.0,-5.6011,-5.6047,-5.679,-5.7188,-5.7188,-5.7188,-5.7188,-5.7188,-5.7188,-5.7188,-5.7188,-5.7188,-5.7188,-5.7188,-5.7188,-5.7188,-5.7188,-5.7188,-5.6772,-5.6047,-5.6011,-5.5142,-5.3802,-5.3729,-5.3222,-5.2552,-5.2516,-5.2498,-5.2625,-5.3422,-5.42,-5.4725,-5.4001,-5.3222,-5.2426,-5.1647,-5.0814,-4.9981,-4.9257,-4.8967,-4.8731,-4.7971,-4.7735,-4.7717,-4.7717,-4.7717,-4.7717,-4.7717,-4.7717,-4.7717,-4.7717,-4.7717,-4.7319,-4.6042,-4.4675,-4.3669,-4.3304,-4.237,-4.1171,-3.9742,-3.9642,-3.9729,-3.9901,-3.9901,-3.9935,-4.0087,-4.0087,-4.007,-4.007,-4.007,-4.0037,-3.9901,-3.9901,-3.9833,-3.9729,-3.9729,-3.9952,-4.04,-4.04,-4.0689,-4.1111,-4.1381,-4.1825,-4.4803,-4.6715,-4.8397,-4.905,-4.9347,-4.9166,-4.7989,-4.7717,-4.7029,-4.4621,-4.3335,-4.2285,-4.1107,0.0,0.0,-4.5888,-4.8224,0.0,-5.3331,-5.3856,0.0,0.0,0.0,-5.4508,-5.3766,-5.4744,0.0,0.0,-5.5468,-5.6247,-5.6862,-5.708,-5.7188,-5.7188,-5.7188,-5.7188,-5.7188,-5.7188,-5.7188,-5.7188,-5.7188,-5.7188,-5.7188,-5.7188,-5.7188,-5.7188,-5.7188,-5.708,-5.6844,-5.6247,-5.5758,-5.5287,-5.4146,-5.3566,-5.3313,-5.2715,-5.2498,-5.2625,-5.3422,-5.3838,-5.4074,-5.4472,-5.4055,-5.3367,-5.315,-5.21,-5.0941,-5.0741,-4.9836,-4.8858,-4.8659,-4.817,-4.7717,-4.7717,-4.7717,-4.7717,-4.7717,-4.7717,-4.7717,-4.7717,-4.7717,-4.7319,-4.6042,-4.5237,-4.4583,-4.3961,-4.3284,-4.2236,-4.039,-3.9918,-3.9729,-3.9729,-3.9849,-3.9901,-3.9935,-4.0037,-4.007,-4.007,-4.007,-4.007,-4.0037,-4.0037,-4.0037,-3.9986,-3.9986,-4.0204,-4.0707,-4.0594,-4.0868,-4.1564,-4.1507,-4.2343,-4.6501,-4.8341,-4.9785,-4.9484,-4.9238,-4.8514,-4.645,-4.5508,-4.4277,-4.1415,-4.0202,0.0,0.0,0.0,0.0,0.0,0.0,0.0,-5.3259,-5.4092,-5.4599,0.0,-5.5685,0.0,-5.5287,-5.6011,-5.6355,0.0,-5.6283,-5.6573,-5.6663,-5.7007,-5.7188,-5.7188,-5.7188,-5.7188,-5.7188,-5.7188,-5.7188,-5.7188,-5.7188,-5.7188,-5.7188,-5.7188,-5.7188,-5.7188,0.0,-5.7188,-5.7152,-5.6699,-5.6319,-5.5903,-5.5051,-5.4291,-5.3657,-5.3186,-5.2806,-5.2552,-5.3023,-5.3403,-5.3838,-5.4653,-5.4599,-5.4164,-5.3802,-5.3078,-5.2208,-5.1484,-5.0651,-4.98,-4.9094,-4.8586,-4.8152,-4.779,-4.7717,-4.7717,-4.7717,-4.7717,-4.7717,-4.7717,-4.7615,-4.7324,-4.6744,-4.6266,-4.58,-4.5257,-4.4604,-4.3745,-4.2428,-4.1346,-4.0527,-3.9969,-3.9935,-3.9986,-3.9986,-4.0037,-4.007,-4.007,-4.007,-4.007,-4.007,-4.007,-4.007,-4.007,-4.007,-4.0434,-4.1094,-4.1377,-4.1945,-4.2748,-4.2901,-4.3812,-4.7772,-4.9039,-5.009,-5.009,-4.8894,-4.7228,-4.5399,-4.3208,-4.0818,-3.8246,0.0,0.0,-3.5476,0.0,-3.9876,-4.2339,0.0,-4.8967,-5.2969,-5.3639,-5.4526,-5.6772,-5.6518,-5.6428,-5.7134,-5.7188,-5.7188,-5.7188,-5.7188,-5.6899,-5.6192,-5.6808,-5.7188,-5.7188,-5.7188,-5.7188,-5.7188,-5.7188,-5.7188,-5.7188,-5.7188,-5.7188,-5.7188,-5.7188,-5.7188,-5.7188,-5.7188,-5.7188,-5.7188,-5.7188,-5.679,-5.6138,-5.6029,-5.5124,-5.3856,-5.3748,-5.3186,-5.2498,-5.2452,-5.2904,-5.3693,-5.4599,-5.4907,-5.478,-5.4074,-5.3784,-5.3385,-5.1864,-5.1375,-5.0977,-4.9582,-4.9148,-4.8876,-4.8061,-4.788,-4.7844,-4.7735,-4.7717,-4.7699,-4.7657,-4.7511,-4.7407,-4.7615,-4.7294,-4.6928,-4.6693,-4.6086,-4.5445,-4.4839,-4.3127,-4.1601,-4.0475,-4.0189,-4.007,-4.007,-4.007,-4.007,-4.007,-4.007,-4.007,-4.007,-4.007,-4.0121,-4.0223,-4.0223,-4.072,-4.1708,-4.2464,-4.3296,-4.4205,-4.4741,-4.5569,-4.9275,-4.9872,-5.009,-5.009,-4.8894,-4.6939,-4.3987,-4.1959,0.0,0.0,0.0,-3.3773,-3.2977,-3.5331,0.0,-4.1433,0.0,0.0,0.0,0.0,-5.4327,0.0,0.0,0.0,0.0,0.0,0.0,0.0,0.0,-5.7134,-5.6989,-5.7116,-5.7188,-5.7188,-5.7188,-5.7188,-5.7188,-5.7188,-5.7188,-5.7188,-5.7188,-5.7188,-5.7188,-5.7188,-5.7188,-5.7188,-5.7188,0.0,-5.7188,-5.7188,-5.7116,-5.6935,-5.6247,-5.545,-5.4617,-5.3947,-5.3186,-5.2452,-5.2246,-5.2401,-5.2951,-5.4418,-5.4907,-5.487,-5.4744,-5.4237,-5.3494,-5.2552,-5.181,-5.123,-5.0959,-5.0379,-4.9691,-4.8894,-4.8695,-4.8532,-4.7844,-4.7717,-4.7615,-4.7407,-4.7511,-4.7554,-4.7407,-4.732,-4.7327,-4.7476,-4.7209,-4.6623,-4.5712,-4.3489,-4.1905,-4.1719,-4.0728,-4.007,-4.007,-4.007,-4.007,-4.007,-4.007,-4.007,-4.007,-4.007,-4.0375,-4.1001,-4.1018,-4.158,-4.2745,-4.3301,-4.4032,-4.4788,-4.5301,-4.6025,-4.9148,-4.9764,-4.9981,-4.9582,-4.8279,-4.6033,-4.1995,0.0,0.0,0.0,0.0,-3.1781,-3.055,0.0,0.0,0.0,0.0,0.0,0.0,0.0,0.0,0.0,0.0,0.0,0.0,0.0,0.0,0.0,0.0,-5.7188,-5.7188,-5.7188,-5.7188,-5.7188,-5.7188,-5.7188,-5.7188,-5.7188,-5.7188,-5.7188,-5.7188,-5.7188,-5.7188,-5.7188,-5.7188,-5.7188,-5.7188,-5.7188,-5.7188,-5.7188,-5.7188,-5.7152,-5.6772,-5.5921,-5.4852,-5.4472,-5.3548,-5.2498,-5.234,-5.2387,-5.277,-5.4381,-5.4907,-5.4907,-5.4907,-5.4635,-5.4074,-5.2842,-5.2208,-5.1828,-5.1411,-5.0995,-5.0506,-4.9709,-4.9202,-4.8695,-4.788,-4.7717,-4.7657,-4.7511,-4.7615,-4.7657,-4.7511,-4.7407,-4.7407,-4.7657,-4.7468,-4.7176,-4.6823,-4.5143,-4.3553,-4.2469,-4.1834,-4.134,-4.1064,-4.0705,-4.0506,-4.0629,-4.029,-4.0221,-4.0434,-4.0595,-4.0968,-4.1544,-4.1715,-4.2313,-4.3436,-4.4078,-4.4887,-4.5731,-4.6141,-4.6686,-4.8442,-4.9112,-4.942,-4.8804,-4.7301,-4.4784,-4.0184,-3.7757,0.0,0.0,0.0,-3.0152,-2.9065,0.0,0.0,0.0,0.0,0.0,0.0,0.0,0.0,0.0,0.0,0.0,0.0,0.0,0.0,0.0,0.0,0.0,-5.7188,-5.7188,-5.7188,-5.7188,-5.7188,-5.7188,-5.7188,-5.7188,-5.7188,-5.7188,-5.7188,-5.7188,-5.7188,-5.7188,-5.7188,-5.7188,-5.7188,-5.7188,-5.7188,-5.7188,-5.7188,-5.7188,-5.7188,-5.6265,-5.4907,-5.4907,-5.3892,-5.2498,-5.2434,-5.2452,-5.277,-5.4333,-5.4858,-5.4943,-5.5088,-5.5033,-5.4599,-5.3168,-5.2625,-5.2353,-5.1719,-5.1556,-5.1303,-5.0325,-4.9492,-4.8695,-4.788,-4.7717,-4.7717,-4.7717,-4.7717,-4.7717,-4.7717,-4.7511,-4.7468,-4.7657,-4.7511,-4.7468,-4.7657,-4.6805,-4.5533,-4.3713,-4.319,-4.2765,-4.2196,-4.163,-4.1317,-4.1442,-4.0815,-4.0759,-4.1285,-4.1339,-4.1665,-4.2388,-4.2465,-4.2996,-4.399,-4.4826,-4.5645,-4.6428,-4.6864,-4.732,-4.7591,-4.7862,-4.7916,-4.7844,-4.6051,-4.3262,-3.9224,0.0,0.0,0.0,-2.9282,-2.9011,-2.9572,-3.0586,0.0,0.0,0.0,0.0,0.0,0.0,0.0,0.0,0.0,0.0,0.0,0.0,0.0,0.0,0.0,0.0,-5.7188,-5.7188,-5.7188,-5.7188,-5.7188,-5.7188,-5.7188,-5.7188,-5.7188,-5.7188,-5.7188,-5.7188,-5.7188,-5.7188,-5.7188,-5.7188,-5.7188,-5.7188,0.0,-5.7188,-5.7188,-5.7188,-5.7188,-5.6265,-5.4907,-5.4907,-5.3892,-5.2452,-5.2246,-5.2293,-5.2723,-5.4071,-5.4693,-5.5033,-5.5703,-5.5432,-5.4725,-5.3838,-5.3059,-5.248,-5.2408,-5.2389,-5.1991,-5.0452,-4.9492,-4.8695,-4.788,-4.7717,-4.7717,-4.7717,-4.7717,-4.7717,-4.7717,-4.7657,-4.7657,-4.7717,-4.7657,-4.7657,-4.7717,-4.7603,-4.7163,-4.6236,-4.4743,-4.357,-4.3039,-4.2938,-4.2688,-4.2238,-4.1902,-4.2063,-4.2869,-4.2201,-4.2511,-4.3958,-4.352,-4.3711,-4.4517,-4.5544,-4.6059,-4.6156,-4.7178,-4.7657,-4.6359,-4.6993,-4.6993,-4.6993,-4.5526,-4.2936,-3.8482,0.0,0.0,-2.9844,-2.883,-2.8721,-2.9029,-2.9735,-3.1274,0.0,-3.5783,-3.8174,0.0,0.0,0.0,0.0,0.0,0.0,0.0,0.0,0.0,0.0,0.0,0.0,-5.7188,-5.7188,-5.7188,-5.7188,-5.7188,-5.7188,-5.7188,-5.7188,-5.7188,-5.7188,-5.7188,-5.7188,-5.7188,-5.7188,-5.7188,-5.7188,-5.7188,-5.7188,0.0,-5.7188,-5.7188,-5.7188,-5.7188,-5.6265,-5.4907,-5.4907,-5.3892,-5.2498,-5.2387,-5.2387,-5.277,-5.4267,-5.4809,-5.5051,-5.5776,-5.5486,-5.4744,-5.3929,-5.3114,-5.2498,-5.2498,-5.2498,-5.2082,-5.047,-4.9854,-4.9275,-4.7989,-4.7717,-4.7717,-4.7717,-4.7717,-4.7717,-4.7717,-4.7717,-4.7717,-4.7717,-4.7717,-4.7717,-4.7717,-4.7717,-4.7591,-4.7265,-4.6176,-4.5267,-4.4735,-4.4265,-4.382,-4.3477,-4.2926,-4.2881,-4.3515,-4.3348,-4.386,-4.5082,-4.507,-4.5319,-4.5985,-4.6376,-4.6753,-4.7062,-4.7511,-4.7717,-4.4693,-4.578,-4.6087,-4.5852,-4.4584,-4.2212,0.0,0.0,-3.3176,-2.9365,-2.8587,-2.8587,-2.8587,-2.9065,-3.0242,-3.2651,-3.3918,-3.6182,-4.0727,0.0,0.0,0.0,0.0,0.0,0.0,0.0,0.0,0.0,0.0,0.0,-5.7188,-5.7188,-5.7188,-5.7188,-5.7188,-5.7188,-5.7188,-5.7188,-5.7188,-5.7188,-5.7188,-5.7188,-5.7188,-5.7188,-5.7188,-5.7188,-5.7188,-5.7188,0.0,-5.7188,-5.7188,-5.717,-5.6935,-5.6047,-5.487,-5.4635,-5.3675,-5.2498,-5.2498,-5.2498,-5.277,-5.4381,-5.4907,-5.5088,-5.6066,-5.5667,-5.478,-5.4218,-5.3295,-5.2498,-5.2498,-5.2498,-5.2154,-5.076,-5.0253,-4.9709,-4.8351,-4.788,-4.7717,-4.7717,-4.7717,-4.7717,-4.7717,-4.7717,-4.7717,-4.7717,-4.7717,-4.7717,-4.7717,-4.7717,-4.7717,-4.7717,-4.7192,-4.6621,-4.6114,-4.557,-4.5121,-4.4781,-4.4185,-4.4113,-4.4671,-4.4655,-4.5062,-4.6025,-4.6076,-4.631,-4.666,-4.6799,-4.7107,-4.7468,-4.7615,-4.7844,-4.2484,-4.4095,-4.5128,-4.4313,-4.2918,-4.0709,0.0,-3.457,-3.2506,-2.9282,-2.8587,-2.8587,-2.8587,-2.8605,-2.9409,-3.1818,-3.3556,-3.5983,-3.9967,0.0,0.0,0.0,0.0,0.0,0.0,0.0,0.0,0.0,0.0,0.0,-5.7188,-5.7188,-5.7188,-5.7188,-5.7188,-5.7188,-5.7188,-5.7188,-5.7188,-5.7188,-5.7188,-5.7188,-5.7188,-5.7188,-5.7188,-5.7188,-5.7188,-5.7188,0.0,-5.7188,-5.7188,-5.7116,-5.6319,-5.5558,-5.4798,-5.4019,-5.3204,-5.2498,-5.2498,-5.2498,-5.277,-5.4381,-5.4907,-5.5196,-5.6717,-5.612,-5.4907,-5.4907,-5.3729,-5.2498,-5.2498,-5.2498,-5.2299,-5.1466,-5.0669,-4.9872,-4.9075,-4.8279,-4.7717,-4.7717,-4.7717,-4.7717,-4.7717,-4.7717,-4.7717,-4.7717,-4.7717,-4.7717,-4.7717,-4.7717,-4.7717,-4.7717,-4.7699,-4.745,-4.6936,-4.689,-4.6642,-4.6098,-4.5804,-4.6007,-4.6837,-4.6096,-4.6043,-4.6873,-4.6358,-4.6098,-4.6098,-4.666,-4.6908,-4.6908,-4.745,-4.8134,-3.8264,-3.9623,-4.0238,-3.9441,-3.8844,-3.7576,-3.4135,-3.294,-3.1818,-2.9148,-2.8587,-2.8587,-2.8587,-2.8587,-2.9934,-3.4009,-3.5095,0.0,0.0,0.0,0.0,0.0,0.0,0.0,0.0,0.0,0.0,0.0,0.0,0.0,-5.7188,-5.7188,-5.7188,-5.7188,-5.7188,-5.7188,-5.7188,-5.7188,-5.7188,-5.7188,-5.7188,-5.7188,-5.7188,-5.7188,-5.7188,-5.7188,-5.7188,-5.7188,-5.7188,-5.7188,-5.7188,-5.7116,-5.6301,-5.554,-5.4798,-5.4001,-5.3186,-5.2498,-5.2498,-5.2498,-5.277,-5.4381,-5.4907,-5.5196,-5.6736,-5.612,-5.4671,-5.3566,-5.2878,-5.2498,-5.2498,-5.2498,-5.2299,-5.1484,-5.1104,-5.0542,-4.9202,-4.8713,-4.8369,-4.7826,-4.7717,-4.7717,-4.7717,-4.7717,-4.7717,-4.7717,-4.7717,-4.7717,-4.7717,-4.7717,-4.7717,-4.7717,-4.7717,-4.7615,-4.7468,-4.7468,-4.7214,-4.666,-4.6567,-4.6641,-4.689,-4.6676,-4.6793,-4.745,-4.7258,-4.7196,-4.7196,-4.7363,-4.7738,-4.8279,-4.8428,-4.8967,0.0,-3.6218,-3.6779,-3.6598,-3.6309,-3.5403,-3.2795,-3.1962,-3.1148,-2.9021,-2.8587,-2.8587,-2.8587,-2.8866,-3.0152,-3.3447,-3.5023,0.0,0.0,0.0,0.0,0.0,0.0,0.0,0.0,0.0,0.0,0.0,0.0,0.0,-5.7188,-5.7188,-5.7188,-5.7188,-5.7188,-5.7188,-5.7188,-5.7188,-5.7188,-5.7188,-5.7188,-5.7188,-5.7188,-5.7188,-5.7188,-5.7188,-5.7188,-5.7188,0.0,-5.7188,-5.7188,-5.708,-5.6011,-5.5305,-5.478,-5.3657,-5.2933,-5.2498,-5.2498,-5.2498,-5.277,-5.4381,-5.5287,-5.5848,-5.6228,-5.5667,-5.4562,-5.2951,-5.2498,-5.2498,-5.2498,-5.2498,-5.2371,-5.1864,-5.1502,-5.1031,-5.0017,-4.9582,-4.9112,-4.8315,-4.817,-4.8079,-4.7753,-4.7717,-4.7717,-4.7717,-4.7717,-4.7717,-4.7717,-4.7717,-4.7717,-4.7717,-4.7717,-4.7717,-4.7717,-4.7717,-4.7572,-4.7214,-4.7214,-4.7214,-4.7214,-4.7214,-4.7363,-4.7699,-4.7717,-4.7717,-4.7717,-4.8007,-4.8424,-4.8931,-4.922,-4.9782,0.0,-3.3429,-3.4262,-3.495,-3.4606,-3.3683,-3.2125,-3.1238,0.0,-2.883,-2.8496,-2.8569,-2.8804,-2.9373,-3.017,-3.1383,0.0,0.0,0.0,0.0,0.0,0.0,0.0,0.0,0.0,0.0,0.0,0.0,0.0,0.0,-5.7188,-5.7188,-5.7188,-5.7188,-5.7188,-5.7188,-5.7188,-5.7188,-5.7188,-5.7188,-5.7188,-5.7188,-5.7188,-5.7188,-5.7188,0.0,-5.7188,-5.7188,-5.7188,-5.7188,-5.7188,-5.7043,-5.5504,-5.4907,-5.4707,-5.3096,-5.2498,-5.2498,-5.2498,-5.2534,-5.2842,-5.4454,-5.5957,-5.6844,-5.5359,-5.4907,-5.4562,-5.2951,-5.2498,-5.2498,-5.2498,-5.2498,-5.2498,-5.2498,-5.1919,-5.1357,-5.1303,-5.0705,-4.9927,-4.9075,-4.8912,-4.8659,-4.7844,-4.7717,-4.7717,-4.7717,-4.7717,-4.7717,-4.7717,-4.7717,-4.7717,-4.7717,-4.7717,-4.7717,-4.7717,-4.7717,-4.7717,-4.7717,-4.7717,-4.7717,-4.7717,-4.7717,-4.7717,-4.7717,-4.7717,-4.7735,-4.7808,-4.855,-4.8967,-4.9094,-4.988,-5.0641,-2.6743,0.0,-2.8993,-2.8576,-2.8793,-2.883,0.0,-2.7942,-2.8141,0.0,0.0,0.0,0.0,0.0,0.0,0.0,0.0,0.0,0.0,0.0,0.0,0.0,0.0,0.0,0.0,0.0,0.0,0.0,0.0,-5.7188,-5.7188,-5.7188,-5.7188,-5.7188,-5.7188,-5.7188,-5.7188,-5.7188,-5.7188,-5.7188,-5.7188,-5.7188,-5.7188,-5.7188,-5.7188,-5.7188,-5.7188,-5.7188,-5.7188,-5.7188,-5.7188,-5.7043,-5.5504,-5.4907,-5.4707,-5.3096,-5.2498,-5.2498,-5.2498,-5.2896,-5.3675,-5.5233,-5.5975,-5.6102,-5.5178,-5.4907,-5.4562,-5.2951,-5.2498,-5.2498,-5.2498,-5.2498,-5.2498,-5.2498,-5.2353,-5.2045,-5.143,-5.114,-5.0597,-4.9184,-4.8912,-4.8659,-4.7844,-4.7717,-4.7717,-4.7717,-4.7717,-4.7717,-4.7717,-4.7717,-4.7717,-4.7717,-4.7717,-4.7717,-4.7717,-4.7717,-4.7717,-4.7717,-4.7717,-4.7717,-4.7717,-4.7717,-4.7717,-4.7717,-4.7717,-4.8007,-4.8641,-4.8908,-4.9676,-5.0893,-5.1126,-5.1679,-2.4838,-2.6502,-2.8093,-2.7973,-2.8324,-2.8634,-2.8438,0.0,0.0,0.0,0.0,0.0,0.0,0.0,0.0,0.0,0.0,0.0,0.0,0.0,0.0,0.0,0.0,0.0,0.0,0.0,0.0,0.0,0.0,-5.7188,-5.7188,-5.7188,-5.7188,-5.7188,-5.7188,-5.7188,-5.7188,-5.7188,-5.7188,-5.7188,-5.7188,-5.7188,-5.7188,-5.7188,-5.7188,-5.7188,-5.7188,-5.7188,-5.7188,-5.7188,-5.7188,-5.7043,-5.5504,-5.4907,-5.4707,-5.3096,-5.2498,-5.2552,-5.2915,-5.3802,-5.4834,-5.5323,-5.5721,-5.5776,-5.4689,-5.4345,-5.4092,-5.2842,-5.2498,-5.2498,-5.2498,-5.2498,-5.2498,-5.2498,-5.2498,-5.2371,-5.1937,-5.1846,-5.1484,-5.0253,-4.9999,-4.9637,-4.846,-4.8261,-4.8134,-4.7772,-4.7717,-4.7717,-4.7717,-4.7717,-4.7717,-4.7717,-4.7717,-4.7717,-4.7717,-4.7717,-4.7717,-4.7717,-4.7717,-4.7717,-4.7717,-4.7717,-4.7717,-4.7717,-4.8079,-4.8478,-4.8998,-4.9785,-5.0671,-5.157,-5.1941,-5.2386,-2.5054,-2.725,-2.9439,-2.9355,-2.9782,-3.0296,-3.049,0.0,0.0,0.0,0.0,0.0,0.0,0.0,0.0,0.0,0.0,0.0,0.0,0.0,0.0,0.0,0.0,0.0,0.0,0.0,0.0,0.0,0.0,-5.7188,-5.7188,-5.7188,-5.7188,-5.7188,-5.7188,-5.7188,-5.7188,-5.7188,-5.7188,-5.7188,-5.7188,-5.7188,-5.7188,-5.7188,-5.7188,-5.7188,-5.7188,0.0,-5.7188,-5.7188,-5.7188,-5.7043,-5.5504,-5.4907,-5.4725,-5.3222,-5.2679,-5.2806,-5.3729,-5.4907,-5.5884,-5.5269,-5.5414,-5.5558,-5.4128,-5.3603,-5.3367,-5.2679,-5.2498,-5.2498,-5.2498,-5.2498,-5.2498,-5.2498,-5.2498,-5.2498,-5.2498,-5.2498,-5.2263,-5.1448,-5.1285,-5.0778,-4.9184,-4.8912,-4.8641,-4.7826,-4.7717,-4.7717,-4.7717,-4.7717,-4.7717,-4.7717,-4.7717,-4.7717,-4.7717,-4.7717,-4.7717,-4.7717,-4.7717,-4.7717,-4.7717,-4.7717,-4.7717,-4.7717,-4.8496,-4.9053,-4.9307,-5.0817,-5.1624,-5.1846,-5.2539,-5.2868,-2.739,-2.972,-3.0686,-2.7156,-2.8394,-3.0113,0.0,0.0,0.0,0.0,0.0,0.0,0.0,0.0,0.0,0.0,0.0,0.0,0.0,0.0,0.0,0.0,0.0,0.0,0.0,0.0,0.0,0.0,0.0,-5.7188,-5.7188,-5.7188,-5.7188,-5.7188,-5.7188,-5.7188,-5.7188,-5.7188,-5.7188,-5.7188,-5.7188,-5.7188,-5.7188,-5.7188,-5.7188,-5.7188,0.0,-5.7188,-5.7188,-5.7188,-5.7188,-5.7043,-5.5504,-5.4907,-5.4798,-5.3856,-5.3512,-5.3711,-5.5142,-5.5794,-5.5975,-5.5866,-5.5486,-5.4907,-5.3983,-5.3222,-5.2661,-5.2516,-5.2498,-5.2498,-5.2498,-5.2498,-5.2498,-5.2498,-5.2498,-5.2498,-5.2498,-5.2498,-5.2263,-5.1448,-5.1285,-5.0778,-4.9184,-4.8912,-4.8641,-4.7826,-4.7717,-4.7717,-4.7717,-4.7717,-4.7717,-4.7717,-4.7717,-4.7717,-4.7717,-4.7717,-4.7717,-4.7717,-4.7717,-4.7717,-4.7717,-4.7717,-4.7759,-4.7861,-4.8641,-4.9452,-5.0192,-5.125,-5.2096,-5.2816,-5.3048,-5.3121,-2.6439,-2.8774,-3.0395,-2.8422,-3.0971,-3.3836,0.0,0.0,0.0,0.0,0.0,0.0,0.0,0.0,0.0,0.0,0.0,0.0,0.0,0.0,0.0,0.0,0.0,0.0,0.0,0.0,0.0,0.0,0.0,0.0,-5.7534,-5.7534,-5.7437,-5.7206,-5.7188,-5.7188,-5.7188,-5.7188,-5.7188,-5.7188,-5.7188,-5.7188,-5.7188,-5.7188,-5.7188,-5.7188,0.0,-5.7188,-5.7188,-5.7188,-5.6935,-5.6428,-5.5323,-5.4907,-5.487,-5.449,-5.4599,-5.4979,-5.5305,-5.5667,-5.5848,-5.5033,-5.4526,-5.411,-5.3295,-5.2788,-5.2498,-5.2498,-5.2498,-5.2498,-5.2498,-5.2498,-5.2498,-5.2498,-5.2498,-5.2498,-5.2498,-5.2498,-5.2389,-5.2009,-5.1937,-5.143,-4.9836,-4.9546,-4.913,-4.7898,-4.7717,-4.7717,-4.7717,-4.7717,-4.7717,-4.7717,-4.7717,-4.7717,-4.7717,-4.7717,-4.7717,-4.7717,-4.7717,-4.7717,-4.7717,-4.7717,-4.7959,-4.8538,-4.9337,-5.0205,-5.114,-5.2047,-5.2676,-5.3103,-5.3164,-5.3206,-2.5918,-2.7942,-3.0042,-3.0629,0.0,0.0,0.0,0.0,0.0,0.0,0.0,0.0,0.0,0.0,0.0,0.0,0.0,0.0,0.0,0.0,0.0,0.0,0.0,0.0,0.0,0.0,0.0,0.0,0.0,0.0,-5.7932,-5.7932,-5.7774,-5.7486,-5.7486,-5.7486,-5.7486,-5.7388,-5.7289,-5.7188,-5.7188,-5.7188,-5.7188,-5.7188,-5.7188,-5.7188,-5.7188,-5.7188,-5.7188,-5.7188,-5.6826,-5.621,-5.545,-5.516,-5.516,-5.516,-5.5522,-5.5921,-5.5341,-5.5414,-5.5522,-5.4146,-5.3693,-5.3548,-5.2733,-5.2498,-5.2498,-5.2498,-5.2498,-5.2498,-5.2498,-5.2498,-5.2498,-5.2498,-5.2498,-5.2498,-5.2498,-5.2498,-5.2498,-5.2498,-5.2498,-5.1991,-5.0361,-5.009,-4.9546,-4.7953,-4.7717,-4.7717,-4.7717,-4.7717,-4.7717,-4.7717,-4.7717,-4.7717,-4.7717,-4.7717,-4.7717,-4.7717,-4.7717,-4.7717,-4.7717,-4.7898,-4.8363,-4.9107,-5.0132,-5.1079,-5.1833,-5.2639,-5.3103,-5.3206,-5.3206,-5.3206,-2.8007,-2.9254,-3.0459,-3.2842,0.0,0.0,0.0,0.0,0.0,0.0,0.0,0.0,0.0,0.0,0.0,0.0,0.0,0.0,0.0,0.0,0.0,0.0,0.0,0.0,0.0,0.0,0.0,0.0,0.0,0.0,-5.8275,-5.8257,-5.8257,-5.8213,-5.8213,-5.8213,-5.8213,-5.7914,-5.7553,-5.7188,-5.7188,-5.7188,-5.7188,-5.7188,-5.7188,-5.7188,-5.7188,-5.7188,-5.7188,-5.7188,-5.717,-5.7025,-5.6228,-5.5921,-5.5921,-5.5921,-5.5939,-5.5975,-5.5939,-5.5504,-5.4852,-5.3983,-5.3693,-5.3548,-5.2733,-5.2498,-5.2498,-5.2498,-5.2498,-5.2498,-5.2498,-5.2498,-5.2498,-5.2498,-5.2498,-5.2498,-5.2498,-5.2498,-5.2498,-5.2498,-5.2498,-5.1991,-5.0361,-5.009,-4.9546,-4.7953,-4.7717,-4.7717,-4.7717,-4.7717,-4.7717,-4.7717,-4.7717,-4.7717,-4.7717,-4.7717,-4.7717,-4.7717,-4.7717,-4.7717,-4.7717,-4.8551,-4.9052,-4.9213,-5.0811,-5.1778,-5.1995,-5.2803,-5.3206,-5.3206,-5.3206,-5.3206,-2.6295,-2.8622,-3.1111,-3.2486,0.0,0.0,0.0,0.0,0.0,0.0,0.0,0.0,0.0,0.0,0.0,0.0,0.0,0.0,0.0,0.0,0.0,0.0,0.0,0.0,0.0,0.0,0.0,0.0,0.0,0.0,-5.7858,-5.8322,-5.8516,-5.8319,-5.8301,-5.8301,-5.8301,-5.8186,-5.8033,-5.7895,-5.7437,-5.7188,-5.7188,-5.7188,-5.7188,-5.7188,-5.7188,-5.7188,-5.7188,-5.7188,-5.6899,-5.641,-5.612,-5.5721,-5.5377,-5.583,-5.5703,-5.5233,-5.4744,-5.4381,-5.4019,-5.3222,-5.2951,-5.2896,-5.2589,-5.2498,-5.2498,-5.2498,-5.2498,-5.2498,-5.2498,-5.2498,-5.2498,-5.2498,-5.2498,-5.2498,-5.2498,-5.2498,-5.2498,-5.2498,-5.2498,-5.1991,-5.0361,-5.009,-4.9546,-4.7953,-4.7717,-4.7717,-4.7717,-4.7717,-4.7717,-4.7717,-4.7717,-4.7717,-4.7717,-4.7717,-4.7717,-4.7717,-4.7717,-4.7935,-4.8442,-4.8877,-4.9622,-5.0672,-5.142,-5.2132,-5.2747,-5.3059,-5.3206,-5.3206,-5.3206,-5.3295,-2.5933,-2.8546,-3.149,0.0,0.0,0.0,0.0,0.0,0.0,0.0,0.0,0.0,0.0,0.0,0.0,0.0,0.0,0.0,0.0,0.0,0.0,0.0,0.0,0.0,0.0,0.0,0.0,0.0,0.0,0.0,-5.7397,-5.7686,-5.7821,-5.7714,-5.7587,-5.7568,-5.7714,-5.7845,-5.7827,-5.7653,-5.7336,-5.7279,-5.7565,-5.7565,-5.7565,-5.7565,-5.7565,-5.7565,-5.7516,-5.7437,-5.6817,-5.5993,-5.5993,-5.554,-5.4961,-5.5468,-5.5178,-5.4454,-5.3892,-5.353,-5.3222,-5.2679,-5.2498,-5.2498,-5.2498,-5.2498,-5.2498,-5.2498,-5.2498,-5.2498,-5.2498,-5.2498,-5.2498,-5.2498,-5.2498,-5.2498,-5.2498,-5.2498,-5.2498,-5.2498,-5.2281,-5.1683,-5.0325,-4.9872,-4.93,-4.8006,-4.7847,-4.7888,-4.797,-4.7951,-4.7951,-4.7951,-4.7951,-4.7951,-4.7951,-4.7951,-4.7951,-4.7951,-4.8229,-4.8507,-4.8894,-4.9513,-5.0423,-5.1584,-5.2137,-5.2706,-5.3378,-5.3481,-5.3561,-5.3561,-5.3561,-5.368,-2.7701,-2.9406,0.0,0.0,0.0,0.0,0.0,0.0,0.0,0.0,0.0,0.0,0.0,0.0,0.0,0.0,0.0,0.0,0.0,0.0,0.0,0.0,0.0,0.0,0.0,0.0,0.0,0.0,0.0,-5.6538,-5.6887,-5.6269,-5.607,-5.6385,-5.607,-5.607,-5.6366,-5.6825,-5.6825,-5.6329,-5.6802,-5.7507,-5.8282,-5.8282,-5.8282,-5.8282,-5.8282,-5.8282,-5.8238,-5.7895,-5.7043,-5.5975,-5.5975,-5.554,-5.4907,-5.4907,-5.4381,-5.3693,-5.3693,-5.3168,-5.2498,-5.2498,-5.2498,-5.2498,-5.2498,-5.2498,-5.2498,-5.2498,-5.2498,-5.2498,-5.2498,-5.2498,-5.2498,-5.2498,-5.2498,-5.2498,-5.2498,-5.2498,-5.2498,-5.2498,-5.1846,-5.1031,-5.0216,-4.9438,-4.875,-4.8203,-4.8096,-4.8231,-4.855,-4.8587,-4.8587,-4.8587,-4.8587,-4.8587,-4.8587,-4.8605,-4.8605,-4.8605,-4.9363,-4.9556,-4.8974,-5.0635,-5.1602,-5.1602,-5.3001,-5.372,-5.372,-5.4123,-5.4315,-5.4315,-5.4315,-5.4296,-2.6811,0.0,0.0,0.0,0.0,0.0,0.0,0.0,0.0,0.0,0.0,0.0,0.0,0.0,0.0,0.0,0.0,0.0,0.0,0.0,0.0,0.0,0.0,0.0,0.0,0.0,0.0,0.0,-5.5578,-5.5861,-5.5986,-5.6126,-5.6288,-5.6423,-5.607,-5.5946,-5.6029,-5.6024,-5.6048,-5.6211,-5.6191,-5.6306,-5.6541,-5.6541,-5.6411,-5.619,-5.619,-5.6072,-5.5895,-5.5818,-5.5655,-5.5476,-5.5293,-5.4762,-5.4055,-5.4055,-5.3548,-5.286,-5.286,-5.2697,-5.2498,-5.2498,-5.2498,-5.2498,-5.2498,-5.2498,-5.2498,-5.2498,-5.2498,-5.2498,-5.2498,-5.2498,-5.2498,-5.2498,-5.2498,-5.2498,-5.2498,-5.2498,-5.2498,-5.2498,-5.1991,-5.1329,-5.0526,-4.9929,-4.9281,-4.855,-4.8458,-4.8514,-4.8587,-4.8587,-4.8587,-4.8587,-4.8587,-4.8587,-4.8587,-4.9104,-4.9418,-4.9418,-5.0711,-5.1191,-5.0543,-5.1693,-5.2678,-5.3368,-5.3867,-5.4123,-5.4123,-5.4228,-5.4315,-5.4315,-5.4315,-5.443,-2.9174,0.0,0.0,0.0,0.0,0.0,0.0,0.0,0.0,0.0,0.0,0.0,0.0,0.0,0.0,0.0,0.0,0.0,0.0,0.0,0.0,0.0,0.0,0.0,0.0,0.0,0.0,-5.4409,-5.4737,-5.4963,-5.5141,-5.5156,-5.5263,-5.5397,-5.5066,-5.4944,-5.5066,-5.5217,-5.5281,-5.5359,-5.5522,-5.5384,-5.5022,-5.5651,-5.5821,-5.5544,-5.5544,-5.5359,-5.5091,-5.5091,-5.4937,-5.4628,-5.4495,-5.3929,-5.3222,-5.3222,-5.2915,-5.2498,-5.2498,-5.2498,-5.2498,-5.2498,-5.2498,-5.2498,-5.2498,-5.2498,-5.2498,-5.2498,-5.2498,-5.2498,-5.2498,-5.2498,-5.2498,-5.2498,-5.2498,-5.2498,-5.2498,-5.2618,-5.2599,-5.2272,-5.1785,-5.1169,-5.0362,-4.9709,-4.9196,-4.8805,-4.889,-4.8978,-4.8978,-4.8978,-4.8978,-4.8978,-4.8978,-4.8978,-4.8978,-4.9703,-5.0168,-5.0168,-5.1693,-5.2453,-5.2169,-5.2802,-5.3439,-5.4083,-5.4378,-5.4495,-5.4495,-5.4642,-5.4754,-5.4754,-5.4754,-5.4844,0.0,0.0,0.0,0.0,0.0,0.0,0.0,0.0,0.0,0.0,0.0,0.0,0.0,0.0,0.0,0.0,0.0,0.0,0.0,0.0,0.0,0.0,0.0,0.0,0.0,0.0,-5.4409,-5.4409,-5.4108,-5.4072,-5.439,-5.3776,-5.3565,-5.3907,-5.3524,-5.3462,-5.3756,-5.438,-5.4498,-5.4091,-5.4783,-5.4652,-5.385,-5.5299,-5.5829,-5.5641,-5.5599,-5.5429,-5.5184,-5.5157,-5.4556,-5.3632,-5.3585,-5.3132,-5.2498,-5.2498,-5.2498,-5.2498,-5.2498,-5.2498,-5.2498,-5.2498,-5.2498,-5.2498,-5.2544,-5.2544,-5.2526,-5.2572,-5.2572,-5.2554,-5.2481,-5.2463,-5.2445,-5.2372,-5.2481,-5.2508,-5.2435,-5.267,-5.2676,-5.1815,-5.1253,-5.0693,-4.9972,-4.9196,-4.8767,-4.9027,-4.9295,-4.9509,-4.9509,-4.9509,-4.9509,-4.9509,-4.9509,-4.9527,-4.9602,-5.0353,-5.0823,-5.0917,-5.2419,-5.3427,-5.3678,-5.383,-5.3996,-5.4206,-5.4635,-5.4836,-5.4855,-5.5214,-5.5403,-5.5403,-5.5403,-5.5403,0.0,0.0,0.0,0.0,0.0,0.0,0.0,0.0,0.0,0.0,0.0,0.0,0.0,0.0,0.0,0.0,0.0,0.0,0.0,0.0,0.0,0.0,0.0,0.0,0.0,-5.4409,-5.4409,-5.4409,-5.4321,-5.4321,-5.4409,-5.4017,-5.3833,-5.3907,-5.3584,-5.3407,-5.3505,-5.3387,-5.3529,-5.387,-5.3693,-5.3693,-5.3813,-5.4166,-5.406,-5.3622,-5.3334,-5.3334,-5.3511,-5.3199,-5.3108,-5.3123,-5.289,-5.2643,-5.2498,-5.2498,-5.2498,-5.2498,-5.2498,-5.2498,-5.2498,-5.2498,-5.2498,-5.2544,-5.2824,-5.2912,-5.2955,-5.3157,-5.3222,-5.3074,-5.2449,-5.2283,-5.2095,-5.147,-5.2108,-5.2685,-5.201,-5.2119,-5.2125,-5.1293,-5.0731,-5.0319,-5.0152,-4.9653,-4.9313,-4.9377,-4.9459,-4.9509,-4.9509,-4.9509,-4.9509,-4.9509,-4.9509,-4.9753,-5.0391,-5.118,-5.1931,-5.2606,-5.3583,-5.4228,-5.4396,-5.4566,-5.4803,-5.5113,-5.5214,-5.526,-5.526,-5.5377,-5.5403,-5.5403,-5.5403,-5.5403,0.0,0.0,0.0,0.0,0.0,0.0,0.0,0.0,0.0,0.0,0.0,0.0,0.0,0.0,0.0,0.0,0.0,0.0,0.0,0.0,0.0,0.0,0.0,0.0,0.0,-5.3583,-5.3827,-5.3827,-5.4183,-5.4409,-5.4409,-5.4233,-5.4144,-5.4144,-5.3926,-5.3795,-5.3757,-5.3524,-5.3542,-5.3813,-5.3641,-5.3641,-5.3813,-5.3521,-5.3277,-5.2999,-5.2663,-5.2572,-5.2753,-5.2572,-5.2618,-5.2735,-5.259,-5.2498,-5.2498,-5.2498,-5.2498,-5.2498,-5.2498,-5.2498,-5.2498,-5.2498,-5.2618,-5.2779,-5.2955,-5.3109,-5.324,-5.3367,-5.313,-5.2742,-5.2317,-5.193,-5.1503,-5.1097,-5.1532,-5.1926,-5.1467,-5.1595,-5.1584,-5.0768,-5.0536,-5.0328,-4.9922,-4.9658,-4.9509,-4.9509,-4.9509,-4.9509,-4.9509,-4.9509,-4.9509,-4.9509,-4.9509,-4.9828,-5.0616,-5.1442,-5.2268,-5.3132,-5.3958,-5.4505,-5.4742,-5.4822,-5.5019,-5.5241,-5.5358,-5.5403,-5.5403,-5.5403,-5.5403,-5.5403,-5.5403,-5.5403,0.0,0.0,0.0,0.0,0.0,0.0,0.0,0.0,0.0,0.0,0.0,0.0,0.0,0.0,0.0,0.0,0.0,0.0,0.0,0.0,0.0,0.0,0.0,0.0,-5.1846,-5.2465,-5.2896,-5.2896,-5.3515,-5.389,-5.389,-5.3924,-5.3943,-5.389,-5.3893,-5.3915,-5.3957,-5.3868,-5.387,-5.3907,-5.4019,-5.4019,-5.3888,-5.3381,-5.3109,-5.3066,-5.2779,-5.2618,-5.259,-5.259,-5.2526,-5.2498,-5.2498,-5.2498,-5.2498,-5.2498,-5.2408,-5.2281,-5.2281,-5.2281,-5.2281,-5.2372,-5.2579,-5.2822,-5.2889,-5.3009,-5.3061,-5.31,-5.2658,-5.2121,-5.1991,-5.1472,-5.0898,-5.0768,-5.0731,-5.0768,-5.0823,-5.1101,-5.1018,-5.025,-5.0287,-5.0278,-4.9602,-4.9509,-4.9509,-4.9509,-4.9509,-4.9509,-4.9509,-4.9509,-4.9509,-4.9509,-4.9509,-4.9828,-5.0616,-5.1442,-5.2268,-5.3132,-5.3958,-5.4557,-5.4852,-5.4912,-5.5009,-5.5157,-5.5313,-5.5403,-5.5403,-5.5403,-5.5403,-5.5403,-5.5403,-5.5403,0.0,0.0,0.0,0.0,0.0,0.0,0.0,0.0,0.0,0.0,0.0,0.0,0.0,0.0,0.0,0.0,0.0,0.0,0.0,0.0,0.0,0.0,0.0,-5.1794,-5.1591,-5.1668,-5.1724,-5.1724,-5.1836,-5.1892,-5.1892,-5.2098,-5.2132,-5.1892,-5.2098,-5.2555,-5.3305,-5.3184,-5.354,-5.4321,-5.434,-5.434,-5.4321,-5.3944,-5.3623,-5.3326,-5.3285,-5.3157,-5.2912,-5.2912,-5.2753,-5.2498,-5.2498,-5.2498,-5.2498,-5.2498,-5.2063,-5.1448,-5.1448,-5.1448,-5.1493,-5.1784,-5.1877,-5.1967,-5.2585,-5.2233,-5.1729,-5.2012,-5.2038,-5.1794,-5.1082,-5.082,-5.0558,-4.9883,-4.9682,-4.9805,-5.0222,-5.0542,-5.0553,-4.9746,-4.9628,-4.9621,-4.9527,-4.9509,-4.9509,-4.9509,-4.9509,-4.9509,-4.9509,-4.9509,-4.9509,-4.9509,-4.9509,-4.9828,-5.0616,-5.1442,-5.2268,-5.3132,-5.3958,-5.4538,-5.4795,-5.499,-5.5186,-5.5431,-5.5421,-5.5403,-5.5403,-5.5403,-5.5403,-5.5403,-5.5403,-5.5403,0.0,0.0,0.0,0.0,0.0,0.0,0.0,0.0,0.0,0.0,0.0,0.0,0.0,0.0,0.0,0.0,0.0,0.0,0.0,0.0,0.0,0.0,0.0,-5.0157,-4.9878,-5.0428,-5.0759,-5.0759,-5.1345,-5.1728,-5.1728,-5.1846,-5.1846,-5.1728,-5.1846,-5.2067,-5.2428,-5.2342,-5.251,-5.2953,-5.2953,-5.2953,-5.3001,-5.2847,-5.3104,-5.3662,-5.3487,-5.3326,-5.324,-5.324,-5.3157,-5.295,-5.2493,-5.2328,-5.2273,-5.1833,-5.1449,-5.1138,-5.1138,-5.1138,-5.1138,-5.1301,-5.1424,-5.1582,-5.1862,-5.1852,-5.1709,-5.186,-5.1574,-5.1142,-5.0785,-5.0372,-4.994,-4.9584,-4.9509,-4.9571,-4.9763,-4.9902,-4.9922,-4.9565,-4.9509,-4.9509,-4.9509,-4.9509,-4.9509,-4.9509,-4.9509,-4.9509,-4.9509,-4.9509,-4.9509,-4.9509,-4.9509,-4.9828,-5.0616,-5.1148,-5.1816,-5.2647,-5.3175,-5.3518,-5.3734,-5.3842,-5.4009,-5.4222,-5.5141,-5.5621,-5.5621,-5.5621,-5.5621,-5.5621,-5.5621,-5.5621,0.0,0.0,0.0,0.0,0.0,0.0,0.0,0.0,0.0,0.0,0.0,0.0,0.0,0.0,0.0,0.0,0.0,0.0,0.0,0.0,0.0,0.0,-4.8906,-4.8802,-4.8623,-4.9321,-4.9815,-4.9884,-5.0703,-5.1157,-5.1157,-5.1241,-5.126,-5.1176,-5.126,-5.1373,-5.1532,-5.1738,-5.1832,-5.1832,-5.1832,-5.1865,-5.1912,-5.1912,-5.2469,-5.3401,-5.3107,-5.2993,-5.2897,-5.2897,-5.2837,-5.2742,-5.2151,-5.1911,-5.1798,-5.1226,-5.0875,-5.0691,-5.0691,-5.0691,-5.0691,-5.0786,-5.0916,-5.1113,-5.1202,-5.126,-5.1292,-5.1292,-5.086,-5.0391,-5.0391,-4.994,-4.9509,-4.9509,-4.9509,-4.9509,-4.9509,-4.9509,-4.9509,-4.9509,-4.9509,-4.9509,-4.9509,-4.9509,-4.9509,-4.9509,-4.9509,-4.9509,-4.9509,-4.9509,-4.9509,-4.9509,-4.9532,-4.9819,-5.0402,-5.0903,-5.1421,-5.2009,-5.2463,-5.2777,-5.2941,-5.3003,-5.3127,-5.3319,-5.4607,-5.5226,-5.5172,-5.5364,-5.5461,-5.5461,-5.5692,-5.5789,0.0,0.0,0.0,0.0,0.0,0.0,0.0,0.0,0.0,0.0,0.0,0.0,0.0,0.0,0.0,0.0,0.0,0.0,0.0,0.0,0.0,0.0,-4.8623,-4.8623,-4.8587,-4.866,-4.8787,-4.903,-4.912,-4.9139,-4.9139,-4.9458,-4.9476,-4.9172,-4.9458,-4.9997,-5.0748,-5.1518,-5.1912,-5.1912,-5.1912,-5.1912,-5.1912,-5.1912,-5.1949,-5.1992,-5.1992,-5.1806,-5.1506,-5.1506,-5.1343,-5.1115,-5.1078,-5.106,-5.106,-5.1023,-5.0506,-4.9842,-4.9842,-4.9842,-4.9899,-5.017,-5.024,-5.0328,-5.0633,-5.0222,-4.9621,-4.9621,-4.9584,-4.9565,-4.9565,-4.9527,-4.9509,-4.9509,-4.9509,-4.9509,-4.9509,-4.9509,-4.9509,-4.9509,-4.9509,-4.9509,-4.9509,-4.9509,-4.9509,-4.9509,-4.9509,-4.9509,-4.9509,-4.9509,-4.9509,-4.9509,-4.9665,-4.9795,-4.9833,-5.0799,-5.1405,-5.1419,-5.2221,-5.2805,-5.3089,-5.3148,-5.3331,-5.3682,-5.376,-5.3684,-5.3436,-5.4188,-5.4555,-5.4593,-5.5422,-5.5789,0.0,0.0,0.0,0.0,0.0,0.0,0.0,0.0,0.0,0.0,0.0,0.0,0.0,0.0,0.0,0.0,0.0,0.0,0.0,0.0,0.0,0.0,-4.6999,-4.7202,-4.7702,-4.7953,-4.8348,-4.8937,-4.9211,-4.9313,-4.9313,-4.9427,-4.9459,-4.9327,-4.9427,-4.964,-4.9922,-5.0222,-5.0353,-5.0353,-5.0353,-5.0353,-5.0353,-5.0353,-5.0353,-5.0353,-5.0353,-5.0871,-5.1709,-5.1709,-5.1675,-5.1535,-5.1012,-5.0807,-5.0732,-5.0228,-4.9855,-4.9612,-4.9612,-4.9612,-4.9627,-4.9725,-4.9757,-4.9776,-4.989,-4.9734,-4.9509,-4.9509,-4.9509,-4.9509,-4.9509,-4.9509,-4.9509,-4.9509,-4.9509,-4.9509,-4.9509,-4.9509,-4.9509,-4.9509,-4.9509,-4.9509,-4.9509,-4.9509,-4.9509,-4.9509,-4.9509,-4.9532,-4.9665,-4.9674,-4.9759,-4.9948,-5.0012,-5.0062,-5.0062,-5.0566,-5.0888,-5.0888,-5.1298,-5.1605,-5.1694,-5.178,-5.1915,-5.2025,-5.2071,-5.2583,-5.3548,-5.4401,-5.4827,-5.4846,-5.5699,-5.6121,0.0,0.0,0.0,0.0,0.0,0.0,0.0,0.0,0.0,0.0,0.0,0.0,0.0,0.0,0.0,0.0,0.0,0.0,0.0,0.0,0.0,0.0,-4.5883,-4.6157,-4.694,-4.7101,-4.7445,-4.8268,-4.8683,0.0,-4.9058,-4.934,-4.9509,-4.9509,-4.9509,-4.9509,-4.9509,-4.9509,-4.9509,-4.9509,-4.9509,-4.9509,-4.9509,-4.9509,-4.9509,-4.9509,-4.9509,-5.0109,-5.1104,-5.1104,-5.1104,-5.1048,-5.0504,-5.0297,-5.0222,-4.9696,-4.9509,-4.9509,-4.9509,-4.9509,-4.9509,-4.9509,-4.9509,-4.9509,-4.9509,-4.9509,-4.9509,-4.9509,-4.9509,-4.9509,-4.9509,-4.9509,-4.9521,-4.9585,-4.9585,-4.9585,-4.9585,-4.9563,-4.9509,-4.9509,-4.9509,-4.9509,-4.9509,-4.9563,-4.9585,-4.9585,-4.9673,-4.9778,-4.991,-4.9917,-4.9993,-5.0183,-5.0275,-5.032,-5.032,-5.0548,-5.07,-5.07,-5.0841,-5.0906,-5.0921,-5.102,-5.1067,-5.1095,-5.1146,-5.1734,-5.2853,-5.3708,-5.4271,-5.4582,-5.5456,-5.6019,0.0,0.0,0.0,0.0,0.0,0.0,0.0,0.0,0.0,0.0,0.0,0.0,0.0,0.0,0.0,0.0,0.0,0.0,0.0,0.0,0.0,-4.5588,-4.5415,-4.5569,-4.6378,-4.6043,-4.6115,-4.6934,-4.7473,-4.789,-4.8157,-4.8964,-4.9434,-4.9471,-4.9471,-4.9471,-4.9509,-4.9509,-4.9509,-4.9509,-4.9509,-4.9509,-4.9509,-4.9509,-4.9509,-4.9509,-4.9509,-4.9509,-4.9509,-4.9509,-4.9509,-4.9509,-4.9509,-4.9509,-4.9509,-4.9509,-4.9509,-4.9509,-4.9509,-4.9509,-4.9509,-4.9509,-4.9509,-4.9509,-4.9509,-4.9509,-4.9509,-4.9509,-4.949,-4.949,-4.9521,-4.9521,-4.9574,-4.9768,-4.9811,-4.9811,-4.9811,-4.9655,-4.9521,-4.949,-4.9521,-4.9521,-4.9521,-4.9693,-4.9811,-4.9811,-5.0019,-5.0206,-5.0206,-5.0206,-5.0206,-5.023,-5.0446,-5.0625,-5.0625,-5.0789,-5.0906,-5.0906,-5.0906,-5.0941,-5.0986,-5.1005,-5.1029,-5.1095,-5.1095,-5.1127,-5.1202,-5.2018,-5.2853,-5.3708,-5.4621,-5.5495,-2.3168,0.0,0.0,0.0,0.0,0.0,0.0,0.0,0.0,0.0,0.0,0.0,0.0,0.0,0.0,0.0,0.0,0.0,0.0,0.0,0.0,-4.3944,-4.3907,-4.4323,-4.5518,-4.5509,-4.5884,0.0,-4.714,-4.7271,-4.7331,-4.7556,-4.7969,-4.8532,-4.8551,-4.8852,-4.949,-4.9509,-4.9509,-4.9509,-4.9509,-4.9509,-4.9509,-4.9509,-4.9509,-4.9509,-4.9509,-4.9509,-4.9509,-4.9509,-4.9509,-4.9509,-4.9509,-4.9509,-4.9509,-4.9509,-4.9509,-4.9509,-4.9509,-4.9509,-4.9509,-4.9509,-4.9509,-4.9509,-4.9509,-4.9509,-4.9509,-4.9509,-4.9615,-4.9759,-4.9955,-5.0006,-5.0032,-5.0087,-5.0087,-5.0087,-5.0087,-5.0057,-4.9955,-4.974,-4.9876,-5.0006,-5.0006,-5.0038,-5.0087,-5.0087,-5.0159,-5.0275,-5.0467,-5.0488,-5.0567,-5.0699,-5.0769,-5.0805,-5.0805,-5.0874,-5.0906,-5.0906,-5.0906,-5.0906,-5.0941,-5.0971,-5.102,-5.1034,-5.1081,-5.1108,-5.1127,-5.1987,-5.2853,-5.3727,-5.5242,-5.6078,0.0,0.0,0.0,0.0,0.0,0.0,0.0,-3.0679,0.0,0.0,0.0,0.0,0.0,0.0,0.0,0.0,0.0,0.0,0.0,0.0,0.0,-4.3267,-4.3196,-4.3521,-4.4522,-4.4527,-4.4846,-4.5709,-4.6094,-4.6499,-4.6974,-4.7012,-4.7218,-4.7687,-4.7706,-4.7932,-4.8457,-4.8795,-4.8964,-4.8964,-4.934,-4.9509,-4.9509,-4.9509,-4.9509,-4.9509,-4.9509,-4.9509,-4.9509,-4.9509,-4.9509,-4.9509,-4.9509,-4.9509,-4.9509,-4.9509,-4.9509,-4.9509,-4.9509,-4.9509,-4.9509,-4.9509,-4.9509,-4.9509,-4.9509,-4.9509,-4.9521,-4.9585,-4.9787,-4.9993,-5.0159,-5.0206,-5.023,-5.0342,-5.0383,-5.0383,-5.0383,-5.0427,-5.0406,-5.0043,-5.0092,-5.0206,-5.0206,-5.0298,-5.0383,-5.0383,-5.0427,-5.0548,-5.0718,-5.0736,-5.0771,-5.089,-5.0906,-5.0906,-5.0906,-5.0906,-5.0906,-5.0906,-5.0906,-5.0906,-5.0906,-5.0941,-5.0971,-5.1005,-5.1053,-5.1062,-5.1095,-5.1605,-5.2491,-5.3727,-5.5126,-5.5942,-2.5429,-2.5822,0.0,0.0,-2.781,0.0,-3.0261,-2.998,0.0,0.0,0.0,0.0,0.0,0.0,0.0,0.0,0.0,0.0,0.0,0.0,0.0,-4.3232,-4.3069,-4.3105,-4.3612,-4.3442,-4.3511,-4.403,-4.473,-4.5599,-4.6663,-4.673,-4.6768,-4.6861,-4.6861,-4.6899,-4.7012,-4.7706,-4.8063,-4.8082,-4.8852,-4.9227,-4.9227,-4.9227,-4.9227,-4.9227,-4.9321,-4.9358,-4.9358,-4.9471,-4.9509,-4.9509,-4.9509,-4.9509,-4.9509,-4.9509,-4.9509,-4.9509,-4.9509,-4.9509,-4.9509,-4.9509,-4.9509,-4.949,-4.9521,-4.9532,-4.9574,-4.9803,-5.0043,-5.0252,-5.0275,-5.0275,-5.0342,-5.0587,-5.0625,-5.0625,-5.0625,-5.0771,-5.0789,-5.0363,-5.0275,-5.0275,-5.0275,-5.0467,-5.0625,-5.0625,-5.0789,-5.0906,-5.0906,-5.0906,-5.0906,-5.0906,-5.0906,-5.0906,-5.0906,-5.0906,-5.0906,-5.0906,-5.0906,-5.0906,-5.0906,-5.0906,-5.0941,-5.1005,-5.1005,-5.1015,-5.1082,-5.1192,-5.2091,-5.3708,-5.4582,-5.5476,-2.8503,-2.8827,-2.9252,-2.8424,-2.9267,0.0,-2.7126,-2.7374,-2.8235,0.0,0.0,0.0,0.0,0.0,0.0,0.0,0.0,0.0,0.0,0.0,0.0,0.0,-4.292,-4.3032,-4.3338,-4.3338,-4.3442,-4.3744,-4.4116,-4.4517,-4.4956,-4.5003,-4.5284,-4.5923,-4.596,-4.6298,-4.6993,-4.7162,-4.7237,-4.7237,-4.7406,-4.75,-4.75,-4.75,-4.75,-4.7519,-4.8176,-4.8438,-4.8514,-4.9208,-4.9509,-4.9509,-4.9509,-4.9509,-4.9509,-4.9509,-4.9509,-4.9509,-4.9509,-4.9509,-4.9509,-4.9509,-4.9509,-4.9551,-4.9674,-4.974,-4.983,-5.0298,-5.0467,-5.0567,-5.0717,-5.0752,-5.0789,-5.0822,-5.0839,-5.0839,-5.0839,-5.0874,-5.0855,-5.0769,-5.0752,-5.0752,-5.0752,-5.0805,-5.0839,-5.0839,-5.0874,-5.0906,-5.0906,-5.0906,-5.0906,-5.0906,-5.0906,-5.0906,-5.0906,-5.0906,-5.0906,-5.0906,-5.0906,-5.0906,-5.0906,-5.0906,-5.0906,-5.0906,-5.0971,-5.102,-5.1015,-5.1787,-5.268,-5.3708,-5.4582,-5.5476,-3.0167,-2.9996,-3.0194,-2.9696,0.0,0.0,0.0,-2.7606,-2.7934,-2.8964,0.0,0.0,0.0,0.0,0.0,0.0,0.0,0.0,0.0,0.0,0.0,0.0,-4.1705,-4.1923,-4.2432,-4.2629,-4.2968,-4.3642,-4.3936,-4.417,-4.4306,-4.444,-4.4684,-4.5097,-4.5097,-4.5322,-4.5754,-4.6148,-4.6354,-4.6354,-4.6805,-4.7012,-4.7012,-4.7012,-4.7012,-4.703,-4.7425,-4.7594,-4.7631,-4.8082,-4.8251,-4.8345,-4.9171,-4.9509,-4.9509,-4.9509,-4.9509,-4.9509,-4.9509,-4.9509,-4.9521,-4.9615,-4.9655,-4.9693,-4.9936,-5.0092,-5.0252,-5.0508,-5.0663,-5.0771,-5.0874,-5.0906,-5.0906,-5.0906,-5.0906,-5.0906,-5.0906,-5.0906,-5.0906,-5.0906,-5.0906,-5.0906,-5.0906,-5.0906,-5.0906,-5.0906,-5.0906,-5.0906,-5.0906,-5.0906,-5.0906,-5.0906,-5.0906,-5.0906,-5.0906,-5.0906,-5.0906,-5.0906,-5.0906,-5.0906,-5.0906,-5.0906,-5.0906,-5.0906,-5.0921,-5.0971,-5.1005,-5.1474,-5.2388,-5.3702,-5.4149,-5.5055,0.0,0.0,-3.1763,-3.1524,0.0,-3.0268,0.0,0.0,0.0,-2.9771,0.0,0.0,0.0,0.0,0.0,0.0,0.0,0.0,0.0,0.0,0.0,-3.9749,-4.0111,-4.0546,-4.1198,-4.1158,-4.1705,-4.3059,-4.3082,-4.3274,-4.383,-4.4213,-4.444,-4.4515,-4.4515,-4.4515,-4.4515,-4.5153,-4.5472,-4.5472,-4.6186,-4.6523,-4.6523,-4.6523,-4.6523,-4.6542,-4.6692,-4.6749,-4.6768,-4.6936,-4.7012,-4.7143,-4.8495,-4.902,-4.9039,-4.9189,-4.9246,-4.9265,-4.9476,-4.9563,-4.9604,-4.9822,-4.9917,-4.9993,-5.0206,-5.0467,-5.0663,-5.0663,-5.0771,-5.0906,-5.0906,-5.0906,-5.0906,-5.0906,-5.0906,-5.0906,-5.0906,-5.0906,-5.0906,-5.0906,-5.0906,-5.0906,-5.0906,-5.0906,-5.0906,-5.0906,-5.0906,-5.0906,-5.0906,-5.0906,-5.0906,-5.0906,-5.0906,-5.0906,-5.0906,-5.0906,-5.0906,-5.0906,-5.0906,-5.0906,-5.0906,-5.0906,-5.0906,-5.0906,-5.0906,-5.0941,-5.0971,-5.0971,-5.1809,-5.343,-5.343,-5.4369,0.0,0.0,0.0,0.0,-3.4093,-3.4601,-2.8956,0.0,-2.8993,-2.7127,0.0,0.0,0.0,0.0,0.0,0.0,0.0,0.0,0.0,0.0,0.0,-3.7051,-3.8645,-3.955,-3.9641,-3.8389,-3.8609,-4.1046,-3.996,-4.0357,-4.2899,-4.3729,-4.4229,-4.4487,-4.4515,-4.4515,-4.4515,-4.459,-4.4646,-4.4646,-4.474,-4.4796,-4.4796,-4.4796,-4.4796,-4.4834,-4.5547,-4.5848,-4.5904,-4.6692,-4.7012,-4.703,-4.7218,-4.7293,-4.7368,-4.8082,-4.8345,-4.8469,-4.9438,-4.9768,-4.9803,-5.0087,-5.032,-5.0508,-5.0547,-5.0699,-5.0874,-5.0874,-5.089,-5.0906,-5.0906,-5.0906,-5.0906,-5.0906,-5.0906,-5.0906,-5.0906,-5.0906,-5.0906,-5.0906,-5.0906,-5.0906,-5.0906,-5.0906,-5.0906,-5.0906,-5.0906,-5.0906,-5.0906,-5.0906,-5.0906,-5.0906,-5.0906,-5.0906,-5.0906,-5.0906,-5.0906,-5.0906,-5.0906,-5.0906,-5.0906,-5.0906,-5.0906,-5.0906,-5.0906,-5.0906,-5.0906,-5.0906,-5.1436,-5.2471,-5.2471,-5.3383,0.0,0.0,0.0,0.0,-3.4304,-3.4025,-3.0341,-2.93,-2.9083,-2.8993,0.0,0.0,0.0,0.0,0.0,0.0,-2.8141,0.0,0.0,0.0,0.0,0.0,0.0,0.0,-3.7178,-3.6707,-3.7152,-3.9192,-3.8548,-3.9224,-4.1827,-4.3013,-4.3896,-4.4496,-4.4515,-4.4515,-4.4515,-4.4515,-4.4515,-4.4515,-4.4515,-4.4515,-4.4515,-4.4515,-4.4515,-4.4533,-4.4871,-4.5003,-4.504,-4.5416,-4.5566,-4.5566,-4.5566,-4.6148,-4.7078,-4.7504,-4.7682,-4.7823,-4.891,-4.9295,-4.942,-5.0189,-5.0587,-5.0771,-5.0771,-5.0822,-5.0906,-5.0906,-5.0906,-5.0906,-5.0906,-5.0906,-5.0906,-5.0906,-5.0906,-5.0906,-5.0906,-5.0906,-5.0906,-5.0906,-5.0964,-5.1022,-5.1022,-5.0964,-5.0906,-5.0906,-5.0906,-5.0906,-5.0906,-5.0906,-5.0906,-5.0906,-5.0906,-5.0906,-5.0906,-5.0906,-5.0906,-5.0906,-5.0906,-5.0906,-5.0906,-5.0906,-5.0906,-5.0906,-5.0906,-5.0906,-5.0906,-5.0906,-5.1095,-5.1494,-5.2046,-5.2967,-3.6775,-3.7293,-3.7489,-3.4927,-3.4032,-3.319,-3.0885,-2.9952,-2.9789,-3.0514,-2.9807,0.0,0.0,0.0,0.0,0.0,0.0,-2.7924,0.0,0.0,0.0,0.0,0.0,0.0,0.0,-3.4353,-3.48,-3.713,-3.6457,-3.735,-4.0563,-4.2072,-4.3258,-4.4158,-4.4402,-4.4515,-4.4515,-4.4515,-4.4515,-4.4515,-4.4515,-4.4515,-4.4515,-4.4515,-4.4515,-4.4515,-4.4515,-4.4515,-4.4515,-4.4515,-4.4515,-4.4515,-4.456,-4.5321,-4.644,-4.6819,-4.7005,-4.7219,-4.8296,-4.8692,-4.8891,-4.974,-5.0267,-5.0577,-5.0577,-5.0732,-5.0906,-5.0906,-5.0906,-5.0906,-5.0906,-5.0906,-5.0906,-5.0906,-5.0906,-5.0906,-5.0906,-5.0945,-5.0945,-5.0925,-5.1022,-5.1119,-5.1099,-5.1041,-5.0983,-5.0983,-5.0983,-5.0983,-5.0983,-5.0983,-5.0983,-5.0983,-5.0983,-5.0983,-5.0983,-5.0983,-5.0983,-5.0964,-5.0983,-5.0983,-5.0964,-5.0964,-5.0964,-5.0964,-5.0925,-5.0906,-5.0906,-5.0906,-5.0906,-5.0925,-5.1595,-5.238,-3.8685,-3.9379,-3.9434,-3.4637,-3.4009,-3.3538,-2.9564,-3.0441,-3.1655,-3.0133,-3.1636,-3.2741,-3.1238,-3.026,-2.921,-2.7652,0.0,0.0,0.0,0.0,0.0,0.0,0.0,0.0,0.0,-3.0677,-3.0539,0.0,-3.2847,-3.3773,-3.8997,-4.0766,-4.2174,-4.3294,-4.4102,-4.4515,-4.4515,-4.4515,-4.4515,-4.4515,-4.4515,-4.4515,-4.4515,-4.4515,-4.4515,-4.4515,-4.4515,-4.4515,-4.4515,-4.4515,-4.4515,-4.4524,-4.4714,-4.4814,-4.4965,-4.5843,-4.6254,-4.6577,-4.7665,-4.8212,-4.8415,-4.8454,-4.9049,-4.9745,-4.9745,-5.0287,-5.0906,-5.0906,-5.0906,-5.0906,-5.0906,-5.0906,-5.0906,-5.0906,-5.0906,-5.0906,-5.0906,-5.1003,-5.1061,-5.0945,-5.1061,-5.1177,-5.1119,-5.1157,-5.1196,-5.1196,-5.1196,-5.1196,-5.1196,-5.1196,-5.1196,-5.1196,-5.1196,-5.1196,-5.1196,-5.1196,-5.1157,-5.1099,-5.1157,-5.1157,-5.1099,-5.1099,-5.1099,-5.1099,-5.0983,-5.0906,-5.0906,-5.0906,-5.0906,-5.0906,-5.0925,-5.1409,-3.9987,-4.0823,-4.075,-3.6817,-3.5739,-3.4629,-3.1012,-3.122,-3.1727,-3.0115,-3.1709,-3.2904,-3.1292,-3.0333,-2.9445,-2.8377,-2.7308,0.0,0.0,0.0,0.0,0.0,0.0,0.0,0.0,0.0,0.0,-3.2128,-3.1751,-3.3353,-3.796,-3.99,-4.1614,-4.3257,-4.4083,-4.4515,-4.4515,-4.4515,-4.4515,-4.4515,-4.4515,-4.4515,-4.4515,-4.4515,-4.4515,-4.4515,-4.4515,-4.4515,-4.4515,-4.4515,-4.4587,-4.4714,-4.477,-4.4992,-4.5303,-4.559,-4.5745,-4.5956,-4.7034,-4.7844,-4.8392,-4.8392,-4.8604,-4.8952,-4.9533,-4.99,-5.0229,-5.0751,-5.0906,-5.0906,-5.0906,-5.0906,-5.0906,-5.0906,-5.0906,-5.0906,-5.0906,-5.1022,-5.1099,-5.1041,-5.1119,-5.1215,-5.1235,-5.125,-5.1258,-5.1219,-5.12,-5.12,-5.12,-5.12,-5.12,-5.12,-5.12,-5.12,-5.12,-5.12,-5.12,-5.1161,-5.1197,-5.1189,-5.1169,-5.1161,-5.1159,-5.1157,-5.1119,-5.1099,-5.1099,-5.1099,-5.108,-5.1041,-5.1041,-5.1138,-4.0876,-4.1512,-4.1455,-3.8332,-3.7252,-3.5957,-3.2282,-3.2744,-3.3314,-3.1121,-3.2578,-3.3936,-3.2904,-3.1582,-3.0296,-2.921,-2.7689,-2.6149,0.0,-2.4574,0.0,0.0,0.0,0.0,0.0,0.0,-2.8257,-3.0493,-3.0581,0.0,0.0,-3.8495,-4.0483,-4.2355,-4.3501,-4.4214,-4.4515,-4.4515,-4.4515,-4.4515,-4.4515,-4.4515,-4.4515,-4.4515,-4.4515,-4.4515,-4.4515,-4.4515,-4.4515,-4.4587,-4.4662,-4.4825,-4.4969,-4.5226,-4.549,-4.549,-4.556,-4.5703,-4.6409,-4.6999,-4.7482,-4.7482,-4.7695,-4.8043,-4.8604,-4.9204,-4.9803,-5.0326,-5.0693,-5.0906,-5.0906,-5.0906,-5.0906,-5.0906,-5.0906,-5.0925,-5.0964,-5.1061,-5.113,-5.1147,-5.1214,-5.1284,-5.13,-5.1327,-5.1313,-5.1274,-5.1274,-5.1274,-5.1274,-5.1274,-5.1274,-5.1274,-5.1274,-5.1274,-5.1274,-5.1274,-5.1255,-5.1235,-5.1265,-5.1268,-5.1238,-5.1245,-5.1239,-5.124,-5.121,-5.1199,-5.1199,-5.1199,-5.1179,-5.114,-5.1126,-5.108]}]]